<?xml version="1.0" encoding="UTF-8" standalone="no" ?>
<gpx xmlns="http://www.topografix.com/GPX/1/1" xmlns:xsi="http://www.w3.org/2001/XMLSchema-instance" xsi:schemaLocation="http://www.topografix.com/GPX/1/1 http://www.topografix.com/GPX/1/1/gpx.xsd" version="1.1" creator="VisuGPX - https://www.visugpx.com">
  <metadata>
    <name>140531ROBDolmenGueiletCommanderie</name>
    <desc><![CDATA[Excellente sortie avant la pluie]]></desc>
  </metadata>
  <trk>
    <name><![CDATA[140531ROBDolmenGueiletCommanderie]]></name>
    <trkseg>
      <trkpt lat="43.41862" lon="6.07258">
        <ele>224.32675</ele>
        <time>2014-05-31T11:42:51Z</time>
      </trkpt>
      <trkpt lat="43.41862" lon="6.07258">
        <ele>224.32675</ele>
        <time>2014-05-31T11:43:18Z</time>
      </trkpt>
      <trkpt lat="43.41861" lon="6.07257">
        <ele>224.25638</ele>
        <time>2014-05-31T11:43:23Z</time>
      </trkpt>
      <trkpt lat="43.41863" lon="6.07247">
        <ele>223.96112</ele>
        <time>2014-05-31T11:43:27Z</time>
      </trkpt>
      <trkpt lat="43.41865" lon="6.07234">
        <ele>223.57489</ele>
        <time>2014-05-31T11:43:31Z</time>
      </trkpt>
      <trkpt lat="43.41869" lon="6.07216">
        <ele>223.50272</ele>
        <time>2014-05-31T11:43:36Z</time>
      </trkpt>
      <trkpt lat="43.41878" lon="6.07213">
        <ele>223.92671</ele>
        <time>2014-05-31T11:43:39Z</time>
      </trkpt>
      <trkpt lat="43.41897" lon="6.07204">
        <ele>224.93781</ele>
        <time>2014-05-31T11:43:46Z</time>
      </trkpt>
      <trkpt lat="43.41911" lon="6.07193">
        <ele>225.86133</ele>
        <time>2014-05-31T11:43:52Z</time>
      </trkpt>
      <trkpt lat="43.41913" lon="6.0719">
        <ele>226.03644</ele>
        <time>2014-05-31T11:43:53Z</time>
      </trkpt>
      <trkpt lat="43.41914" lon="6.07171">
        <ele>226.75055</ele>
        <time>2014-05-31T11:43:57Z</time>
      </trkpt>
      <trkpt lat="43.41904" lon="6.0715">
        <ele>227.50531</ele>
        <time>2014-05-31T11:44:01Z</time>
      </trkpt>
      <trkpt lat="43.41901" lon="6.07148">
        <ele>227.37027</ele>
        <time>2014-05-31T11:44:02Z</time>
      </trkpt>
      <trkpt lat="43.41896" lon="6.07149">
        <ele>227.09024</ele>
        <time>2014-05-31T11:44:03Z</time>
      </trkpt>
      <trkpt lat="43.41887" lon="6.0715">
        <ele>226.51537</ele>
        <time>2014-05-31T11:44:05Z</time>
      </trkpt>
      <trkpt lat="43.41877" lon="6.07152">
        <ele>226.10338</ele>
        <time>2014-05-31T11:44:07Z</time>
      </trkpt>
      <trkpt lat="43.41872" lon="6.0715">
        <ele>225.96777</ele>
        <time>2014-05-31T11:44:08Z</time>
      </trkpt>
      <trkpt lat="43.41851" lon="6.07139">
        <ele>224.95207</ele>
        <time>2014-05-31T11:44:12Z</time>
      </trkpt>
      <trkpt lat="43.41838" lon="6.07131">
        <ele>223.80783</ele>
        <time>2014-05-31T11:44:15Z</time>
      </trkpt>
      <trkpt lat="43.41806" lon="6.07108">
        <ele>223.13007</ele>
        <time>2014-05-31T11:44:22Z</time>
      </trkpt>
      <trkpt lat="43.41775" lon="6.07099">
        <ele>222.35757</ele>
        <time>2014-05-31T11:44:28Z</time>
      </trkpt>
      <trkpt lat="43.4173" lon="6.07091">
        <ele>221.01862</ele>
        <time>2014-05-31T11:44:39Z</time>
      </trkpt>
      <trkpt lat="43.41726" lon="6.07089">
        <ele>220.92764</ele>
        <time>2014-05-31T11:44:40Z</time>
      </trkpt>
      <trkpt lat="43.41719" lon="6.07084">
        <ele>220.88031</ele>
        <time>2014-05-31T11:44:42Z</time>
      </trkpt>
      <trkpt lat="43.41709" lon="6.0706">
        <ele>221.34306</ele>
        <time>2014-05-31T11:44:47Z</time>
      </trkpt>
      <trkpt lat="43.41702" lon="6.07035">
        <ele>221.81049</ele>
        <time>2014-05-31T11:44:53Z</time>
      </trkpt>
      <trkpt lat="43.41697" lon="6.07013">
        <ele>222.04794</ele>
        <time>2014-05-31T11:44:58Z</time>
      </trkpt>
      <trkpt lat="43.41691" lon="6.06993">
        <ele>222.12662</ele>
        <time>2014-05-31T11:45:04Z</time>
      </trkpt>
      <trkpt lat="43.41687" lon="6.06982">
        <ele>222.403</ele>
        <time>2014-05-31T11:45:08Z</time>
      </trkpt>
      <trkpt lat="43.41682" lon="6.06974">
        <ele>222.50772</ele>
        <time>2014-05-31T11:45:10Z</time>
      </trkpt>
      <trkpt lat="43.41666" lon="6.06966">
        <ele>221.98386</ele>
        <time>2014-05-31T11:45:18Z</time>
      </trkpt>
      <trkpt lat="43.41665" lon="6.06965">
        <ele>221.88812</ele>
        <time>2014-05-31T11:45:19Z</time>
      </trkpt>
      <trkpt lat="43.41657" lon="6.06961">
        <ele>221.45863</ele>
        <time>2014-05-31T11:45:23Z</time>
      </trkpt>
      <trkpt lat="43.41619" lon="6.06942">
        <ele>220.29567</ele>
        <time>2014-05-31T11:45:34Z</time>
      </trkpt>
      <trkpt lat="43.4161" lon="6.06939">
        <ele>219.97211</ele>
        <time>2014-05-31T11:45:36Z</time>
      </trkpt>
      <trkpt lat="43.41602" lon="6.06935">
        <ele>219.66998</ele>
        <time>2014-05-31T11:45:38Z</time>
      </trkpt>
      <trkpt lat="43.41593" lon="6.0693">
        <ele>219.35413</ele>
        <time>2014-05-31T11:45:40Z</time>
      </trkpt>
      <trkpt lat="43.41562" lon="6.06915">
        <ele>218.24176</ele>
        <time>2014-05-31T11:45:47Z</time>
      </trkpt>
      <trkpt lat="43.41548" lon="6.06907">
        <ele>218</ele>
        <time>2014-05-31T11:45:50Z</time>
      </trkpt>
      <trkpt lat="43.41524" lon="6.06895">
        <ele>217.96745</ele>
        <time>2014-05-31T11:45:55Z</time>
      </trkpt>
      <trkpt lat="43.41512" lon="6.06883">
        <ele>218</ele>
        <time>2014-05-31T11:45:58Z</time>
      </trkpt>
      <trkpt lat="43.41492" lon="6.0688">
        <ele>218.0822</ele>
        <time>2014-05-31T11:46:02Z</time>
      </trkpt>
      <trkpt lat="43.41479" lon="6.06876">
        <ele>218.33644</ele>
        <time>2014-05-31T11:46:05Z</time>
      </trkpt>
      <trkpt lat="43.41474" lon="6.0687">
        <ele>218.62692</ele>
        <time>2014-05-31T11:46:07Z</time>
      </trkpt>
      <trkpt lat="43.41473" lon="6.06845">
        <ele>219.56729</ele>
        <time>2014-05-31T11:46:12Z</time>
      </trkpt>
      <trkpt lat="43.41475" lon="6.06834">
        <ele>219.90717</ele>
        <time>2014-05-31T11:46:14Z</time>
      </trkpt>
      <trkpt lat="43.41483" lon="6.06814">
        <ele>219.61469</ele>
        <time>2014-05-31T11:46:18Z</time>
      </trkpt>
      <trkpt lat="43.41484" lon="6.06809">
        <ele>219.57349</ele>
        <time>2014-05-31T11:46:19Z</time>
      </trkpt>
      <trkpt lat="43.41489" lon="6.06788">
        <ele>219.39496</ele>
        <time>2014-05-31T11:46:23Z</time>
      </trkpt>
      <trkpt lat="43.41495" lon="6.06747">
        <ele>219.89699</ele>
        <time>2014-05-31T11:46:31Z</time>
      </trkpt>
      <trkpt lat="43.41496" lon="6.06742">
        <ele>219.74557</ele>
        <time>2014-05-31T11:46:32Z</time>
      </trkpt>
      <trkpt lat="43.41497" lon="6.06718">
        <ele>219.1203</ele>
        <time>2014-05-31T11:46:37Z</time>
      </trkpt>
      <trkpt lat="43.41498" lon="6.06703">
        <ele>219.0791</ele>
        <time>2014-05-31T11:46:40Z</time>
      </trkpt>
      <trkpt lat="43.41498" lon="6.06692">
        <ele>219.0791</ele>
        <time>2014-05-31T11:46:42Z</time>
      </trkpt>
      <trkpt lat="43.41499" lon="6.06672">
        <ele>219.0379</ele>
        <time>2014-05-31T11:46:46Z</time>
      </trkpt>
      <trkpt lat="43.41506" lon="6.06629">
        <ele>219</ele>
        <time>2014-05-31T11:46:54Z</time>
      </trkpt>
      <trkpt lat="43.41511" lon="6.06602">
        <ele>219.13318</ele>
        <time>2014-05-31T11:46:59Z</time>
      </trkpt>
      <trkpt lat="43.41519" lon="6.06547">
        <ele>220</ele>
        <time>2014-05-31T11:47:09Z</time>
      </trkpt>
      <trkpt lat="43.41524" lon="6.06524">
        <ele>220</ele>
        <time>2014-05-31T11:47:13Z</time>
      </trkpt>
      <trkpt lat="43.41529" lon="6.06508">
        <ele>220</ele>
        <time>2014-05-31T11:47:16Z</time>
      </trkpt>
      <trkpt lat="43.41545" lon="6.06479">
        <ele>220</ele>
        <time>2014-05-31T11:47:23Z</time>
      </trkpt>
      <trkpt lat="43.41546" lon="6.06433">
        <ele>220</ele>
        <time>2014-05-31T11:47:32Z</time>
      </trkpt>
      <trkpt lat="43.41549" lon="6.06411">
        <ele>220</ele>
        <time>2014-05-31T11:47:37Z</time>
      </trkpt>
      <trkpt lat="43.41554" lon="6.06386">
        <ele>220.09564</ele>
        <time>2014-05-31T11:47:43Z</time>
      </trkpt>
      <trkpt lat="43.41561" lon="6.06361">
        <ele>221.17494</ele>
        <time>2014-05-31T11:47:50Z</time>
      </trkpt>
      <trkpt lat="43.41565" lon="6.06351">
        <ele>221.35162</ele>
        <time>2014-05-31T11:47:53Z</time>
      </trkpt>
      <trkpt lat="43.41578" lon="6.06329">
        <ele>221.98613</ele>
        <time>2014-05-31T11:48:01Z</time>
      </trkpt>
      <trkpt lat="43.4158" lon="6.06326">
        <ele>222.14578</ele>
        <time>2014-05-31T11:48:02Z</time>
      </trkpt>
      <trkpt lat="43.41587" lon="6.06307">
        <ele>223.55148</ele>
        <time>2014-05-31T11:48:08Z</time>
      </trkpt>
      <trkpt lat="43.41585" lon="6.06278">
        <ele>224.18524</ele>
        <time>2014-05-31T11:48:16Z</time>
      </trkpt>
      <trkpt lat="43.41587" lon="6.0627">
        <ele>224.73544</ele>
        <time>2014-05-31T11:48:19Z</time>
      </trkpt>
      <trkpt lat="43.41599" lon="6.06259">
        <ele>226.35593</ele>
        <time>2014-05-31T11:48:25Z</time>
      </trkpt>
      <trkpt lat="43.41605" lon="6.06238">
        <ele>227.3959</ele>
        <time>2014-05-31T11:48:32Z</time>
      </trkpt>
      <trkpt lat="43.41607" lon="6.06217">
        <ele>227.92955</ele>
        <time>2014-05-31T11:48:39Z</time>
      </trkpt>
      <trkpt lat="43.4161" lon="6.06209">
        <ele>228.38101</ele>
        <time>2014-05-31T11:48:42Z</time>
      </trkpt>
      <trkpt lat="43.41613" lon="6.0621">
        <ele>228.60419</ele>
        <time>2014-05-31T11:48:44Z</time>
      </trkpt>
      <trkpt lat="43.41618" lon="6.06218">
        <ele>228.65567</ele>
        <time>2014-05-31T11:48:47Z</time>
      </trkpt>
      <trkpt lat="43.41629" lon="6.06233">
        <ele>229.26257</ele>
        <time>2014-05-31T11:48:53Z</time>
      </trkpt>
      <trkpt lat="43.41636" lon="6.06239">
        <ele>229.81189</ele>
        <time>2014-05-31T11:48:56Z</time>
      </trkpt>
      <trkpt lat="43.41641" lon="6.06241">
        <ele>230.09418</ele>
        <time>2014-05-31T11:48:58Z</time>
      </trkpt>
      <trkpt lat="43.41667" lon="6.0625">
        <ele>231.02283</ele>
        <time>2014-05-31T11:49:07Z</time>
      </trkpt>
      <trkpt lat="43.4167" lon="6.0625">
        <ele>231.26532</ele>
        <time>2014-05-31T11:49:08Z</time>
      </trkpt>
      <trkpt lat="43.41677" lon="6.06251">
        <ele>231.76952</ele>
        <time>2014-05-31T11:49:10Z</time>
      </trkpt>
      <trkpt lat="43.41702" lon="6.06252">
        <ele>233.23366</ele>
        <time>2014-05-31T11:49:17Z</time>
      </trkpt>
      <trkpt lat="43.41722" lon="6.06251">
        <ele>234.00958</ele>
        <time>2014-05-31T11:49:23Z</time>
      </trkpt>
      <trkpt lat="43.41729" lon="6.06251">
        <ele>234.24304</ele>
        <time>2014-05-31T11:49:25Z</time>
      </trkpt>
      <trkpt lat="43.41748" lon="6.06255">
        <ele>234.94342</ele>
        <time>2014-05-31T11:49:32Z</time>
      </trkpt>
      <trkpt lat="43.41766" lon="6.06263">
        <ele>236.17773</ele>
        <time>2014-05-31T11:49:39Z</time>
      </trkpt>
      <trkpt lat="43.41771" lon="6.06265">
        <ele>236.53479</ele>
        <time>2014-05-31T11:49:41Z</time>
      </trkpt>
      <trkpt lat="43.41774" lon="6.06267">
        <ele>236.69958</ele>
        <time>2014-05-31T11:49:42Z</time>
      </trkpt>
      <trkpt lat="43.41802" lon="6.0629">
        <ele>237.82683</ele>
        <time>2014-05-31T11:49:54Z</time>
      </trkpt>
      <trkpt lat="43.41805" lon="6.06291">
        <ele>237.96408</ele>
        <time>2014-05-31T11:49:55Z</time>
      </trkpt>
      <trkpt lat="43.41813" lon="6.06295">
        <ele>238.26428</ele>
        <time>2014-05-31T11:49:58Z</time>
      </trkpt>
      <trkpt lat="43.41832" lon="6.06294">
        <ele>238.95093</ele>
        <time>2014-05-31T11:50:05Z</time>
      </trkpt>
      <trkpt lat="43.41846" lon="6.06294">
        <ele>239.44531</ele>
        <time>2014-05-31T11:50:10Z</time>
      </trkpt>
      <trkpt lat="43.41872" lon="6.06294">
        <ele>240.39288</ele>
        <time>2014-05-31T11:50:21Z</time>
      </trkpt>
      <trkpt lat="43.41879" lon="6.06295">
        <ele>240.64008</ele>
        <time>2014-05-31T11:50:24Z</time>
      </trkpt>
      <trkpt lat="43.41893" lon="6.06296">
        <ele>241.26892</ele>
        <time>2014-05-31T11:50:30Z</time>
      </trkpt>
      <trkpt lat="43.41904" lon="6.06296">
        <ele>242.0929</ele>
        <time>2014-05-31T11:50:35Z</time>
      </trkpt>
      <trkpt lat="43.41937" lon="6.06291">
        <ele>245.18243</ele>
        <time>2014-05-31T11:50:49Z</time>
      </trkpt>
      <trkpt lat="43.41956" lon="6.06283">
        <ele>246.82825</ele>
        <time>2014-05-31T11:50:57Z</time>
      </trkpt>
      <trkpt lat="43.41975" lon="6.06278">
        <ele>248.34341</ele>
        <time>2014-05-31T11:51:05Z</time>
      </trkpt>
      <trkpt lat="43.41992" lon="6.06272">
        <ele>250.15625</ele>
        <time>2014-05-31T11:51:13Z</time>
      </trkpt>
      <trkpt lat="43.42012" lon="6.06264">
        <ele>251.89319</ele>
        <time>2014-05-31T11:51:23Z</time>
      </trkpt>
      <trkpt lat="43.42017" lon="6.06263">
        <ele>252.19531</ele>
        <time>2014-05-31T11:51:25Z</time>
      </trkpt>
      <trkpt lat="43.42022" lon="6.06262">
        <ele>252.6073</ele>
        <time>2014-05-31T11:51:28Z</time>
      </trkpt>
      <trkpt lat="43.42035" lon="6.06259">
        <ele>253.48621</ele>
        <time>2014-05-31T11:51:34Z</time>
      </trkpt>
      <trkpt lat="43.42044" lon="6.06255">
        <ele>254.17285</ele>
        <time>2014-05-31T11:51:39Z</time>
      </trkpt>
      <trkpt lat="43.42069" lon="6.06247">
        <ele>255.95813</ele>
        <time>2014-05-31T11:51:52Z</time>
      </trkpt>
      <trkpt lat="43.42076" lon="6.06244">
        <ele>256.45251</ele>
        <time>2014-05-31T11:51:56Z</time>
      </trkpt>
      <trkpt lat="43.42085" lon="6.0624">
        <ele>257.12634</ele>
        <time>2014-05-31T11:52:01Z</time>
      </trkpt>
      <trkpt lat="43.42097" lon="6.06236">
        <ele>258.4447</ele>
        <time>2014-05-31T11:52:08Z</time>
      </trkpt>
      <trkpt lat="43.42113" lon="6.0623">
        <ele>260.40411</ele>
        <time>2014-05-31T11:52:17Z</time>
      </trkpt>
      <trkpt lat="43.42137" lon="6.06222">
        <ele>264.68787</ele>
        <time>2014-05-31T11:52:29Z</time>
      </trkpt>
      <trkpt lat="43.42141" lon="6.0622">
        <ele>265.38916</ele>
        <time>2014-05-31T11:52:31Z</time>
      </trkpt>
      <trkpt lat="43.42144" lon="6.06218">
        <ele>266.06552</ele>
        <time>2014-05-31T11:52:33Z</time>
      </trkpt>
      <trkpt lat="43.42146" lon="6.06216">
        <ele>266.43286</ele>
        <time>2014-05-31T11:52:34Z</time>
      </trkpt>
      <trkpt lat="43.42147" lon="6.06214">
        <ele>266.77277</ele>
        <time>2014-05-31T11:52:35Z</time>
      </trkpt>
      <trkpt lat="43.42147" lon="6.06199">
        <ele>267.86453</ele>
        <time>2014-05-31T11:52:40Z</time>
      </trkpt>
      <trkpt lat="43.42141" lon="6.06179">
        <ele>267.78229</ele>
        <time>2014-05-31T11:52:45Z</time>
      </trkpt>
      <trkpt lat="43.42135" lon="6.06165">
        <ele>267.27637</ele>
        <time>2014-05-31T11:52:48Z</time>
      </trkpt>
      <trkpt lat="43.42131" lon="6.06152">
        <ele>266.91116</ele>
        <time>2014-05-31T11:52:50Z</time>
      </trkpt>
      <trkpt lat="43.42126" lon="6.06139">
        <ele>266.77026</ele>
        <time>2014-05-31T11:52:52Z</time>
      </trkpt>
      <trkpt lat="43.42123" lon="6.06125">
        <ele>266.55911</ele>
        <time>2014-05-31T11:52:54Z</time>
      </trkpt>
      <trkpt lat="43.4212" lon="6.06114">
        <ele>266.50244</ele>
        <time>2014-05-31T11:52:56Z</time>
      </trkpt>
      <trkpt lat="43.42119" lon="6.06109">
        <ele>266.48358</ele>
        <time>2014-05-31T11:52:57Z</time>
      </trkpt>
      <trkpt lat="43.42115" lon="6.06074">
        <ele>267.38953</ele>
        <time>2014-05-31T11:53:06Z</time>
      </trkpt>
      <trkpt lat="43.42114" lon="6.06067">
        <ele>267.66074</ele>
        <time>2014-05-31T11:53:08Z</time>
      </trkpt>
      <trkpt lat="43.42111" lon="6.06047">
        <ele>268.32471</ele>
        <time>2014-05-31T11:53:14Z</time>
      </trkpt>
      <trkpt lat="43.4211" lon="6.0604">
        <ele>268.11249</ele>
        <time>2014-05-31T11:53:16Z</time>
      </trkpt>
      <trkpt lat="43.42109" lon="6.06037">
        <ele>268.09933</ele>
        <time>2014-05-31T11:53:17Z</time>
      </trkpt>
      <trkpt lat="43.42108" lon="6.06034">
        <ele>267.85126</ele>
        <time>2014-05-31T11:53:18Z</time>
      </trkpt>
      <trkpt lat="43.42106" lon="6.06023">
        <ele>267.64484</ele>
        <time>2014-05-31T11:53:21Z</time>
      </trkpt>
      <trkpt lat="43.42093" lon="6.05971">
        <ele>268.4653</ele>
        <time>2014-05-31T11:53:33Z</time>
      </trkpt>
      <trkpt lat="43.42091" lon="6.0596">
        <ele>268.67078</ele>
        <time>2014-05-31T11:53:35Z</time>
      </trkpt>
      <trkpt lat="43.42087" lon="6.05944">
        <ele>268.83469</ele>
        <time>2014-05-31T11:53:38Z</time>
      </trkpt>
      <trkpt lat="43.42086" lon="6.05939">
        <ele>268.70422</ele>
        <time>2014-05-31T11:53:39Z</time>
      </trkpt>
      <trkpt lat="43.4208" lon="6.05916">
        <ele>268.34952</ele>
        <time>2014-05-31T11:53:43Z</time>
      </trkpt>
      <trkpt lat="43.42076" lon="6.05898">
        <ele>268.88168</ele>
        <time>2014-05-31T11:53:46Z</time>
      </trkpt>
      <trkpt lat="43.42075" lon="6.05893">
        <ele>269.10718</ele>
        <time>2014-05-31T11:53:47Z</time>
      </trkpt>
      <trkpt lat="43.42071" lon="6.05875">
        <ele>268.46603</ele>
        <time>2014-05-31T11:53:50Z</time>
      </trkpt>
      <trkpt lat="43.42067" lon="6.05857">
        <ele>267.58667</ele>
        <time>2014-05-31T11:53:53Z</time>
      </trkpt>
      <trkpt lat="43.42061" lon="6.05834">
        <ele>266.7627</ele>
        <time>2014-05-31T11:53:56Z</time>
      </trkpt>
      <trkpt lat="43.42057" lon="6.05814">
        <ele>264.77243</ele>
        <time>2014-05-31T11:53:58Z</time>
      </trkpt>
      <trkpt lat="43.42052" lon="6.05787">
        <ele>263.0882</ele>
        <time>2014-05-31T11:54:01Z</time>
      </trkpt>
      <trkpt lat="43.4205" lon="6.05778">
        <ele>262.62985</ele>
        <time>2014-05-31T11:54:02Z</time>
      </trkpt>
      <trkpt lat="43.42048" lon="6.05769">
        <ele>261.93576</ele>
        <time>2014-05-31T11:54:03Z</time>
      </trkpt>
      <trkpt lat="43.42047" lon="6.0576">
        <ele>261.28839</ele>
        <time>2014-05-31T11:54:04Z</time>
      </trkpt>
      <trkpt lat="43.42038" lon="6.05714">
        <ele>260</ele>
        <time>2014-05-31T11:54:09Z</time>
      </trkpt>
      <trkpt lat="43.42036" lon="6.05705">
        <ele>260</ele>
        <time>2014-05-31T11:54:10Z</time>
      </trkpt>
      <trkpt lat="43.42031" lon="6.05676">
        <ele>260</ele>
        <time>2014-05-31T11:54:13Z</time>
      </trkpt>
      <trkpt lat="43.42028" lon="6.0566">
        <ele>260</ele>
        <time>2014-05-31T11:54:15Z</time>
      </trkpt>
      <trkpt lat="43.42023" lon="6.05635">
        <ele>260</ele>
        <time>2014-05-31T11:54:19Z</time>
      </trkpt>
      <trkpt lat="43.42022" lon="6.05618">
        <ele>260</ele>
        <time>2014-05-31T11:54:22Z</time>
      </trkpt>
      <trkpt lat="43.4202" lon="6.05613">
        <ele>260</ele>
        <time>2014-05-31T11:54:23Z</time>
      </trkpt>
      <trkpt lat="43.42019" lon="6.05608">
        <ele>260</ele>
        <time>2014-05-31T11:54:24Z</time>
      </trkpt>
      <trkpt lat="43.42017" lon="6.05598">
        <ele>260</ele>
        <time>2014-05-31T11:54:26Z</time>
      </trkpt>
      <trkpt lat="43.42015" lon="6.05589">
        <ele>260</ele>
        <time>2014-05-31T11:54:28Z</time>
      </trkpt>
      <trkpt lat="43.42014" lon="6.05576">
        <ele>260.41196</ele>
        <time>2014-05-31T11:54:31Z</time>
      </trkpt>
      <trkpt lat="43.42012" lon="6.05558">
        <ele>261.12668</ele>
        <time>2014-05-31T11:54:35Z</time>
      </trkpt>
      <trkpt lat="43.42004" lon="6.0551">
        <ele>262.21747</ele>
        <time>2014-05-31T11:54:47Z</time>
      </trkpt>
      <trkpt lat="43.42003" lon="6.05504">
        <ele>262.42813</ele>
        <time>2014-05-31T11:54:49Z</time>
      </trkpt>
      <trkpt lat="43.42002" lon="6.05497">
        <ele>262.63254</ele>
        <time>2014-05-31T11:54:51Z</time>
      </trkpt>
      <trkpt lat="43.42002" lon="6.05494">
        <ele>262.66687</ele>
        <time>2014-05-31T11:54:52Z</time>
      </trkpt>
      <trkpt lat="43.41999" lon="6.05483">
        <ele>262.54504</ele>
        <time>2014-05-31T11:54:55Z</time>
      </trkpt>
      <trkpt lat="43.41995" lon="6.05467">
        <ele>262.50983</ele>
        <time>2014-05-31T11:54:59Z</time>
      </trkpt>
      <trkpt lat="43.41991" lon="6.05453">
        <ele>262.44803</ele>
        <time>2014-05-31T11:55:02Z</time>
      </trkpt>
      <trkpt lat="43.4199" lon="6.05443">
        <ele>262.52325</ele>
        <time>2014-05-31T11:55:04Z</time>
      </trkpt>
      <trkpt lat="43.41986" lon="6.05432">
        <ele>261.81226</ele>
        <time>2014-05-31T11:55:06Z</time>
      </trkpt>
      <trkpt lat="43.41978" lon="6.05404">
        <ele>260.6731</ele>
        <time>2014-05-31T11:55:10Z</time>
      </trkpt>
      <trkpt lat="43.41975" lon="6.05388">
        <ele>260.26111</ele>
        <time>2014-05-31T11:55:12Z</time>
      </trkpt>
      <trkpt lat="43.4197" lon="6.0537">
        <ele>259.9144</ele>
        <time>2014-05-31T11:55:14Z</time>
      </trkpt>
      <trkpt lat="43.41966" lon="6.05351">
        <ele>259.77118</ele>
        <time>2014-05-31T11:55:16Z</time>
      </trkpt>
      <trkpt lat="43.41964" lon="6.05342">
        <ele>259.68878</ele>
        <time>2014-05-31T11:55:17Z</time>
      </trkpt>
      <trkpt lat="43.41962" lon="6.05332">
        <ele>259.63385</ele>
        <time>2014-05-31T11:55:18Z</time>
      </trkpt>
      <trkpt lat="43.41961" lon="6.05323">
        <ele>259.59265</ele>
        <time>2014-05-31T11:55:19Z</time>
      </trkpt>
      <trkpt lat="43.41959" lon="6.05312">
        <ele>259.53772</ele>
        <time>2014-05-31T11:55:20Z</time>
      </trkpt>
      <trkpt lat="43.41956" lon="6.05292">
        <ele>259.68918</ele>
        <time>2014-05-31T11:55:22Z</time>
      </trkpt>
      <trkpt lat="43.41952" lon="6.05281">
        <ele>259.91312</ele>
        <time>2014-05-31T11:55:23Z</time>
      </trkpt>
      <trkpt lat="43.4195" lon="6.0527">
        <ele>260</ele>
        <time>2014-05-31T11:55:24Z</time>
      </trkpt>
      <trkpt lat="43.41948" lon="6.05259">
        <ele>260</ele>
        <time>2014-05-31T11:55:25Z</time>
      </trkpt>
      <trkpt lat="43.41944" lon="6.05238">
        <ele>259.9884</ele>
        <time>2014-05-31T11:55:27Z</time>
      </trkpt>
      <trkpt lat="43.41942" lon="6.05228">
        <ele>259.90601</ele>
        <time>2014-05-31T11:55:28Z</time>
      </trkpt>
      <trkpt lat="43.41941" lon="6.05218">
        <ele>259.88312</ele>
        <time>2014-05-31T11:55:29Z</time>
      </trkpt>
      <trkpt lat="43.4194" lon="6.052">
        <ele>259.96967</ele>
        <time>2014-05-31T11:55:31Z</time>
      </trkpt>
      <trkpt lat="43.4194" lon="6.05191">
        <ele>260</ele>
        <time>2014-05-31T11:55:32Z</time>
      </trkpt>
      <trkpt lat="43.41938" lon="6.05183">
        <ele>260</ele>
        <time>2014-05-31T11:55:33Z</time>
      </trkpt>
      <trkpt lat="43.41937" lon="6.05168">
        <ele>260</ele>
        <time>2014-05-31T11:55:35Z</time>
      </trkpt>
      <trkpt lat="43.41938" lon="6.05162">
        <ele>260</ele>
        <time>2014-05-31T11:55:36Z</time>
      </trkpt>
      <trkpt lat="43.41941" lon="6.05158">
        <ele>260</ele>
        <time>2014-05-31T11:55:37Z</time>
      </trkpt>
      <trkpt lat="43.41946" lon="6.05155">
        <ele>260</ele>
        <time>2014-05-31T11:55:38Z</time>
      </trkpt>
      <trkpt lat="43.41955" lon="6.0515">
        <ele>260</ele>
        <time>2014-05-31T11:55:40Z</time>
      </trkpt>
      <trkpt lat="43.41966" lon="6.05142">
        <ele>260</ele>
        <time>2014-05-31T11:55:43Z</time>
      </trkpt>
      <trkpt lat="43.4197" lon="6.0514">
        <ele>260</ele>
        <time>2014-05-31T11:55:44Z</time>
      </trkpt>
      <trkpt lat="43.4198" lon="6.05137">
        <ele>260.20245</ele>
        <time>2014-05-31T11:55:47Z</time>
      </trkpt>
      <trkpt lat="43.41994" lon="6.05134">
        <ele>260.54749</ele>
        <time>2014-05-31T11:55:51Z</time>
      </trkpt>
      <trkpt lat="43.42002" lon="6.05133">
        <ele>260.65564</ele>
        <time>2014-05-31T11:55:54Z</time>
      </trkpt>
      <trkpt lat="43.42006" lon="6.05132">
        <ele>260.69684</ele>
        <time>2014-05-31T11:55:55Z</time>
      </trkpt>
      <trkpt lat="43.42039" lon="6.05122">
        <ele>261.86069</ele>
        <time>2014-05-31T11:56:05Z</time>
      </trkpt>
      <trkpt lat="43.42051" lon="6.05119">
        <ele>262.20059</ele>
        <time>2014-05-31T11:56:09Z</time>
      </trkpt>
      <trkpt lat="43.42068" lon="6.05114">
        <ele>263.09515</ele>
        <time>2014-05-31T11:56:15Z</time>
      </trkpt>
      <trkpt lat="43.42107" lon="6.0512">
        <ele>265.54541</ele>
        <time>2014-05-31T11:56:29Z</time>
      </trkpt>
      <trkpt lat="43.42119" lon="6.05121">
        <ele>267.08115</ele>
        <time>2014-05-31T11:56:33Z</time>
      </trkpt>
      <trkpt lat="43.4213" lon="6.05131">
        <ele>267.51715</ele>
        <time>2014-05-31T11:56:38Z</time>
      </trkpt>
      <trkpt lat="43.42148" lon="6.05153">
        <ele>267.52362</ele>
        <time>2014-05-31T11:56:47Z</time>
      </trkpt>
      <trkpt lat="43.42161" lon="6.05163">
        <ele>268.57419</ele>
        <time>2014-05-31T11:56:52Z</time>
      </trkpt>
      <trkpt lat="43.42174" lon="6.0517">
        <ele>270.7283</ele>
        <time>2014-05-31T11:56:57Z</time>
      </trkpt>
      <trkpt lat="43.42191" lon="6.05181">
        <ele>274.43698</ele>
        <time>2014-05-31T11:57:04Z</time>
      </trkpt>
      <trkpt lat="43.422" lon="6.05185">
        <ele>275.60956</ele>
        <time>2014-05-31T11:57:08Z</time>
      </trkpt>
      <trkpt lat="43.42211" lon="6.05189">
        <ele>276.80432</ele>
        <time>2014-05-31T11:57:13Z</time>
      </trkpt>
      <trkpt lat="43.42216" lon="6.05191">
        <ele>277.3811</ele>
        <time>2014-05-31T11:57:15Z</time>
      </trkpt>
      <trkpt lat="43.4222" lon="6.05194">
        <ele>277.75189</ele>
        <time>2014-05-31T11:57:17Z</time>
      </trkpt>
      <trkpt lat="43.42229" lon="6.05206">
        <ele>278.67194</ele>
        <time>2014-05-31T11:57:23Z</time>
      </trkpt>
      <trkpt lat="43.42241" lon="6.05215">
        <ele>279.42038</ele>
        <time>2014-05-31T11:57:29Z</time>
      </trkpt>
      <trkpt lat="43.42258" lon="6.05215">
        <ele>279.74603</ele>
        <time>2014-05-31T11:57:36Z</time>
      </trkpt>
      <trkpt lat="43.42271" lon="6.05215">
        <ele>279.72717</ele>
        <time>2014-05-31T11:57:41Z</time>
      </trkpt>
      <trkpt lat="43.42285" lon="6.05218">
        <ele>279.89798</ele>
        <time>2014-05-31T11:57:47Z</time>
      </trkpt>
      <trkpt lat="43.42292" lon="6.05222">
        <ele>279.99112</ele>
        <time>2014-05-31T11:57:50Z</time>
      </trkpt>
      <trkpt lat="43.42312" lon="6.05231">
        <ele>280</ele>
        <time>2014-05-31T11:58:01Z</time>
      </trkpt>
      <trkpt lat="43.4232" lon="6.05232">
        <ele>280</ele>
        <time>2014-05-31T11:58:05Z</time>
      </trkpt>
      <trkpt lat="43.42326" lon="6.05232">
        <ele>280</ele>
        <time>2014-05-31T11:58:08Z</time>
      </trkpt>
      <trkpt lat="43.42329" lon="6.05234">
        <ele>280</ele>
        <time>2014-05-31T11:58:11Z</time>
      </trkpt>
      <trkpt lat="43.42336" lon="6.05235">
        <ele>280</ele>
        <time>2014-05-31T11:58:15Z</time>
      </trkpt>
      <trkpt lat="43.42347" lon="6.05236">
        <ele>280</ele>
        <time>2014-05-31T11:58:21Z</time>
      </trkpt>
      <trkpt lat="43.42353" lon="6.05236">
        <ele>280</ele>
        <time>2014-05-31T11:58:24Z</time>
      </trkpt>
      <trkpt lat="43.42361" lon="6.05233">
        <ele>280</ele>
        <time>2014-05-31T11:58:29Z</time>
      </trkpt>
      <trkpt lat="43.42366" lon="6.05231">
        <ele>280</ele>
        <time>2014-05-31T11:58:32Z</time>
      </trkpt>
      <trkpt lat="43.42378" lon="6.05232">
        <ele>280</ele>
        <time>2014-05-31T11:58:39Z</time>
      </trkpt>
      <trkpt lat="43.42387" lon="6.05231">
        <ele>280</ele>
        <time>2014-05-31T11:58:43Z</time>
      </trkpt>
      <trkpt lat="43.42392" lon="6.0523">
        <ele>280.35211</ele>
        <time>2014-05-31T11:58:45Z</time>
      </trkpt>
      <trkpt lat="43.42405" lon="6.05227">
        <ele>282.43723</ele>
        <time>2014-05-31T11:58:51Z</time>
      </trkpt>
      <trkpt lat="43.42433" lon="6.05225">
        <ele>286.62814</ele>
        <time>2014-05-31T11:59:03Z</time>
      </trkpt>
      <trkpt lat="43.42448" lon="6.05221">
        <ele>290.19028</ele>
        <time>2014-05-31T11:59:09Z</time>
      </trkpt>
      <trkpt lat="43.42453" lon="6.05218">
        <ele>292.42828</ele>
        <time>2014-05-31T11:59:11Z</time>
      </trkpt>
      <trkpt lat="43.42461" lon="6.05217">
        <ele>294.83759</ele>
        <time>2014-05-31T11:59:16Z</time>
      </trkpt>
      <trkpt lat="43.42463" lon="6.05216">
        <ele>295.52979</ele>
        <time>2014-05-31T11:59:17Z</time>
      </trkpt>
      <trkpt lat="43.42465" lon="6.05217">
        <ele>295.72116</ele>
        <time>2014-05-31T11:59:19Z</time>
      </trkpt>
      <trkpt lat="43.42469" lon="6.05218">
        <ele>296.43002</ele>
        <time>2014-05-31T11:59:22Z</time>
      </trkpt>
      <trkpt lat="43.42487" lon="6.05224">
        <ele>297.67184</ele>
        <time>2014-05-31T11:59:30Z</time>
      </trkpt>
      <trkpt lat="43.42492" lon="6.05228">
        <ele>297.48029</ele>
        <time>2014-05-31T11:59:32Z</time>
      </trkpt>
      <trkpt lat="43.42496" lon="6.05231">
        <ele>297.72678</ele>
        <time>2014-05-31T11:59:34Z</time>
      </trkpt>
      <trkpt lat="43.42503" lon="6.05232">
        <ele>298.33044</ele>
        <time>2014-05-31T11:59:36Z</time>
      </trkpt>
      <trkpt lat="43.42513" lon="6.05231">
        <ele>298.9097</ele>
        <time>2014-05-31T11:59:41Z</time>
      </trkpt>
      <trkpt lat="43.42525" lon="6.05228">
        <ele>299.5174</ele>
        <time>2014-05-31T11:59:46Z</time>
      </trkpt>
      <trkpt lat="43.42528" lon="6.05228">
        <ele>299.61169</ele>
        <time>2014-05-31T11:59:47Z</time>
      </trkpt>
      <trkpt lat="43.42535" lon="6.0523">
        <ele>299.57843</ele>
        <time>2014-05-31T11:59:52Z</time>
      </trkpt>
      <trkpt lat="43.42544" lon="6.05226">
        <ele>299.87198</ele>
        <time>2014-05-31T11:59:56Z</time>
      </trkpt>
      <trkpt lat="43.42554" lon="6.05223">
        <ele>299.99747</ele>
        <time>2014-05-31T12:00:01Z</time>
      </trkpt>
      <trkpt lat="43.42559" lon="6.05222">
        <ele>300.02936</ele>
        <time>2014-05-31T12:00:04Z</time>
      </trkpt>
      <trkpt lat="43.42565" lon="6.05224">
        <ele>300</ele>
        <time>2014-05-31T12:00:07Z</time>
      </trkpt>
      <trkpt lat="43.42575" lon="6.05228">
        <ele>300</ele>
        <time>2014-05-31T12:00:11Z</time>
      </trkpt>
      <trkpt lat="43.42582" lon="6.05241">
        <ele>300</ele>
        <time>2014-05-31T12:00:16Z</time>
      </trkpt>
      <trkpt lat="43.42594" lon="6.05253">
        <ele>300</ele>
        <time>2014-05-31T12:00:22Z</time>
      </trkpt>
      <trkpt lat="43.426" lon="6.05261">
        <ele>300</ele>
        <time>2014-05-31T12:00:27Z</time>
      </trkpt>
      <trkpt lat="43.42608" lon="6.05268">
        <ele>300</ele>
        <time>2014-05-31T12:00:32Z</time>
      </trkpt>
      <trkpt lat="43.42612" lon="6.05268">
        <ele>300</ele>
        <time>2014-05-31T12:00:34Z</time>
      </trkpt>
      <trkpt lat="43.42614" lon="6.05271">
        <ele>300</ele>
        <time>2014-05-31T12:00:36Z</time>
      </trkpt>
      <trkpt lat="43.42615" lon="6.05272">
        <ele>300</ele>
        <time>2014-05-31T12:00:37Z</time>
      </trkpt>
      <trkpt lat="43.42619" lon="6.05279">
        <ele>299.97168</ele>
        <time>2014-05-31T12:00:41Z</time>
      </trkpt>
      <trkpt lat="43.42622" lon="6.05283">
        <ele>299.89145</ele>
        <time>2014-05-31T12:00:44Z</time>
      </trkpt>
      <trkpt lat="43.42636" lon="6.05287">
        <ele>299.96152</ele>
        <time>2014-05-31T12:00:51Z</time>
      </trkpt>
      <trkpt lat="43.42643" lon="6.05291">
        <ele>300</ele>
        <time>2014-05-31T12:00:55Z</time>
      </trkpt>
      <trkpt lat="43.42648" lon="6.05296">
        <ele>300</ele>
        <time>2014-05-31T12:00:58Z</time>
      </trkpt>
      <trkpt lat="43.42661" lon="6.0532">
        <ele>300</ele>
        <time>2014-05-31T12:01:10Z</time>
      </trkpt>
      <trkpt lat="43.42662" lon="6.05322">
        <ele>300</ele>
        <time>2014-05-31T12:01:11Z</time>
      </trkpt>
      <trkpt lat="43.4267" lon="6.05331">
        <ele>300</ele>
        <time>2014-05-31T12:01:17Z</time>
      </trkpt>
      <trkpt lat="43.42675" lon="6.0533">
        <ele>300</ele>
        <time>2014-05-31T12:01:19Z</time>
      </trkpt>
      <trkpt lat="43.42676" lon="6.05329">
        <ele>300</ele>
        <time>2014-05-31T12:01:20Z</time>
      </trkpt>
      <trkpt lat="43.42676" lon="6.05329">
        <ele>300</ele>
        <time>2014-05-31T12:01:22Z</time>
      </trkpt>
      <trkpt lat="43.42677" lon="6.05331">
        <ele>300</ele>
        <time>2014-05-31T12:01:27Z</time>
      </trkpt>
      <trkpt lat="43.42678" lon="6.05332">
        <ele>300</ele>
        <time>2014-05-31T12:01:28Z</time>
      </trkpt>
      <trkpt lat="43.42682" lon="6.05337">
        <ele>300</ele>
        <time>2014-05-31T12:01:32Z</time>
      </trkpt>
      <trkpt lat="43.42684" lon="6.05342">
        <ele>300</ele>
        <time>2014-05-31T12:01:35Z</time>
      </trkpt>
      <trkpt lat="43.42686" lon="6.05345">
        <ele>300</ele>
        <time>2014-05-31T12:01:38Z</time>
      </trkpt>
      <trkpt lat="43.42696" lon="6.05347">
        <ele>300</ele>
        <time>2014-05-31T12:01:43Z</time>
      </trkpt>
      <trkpt lat="43.42704" lon="6.05346">
        <ele>300</ele>
        <time>2014-05-31T12:01:48Z</time>
      </trkpt>
      <trkpt lat="43.42714" lon="6.05347">
        <ele>300</ele>
        <time>2014-05-31T12:01:53Z</time>
      </trkpt>
      <trkpt lat="43.42718" lon="6.05353">
        <ele>300</ele>
        <time>2014-05-31T12:01:57Z</time>
      </trkpt>
      <trkpt lat="43.42718" lon="6.05363">
        <ele>300</ele>
        <time>2014-05-31T12:02:02Z</time>
      </trkpt>
      <trkpt lat="43.42717" lon="6.05367">
        <ele>300</ele>
        <time>2014-05-31T12:02:04Z</time>
      </trkpt>
      <trkpt lat="43.42715" lon="6.05381">
        <ele>300</ele>
        <time>2014-05-31T12:02:11Z</time>
      </trkpt>
      <trkpt lat="43.42716" lon="6.05386">
        <ele>300</ele>
        <time>2014-05-31T12:02:13Z</time>
      </trkpt>
      <trkpt lat="43.42716" lon="6.05389">
        <ele>300</ele>
        <time>2014-05-31T12:02:14Z</time>
      </trkpt>
      <trkpt lat="43.42718" lon="6.05399">
        <ele>300</ele>
        <time>2014-05-31T12:02:18Z</time>
      </trkpt>
      <trkpt lat="43.42723" lon="6.05413">
        <ele>300</ele>
        <time>2014-05-31T12:02:26Z</time>
      </trkpt>
      <trkpt lat="43.42724" lon="6.05417">
        <ele>300.0036</ele>
        <time>2014-05-31T12:02:28Z</time>
      </trkpt>
      <trkpt lat="43.4273" lon="6.05438">
        <ele>300.548</ele>
        <time>2014-05-31T12:02:37Z</time>
      </trkpt>
      <trkpt lat="43.4273" lon="6.05452">
        <ele>301.31482</ele>
        <time>2014-05-31T12:02:44Z</time>
      </trkpt>
      <trkpt lat="43.42726" lon="6.05461">
        <ele>302.0907</ele>
        <time>2014-05-31T12:02:48Z</time>
      </trkpt>
      <trkpt lat="43.42724" lon="6.05468">
        <ele>302.65033</ele>
        <time>2014-05-31T12:02:51Z</time>
      </trkpt>
      <trkpt lat="43.42724" lon="6.05471">
        <ele>302.83572</ele>
        <time>2014-05-31T12:02:52Z</time>
      </trkpt>
      <trkpt lat="43.42723" lon="6.05479">
        <ele>303.20129</ele>
        <time>2014-05-31T12:02:55Z</time>
      </trkpt>
      <trkpt lat="43.42724" lon="6.05493">
        <ele>303.72876</ele>
        <time>2014-05-31T12:03:00Z</time>
      </trkpt>
      <trkpt lat="43.42727" lon="6.05509">
        <ele>304.69537</ele>
        <time>2014-05-31T12:03:07Z</time>
      </trkpt>
      <trkpt lat="43.4273" lon="6.05538">
        <ele>307.24115</ele>
        <time>2014-05-31T12:03:19Z</time>
      </trkpt>
      <trkpt lat="43.42734" lon="6.05553">
        <ele>308.75845</ele>
        <time>2014-05-31T12:03:26Z</time>
      </trkpt>
      <trkpt lat="43.42739" lon="6.05569">
        <ele>309.7865</ele>
        <time>2014-05-31T12:03:34Z</time>
      </trkpt>
      <trkpt lat="43.42742" lon="6.05573">
        <ele>310.05426</ele>
        <time>2014-05-31T12:03:36Z</time>
      </trkpt>
      <trkpt lat="43.42749" lon="6.0558">
        <ele>310.69843</ele>
        <time>2014-05-31T12:03:41Z</time>
      </trkpt>
      <trkpt lat="43.42755" lon="6.05588">
        <ele>311.99338</ele>
        <time>2014-05-31T12:03:47Z</time>
      </trkpt>
      <trkpt lat="43.42755" lon="6.0559">
        <ele>312.22073</ele>
        <time>2014-05-31T12:03:48Z</time>
      </trkpt>
      <trkpt lat="43.42756" lon="6.05594">
        <ele>312.7417</ele>
        <time>2014-05-31T12:03:50Z</time>
      </trkpt>
      <trkpt lat="43.42756" lon="6.05599">
        <ele>313.18201</ele>
        <time>2014-05-31T12:03:52Z</time>
      </trkpt>
      <trkpt lat="43.42752" lon="6.0561">
        <ele>314.05637</ele>
        <time>2014-05-31T12:03:59Z</time>
      </trkpt>
      <trkpt lat="43.42749" lon="6.05619">
        <ele>314.55698</ele>
        <time>2014-05-31T12:04:03Z</time>
      </trkpt>
      <trkpt lat="43.42749" lon="6.05621">
        <ele>314.65656</ele>
        <time>2014-05-31T12:04:04Z</time>
      </trkpt>
      <trkpt lat="43.42742" lon="6.05635">
        <ele>315.43933</ele>
        <time>2014-05-31T12:04:11Z</time>
      </trkpt>
      <trkpt lat="43.42736" lon="6.05639">
        <ele>315.4892</ele>
        <time>2014-05-31T12:04:15Z</time>
      </trkpt>
      <trkpt lat="43.42731" lon="6.05645">
        <ele>315.64865</ele>
        <time>2014-05-31T12:04:18Z</time>
      </trkpt>
      <trkpt lat="43.42726" lon="6.05655">
        <ele>316.22644</ele>
        <time>2014-05-31T12:04:23Z</time>
      </trkpt>
      <trkpt lat="43.4272" lon="6.0567">
        <ele>317.35217</ele>
        <time>2014-05-31T12:04:30Z</time>
      </trkpt>
      <trkpt lat="43.42717" lon="6.05675">
        <ele>317.91867</ele>
        <time>2014-05-31T12:04:33Z</time>
      </trkpt>
      <trkpt lat="43.42713" lon="6.05677">
        <ele>318.06799</ele>
        <time>2014-05-31T12:04:36Z</time>
      </trkpt>
      <trkpt lat="43.42712" lon="6.05678">
        <ele>318.1813</ele>
        <time>2014-05-31T12:04:37Z</time>
      </trkpt>
      <trkpt lat="43.42708" lon="6.05683">
        <ele>318.73749</ele>
        <time>2014-05-31T12:04:41Z</time>
      </trkpt>
      <trkpt lat="43.42705" lon="6.05697">
        <ele>320.03946</ele>
        <time>2014-05-31T12:04:49Z</time>
      </trkpt>
      <trkpt lat="43.42702" lon="6.05707">
        <ele>320.13159</ele>
        <time>2014-05-31T12:04:54Z</time>
      </trkpt>
      <trkpt lat="43.42697" lon="6.05729">
        <ele>320.77637</ele>
        <time>2014-05-31T12:05:05Z</time>
      </trkpt>
      <trkpt lat="43.42699" lon="6.05736">
        <ele>321.55386</ele>
        <time>2014-05-31T12:05:09Z</time>
      </trkpt>
      <trkpt lat="43.42702" lon="6.05738">
        <ele>321.77829</ele>
        <time>2014-05-31T12:05:12Z</time>
      </trkpt>
      <trkpt lat="43.42708" lon="6.05738">
        <ele>321.91391</ele>
        <time>2014-05-31T12:05:15Z</time>
      </trkpt>
      <trkpt lat="43.42721" lon="6.0574">
        <ele>322.23502</ele>
        <time>2014-05-31T12:05:21Z</time>
      </trkpt>
      <trkpt lat="43.42746" lon="6.05742">
        <ele>322.45673</ele>
        <time>2014-05-31T12:05:35Z</time>
      </trkpt>
      <trkpt lat="43.42749" lon="6.05743">
        <ele>322.49106</ele>
        <time>2014-05-31T12:05:37Z</time>
      </trkpt>
      <trkpt lat="43.42752" lon="6.05741">
        <ele>322.3801</ele>
        <time>2014-05-31T12:05:39Z</time>
      </trkpt>
      <trkpt lat="43.42759" lon="6.05733">
        <ele>321.99933</ele>
        <time>2014-05-31T12:05:43Z</time>
      </trkpt>
      <trkpt lat="43.42766" lon="6.05731">
        <ele>322.04333</ele>
        <time>2014-05-31T12:05:46Z</time>
      </trkpt>
      <trkpt lat="43.42779" lon="6.05737">
        <ele>322.56525</ele>
        <time>2014-05-31T12:05:52Z</time>
      </trkpt>
      <trkpt lat="43.42782" lon="6.05737">
        <ele>322.70428</ele>
        <time>2014-05-31T12:05:54Z</time>
      </trkpt>
      <trkpt lat="43.42788" lon="6.05739">
        <ele>322.94461</ele>
        <time>2014-05-31T12:05:56Z</time>
      </trkpt>
      <trkpt lat="43.4279" lon="6.0574">
        <ele>323.07852</ele>
        <time>2014-05-31T12:05:58Z</time>
      </trkpt>
      <trkpt lat="43.42792" lon="6.05743">
        <ele>323.25876</ele>
        <time>2014-05-31T12:06:00Z</time>
      </trkpt>
      <trkpt lat="43.42798" lon="6.05747">
        <ele>323.59692</ele>
        <time>2014-05-31T12:06:04Z</time>
      </trkpt>
      <trkpt lat="43.42802" lon="6.05746">
        <ele>323.75314</ele>
        <time>2014-05-31T12:06:06Z</time>
      </trkpt>
      <trkpt lat="43.42807" lon="6.05744">
        <ele>323.7326</ele>
        <time>2014-05-31T12:06:08Z</time>
      </trkpt>
      <trkpt lat="43.42811" lon="6.05739">
        <ele>323.47223</ele>
        <time>2014-05-31T12:06:10Z</time>
      </trkpt>
      <trkpt lat="43.42817" lon="6.05739">
        <ele>323.34201</ele>
        <time>2014-05-31T12:06:12Z</time>
      </trkpt>
      <trkpt lat="43.4282" lon="6.05739">
        <ele>323.29492</ele>
        <time>2014-05-31T12:06:13Z</time>
      </trkpt>
      <trkpt lat="43.42822" lon="6.05738">
        <ele>323.2225</ele>
        <time>2014-05-31T12:06:14Z</time>
      </trkpt>
      <trkpt lat="43.42828" lon="6.05734">
        <ele>323.07465</ele>
        <time>2014-05-31T12:06:18Z</time>
      </trkpt>
      <trkpt lat="43.42832" lon="6.05731">
        <ele>323.01324</ele>
        <time>2014-05-31T12:06:20Z</time>
      </trkpt>
      <trkpt lat="43.42835" lon="6.05729">
        <ele>322.84644</ele>
        <time>2014-05-31T12:06:23Z</time>
      </trkpt>
      <trkpt lat="43.42836" lon="6.05729">
        <ele>322.81662</ele>
        <time>2014-05-31T12:06:26Z</time>
      </trkpt>
      <trkpt lat="43.42836" lon="6.05729">
        <ele>322.81662</ele>
        <time>2014-05-31T12:06:40Z</time>
      </trkpt>
      <trkpt lat="43.42835" lon="6.05729">
        <ele>322.84747</ele>
        <time>2014-05-31T12:07:18Z</time>
      </trkpt>
      <trkpt lat="43.42835" lon="6.05729">
        <ele>322.84747</ele>
        <time>2014-05-31T12:07:32Z</time>
      </trkpt>
      <trkpt lat="43.42838" lon="6.05724">
        <ele>322.68884</ele>
        <time>2014-05-31T12:07:40Z</time>
      </trkpt>
      <trkpt lat="43.4284" lon="6.05709">
        <ele>322.17453</ele>
        <time>2014-05-31T12:07:45Z</time>
      </trkpt>
      <trkpt lat="43.42844" lon="6.05686">
        <ele>321.62939</ele>
        <time>2014-05-31T12:07:51Z</time>
      </trkpt>
      <trkpt lat="43.42846" lon="6.05666">
        <ele>321.56345</ele>
        <time>2014-05-31T12:07:57Z</time>
      </trkpt>
      <trkpt lat="43.42851" lon="6.05608">
        <ele>322.12451</ele>
        <time>2014-05-31T12:08:11Z</time>
      </trkpt>
      <trkpt lat="43.42854" lon="6.05578">
        <ele>322.95334</ele>
        <time>2014-05-31T12:08:18Z</time>
      </trkpt>
      <trkpt lat="43.42859" lon="6.05544">
        <ele>322.90619</ele>
        <time>2014-05-31T12:08:25Z</time>
      </trkpt>
      <trkpt lat="43.42861" lon="6.05541">
        <ele>322.98859</ele>
        <time>2014-05-31T12:08:26Z</time>
      </trkpt>
      <trkpt lat="43.42866" lon="6.05541">
        <ele>323</ele>
        <time>2014-05-31T12:08:28Z</time>
      </trkpt>
      <trkpt lat="43.42875" lon="6.05544">
        <ele>323</ele>
        <time>2014-05-31T12:08:31Z</time>
      </trkpt>
      <trkpt lat="43.42885" lon="6.0555">
        <ele>323</ele>
        <time>2014-05-31T12:08:34Z</time>
      </trkpt>
      <trkpt lat="43.42896" lon="6.05556">
        <ele>322.21884</ele>
        <time>2014-05-31T12:08:38Z</time>
      </trkpt>
      <trkpt lat="43.42899" lon="6.05557">
        <ele>321.84042</ele>
        <time>2014-05-31T12:08:39Z</time>
      </trkpt>
      <trkpt lat="43.42906" lon="6.05556">
        <ele>321.17325</ele>
        <time>2014-05-31T12:08:41Z</time>
      </trkpt>
      <trkpt lat="43.4291" lon="6.05554">
        <ele>320.8075</ele>
        <time>2014-05-31T12:08:42Z</time>
      </trkpt>
      <trkpt lat="43.42912" lon="6.0555">
        <ele>320.63647</ele>
        <time>2014-05-31T12:08:43Z</time>
      </trkpt>
      <trkpt lat="43.42926" lon="6.0554">
        <ele>320.72559</ele>
        <time>2014-05-31T12:08:47Z</time>
      </trkpt>
      <trkpt lat="43.42932" lon="6.05533">
        <ele>321.25397</ele>
        <time>2014-05-31T12:08:49Z</time>
      </trkpt>
      <trkpt lat="43.42935" lon="6.05531">
        <ele>321.49457</ele>
        <time>2014-05-31T12:08:50Z</time>
      </trkpt>
      <trkpt lat="43.42939" lon="6.05529">
        <ele>321.69455</ele>
        <time>2014-05-31T12:08:51Z</time>
      </trkpt>
      <trkpt lat="43.42941" lon="6.05528">
        <ele>321.88986</ele>
        <time>2014-05-31T12:08:52Z</time>
      </trkpt>
      <trkpt lat="43.42953" lon="6.05522">
        <ele>322.79825</ele>
        <time>2014-05-31T12:08:57Z</time>
      </trkpt>
      <trkpt lat="43.42962" lon="6.05519">
        <ele>323.40179</ele>
        <time>2014-05-31T12:09:01Z</time>
      </trkpt>
      <trkpt lat="43.42965" lon="6.05517">
        <ele>323.58157</ele>
        <time>2014-05-31T12:09:03Z</time>
      </trkpt>
      <trkpt lat="43.4297" lon="6.05515">
        <ele>323.89316</ele>
        <time>2014-05-31T12:09:06Z</time>
      </trkpt>
      <trkpt lat="43.42976" lon="6.05511">
        <ele>323.72815</ele>
        <time>2014-05-31T12:09:10Z</time>
      </trkpt>
      <trkpt lat="43.42978" lon="6.05509">
        <ele>323.59082</ele>
        <time>2014-05-31T12:09:12Z</time>
      </trkpt>
      <trkpt lat="43.42979" lon="6.05507">
        <ele>323.48096</ele>
        <time>2014-05-31T12:09:13Z</time>
      </trkpt>
      <trkpt lat="43.42983" lon="6.05505">
        <ele>323.2063</ele>
        <time>2014-05-31T12:09:16Z</time>
      </trkpt>
      <trkpt lat="43.42986" lon="6.05504">
        <ele>322.98657</ele>
        <time>2014-05-31T12:09:18Z</time>
      </trkpt>
      <trkpt lat="43.42988" lon="6.05504">
        <ele>322.84924</ele>
        <time>2014-05-31T12:09:20Z</time>
      </trkpt>
      <trkpt lat="43.42989" lon="6.05504">
        <ele>322.79431</ele>
        <time>2014-05-31T12:09:21Z</time>
      </trkpt>
      <trkpt lat="43.42993" lon="6.05506">
        <ele>322.51965</ele>
        <time>2014-05-31T12:09:25Z</time>
      </trkpt>
      <trkpt lat="43.43001" lon="6.05507">
        <ele>321.9577</ele>
        <time>2014-05-31T12:09:32Z</time>
      </trkpt>
      <trkpt lat="43.43002" lon="6.05507">
        <ele>321.9165</ele>
        <time>2014-05-31T12:09:33Z</time>
      </trkpt>
      <trkpt lat="43.43004" lon="6.05509">
        <ele>321.84784</ele>
        <time>2014-05-31T12:09:35Z</time>
      </trkpt>
      <trkpt lat="43.43006" lon="6.05511">
        <ele>321.77917</ele>
        <time>2014-05-31T12:09:36Z</time>
      </trkpt>
      <trkpt lat="43.4301" lon="6.05517">
        <ele>321.65558</ele>
        <time>2014-05-31T12:09:39Z</time>
      </trkpt>
      <trkpt lat="43.43011" lon="6.05521">
        <ele>321.61438</ele>
        <time>2014-05-31T12:09:41Z</time>
      </trkpt>
      <trkpt lat="43.43014" lon="6.05532">
        <ele>321.49078</ele>
        <time>2014-05-31T12:09:44Z</time>
      </trkpt>
      <trkpt lat="43.4302" lon="6.05552">
        <ele>321.28479</ele>
        <time>2014-05-31T12:09:48Z</time>
      </trkpt>
      <trkpt lat="43.43021" lon="6.05556">
        <ele>321.23062</ele>
        <time>2014-05-31T12:09:49Z</time>
      </trkpt>
      <trkpt lat="43.43022" lon="6.05566">
        <ele>320.85297</ele>
        <time>2014-05-31T12:09:51Z</time>
      </trkpt>
      <trkpt lat="43.43029" lon="6.05594">
        <ele>320</ele>
        <time>2014-05-31T12:09:58Z</time>
      </trkpt>
      <trkpt lat="43.43032" lon="6.0561">
        <ele>320</ele>
        <time>2014-05-31T12:10:02Z</time>
      </trkpt>
      <trkpt lat="43.4303" lon="6.05629">
        <ele>320</ele>
        <time>2014-05-31T12:10:06Z</time>
      </trkpt>
      <trkpt lat="43.43025" lon="6.05649">
        <ele>320.09253</ele>
        <time>2014-05-31T12:10:09Z</time>
      </trkpt>
      <trkpt lat="43.43025" lon="6.05666">
        <ele>320.10626</ele>
        <time>2014-05-31T12:10:12Z</time>
      </trkpt>
      <trkpt lat="43.43026" lon="6.05677">
        <ele>320.05133</ele>
        <time>2014-05-31T12:10:14Z</time>
      </trkpt>
      <trkpt lat="43.43027" lon="6.05693">
        <ele>320.01013</ele>
        <time>2014-05-31T12:10:17Z</time>
      </trkpt>
      <trkpt lat="43.43023" lon="6.05702">
        <ele>320.11945</ele>
        <time>2014-05-31T12:10:19Z</time>
      </trkpt>
      <trkpt lat="43.43023" lon="6.05707">
        <ele>320.10516</ele>
        <time>2014-05-31T12:10:20Z</time>
      </trkpt>
      <trkpt lat="43.43022" lon="6.05724">
        <ele>320</ele>
        <time>2014-05-31T12:10:23Z</time>
      </trkpt>
      <trkpt lat="43.43017" lon="6.05735">
        <ele>320</ele>
        <time>2014-05-31T12:10:25Z</time>
      </trkpt>
      <trkpt lat="43.43013" lon="6.05738">
        <ele>320</ele>
        <time>2014-05-31T12:10:26Z</time>
      </trkpt>
      <trkpt lat="43.4301" lon="6.05742">
        <ele>320</ele>
        <time>2014-05-31T12:10:27Z</time>
      </trkpt>
      <trkpt lat="43.43007" lon="6.05745">
        <ele>320</ele>
        <time>2014-05-31T12:10:28Z</time>
      </trkpt>
      <trkpt lat="43.43005" lon="6.05751">
        <ele>320</ele>
        <time>2014-05-31T12:10:29Z</time>
      </trkpt>
      <trkpt lat="43.43004" lon="6.05755">
        <ele>320</ele>
        <time>2014-05-31T12:10:30Z</time>
      </trkpt>
      <trkpt lat="43.43003" lon="6.05775">
        <ele>320</ele>
        <time>2014-05-31T12:10:34Z</time>
      </trkpt>
      <trkpt lat="43.43002" lon="6.05781">
        <ele>320</ele>
        <time>2014-05-31T12:10:37Z</time>
      </trkpt>
      <trkpt lat="43.43002" lon="6.05781">
        <ele>320</ele>
        <time>2014-05-31T12:10:46Z</time>
      </trkpt>
      <trkpt lat="43.43002" lon="6.05791">
        <ele>320</ele>
        <time>2014-05-31T12:10:51Z</time>
      </trkpt>
      <trkpt lat="43.43005" lon="6.05806">
        <ele>320</ele>
        <time>2014-05-31T12:10:54Z</time>
      </trkpt>
      <trkpt lat="43.43005" lon="6.05813">
        <ele>319.59406</ele>
        <time>2014-05-31T12:10:56Z</time>
      </trkpt>
      <trkpt lat="43.43004" lon="6.05817">
        <ele>319.42987</ele>
        <time>2014-05-31T12:10:57Z</time>
      </trkpt>
      <trkpt lat="43.43004" lon="6.05828">
        <ele>318.8407</ele>
        <time>2014-05-31T12:10:59Z</time>
      </trkpt>
      <trkpt lat="43.43004" lon="6.05844">
        <ele>317.37402</ele>
        <time>2014-05-31T12:11:02Z</time>
      </trkpt>
      <trkpt lat="43.43005" lon="6.05848">
        <ele>316.82294</ele>
        <time>2014-05-31T12:11:03Z</time>
      </trkpt>
      <trkpt lat="43.43009" lon="6.05858">
        <ele>315.11029</ele>
        <time>2014-05-31T12:11:06Z</time>
      </trkpt>
      <trkpt lat="43.43011" lon="6.05861">
        <ele>314.4469</ele>
        <time>2014-05-31T12:11:07Z</time>
      </trkpt>
      <trkpt lat="43.43014" lon="6.05864">
        <ele>313.73709</ele>
        <time>2014-05-31T12:11:08Z</time>
      </trkpt>
      <trkpt lat="43.43021" lon="6.05869">
        <ele>312.23557</ele>
        <time>2014-05-31T12:11:10Z</time>
      </trkpt>
      <trkpt lat="43.43026" lon="6.05868">
        <ele>311.58008</ele>
        <time>2014-05-31T12:11:11Z</time>
      </trkpt>
      <trkpt lat="43.43038" lon="6.05863">
        <ele>309.19632</ele>
        <time>2014-05-31T12:11:14Z</time>
      </trkpt>
      <trkpt lat="43.43042" lon="6.0586">
        <ele>308.58557</ele>
        <time>2014-05-31T12:11:15Z</time>
      </trkpt>
      <trkpt lat="43.43046" lon="6.05859">
        <ele>307.72726</ele>
        <time>2014-05-31T12:11:16Z</time>
      </trkpt>
      <trkpt lat="43.4305" lon="6.05858">
        <ele>306.77969</ele>
        <time>2014-05-31T12:11:17Z</time>
      </trkpt>
      <trkpt lat="43.43055" lon="6.05858">
        <ele>305.56433</ele>
        <time>2014-05-31T12:11:18Z</time>
      </trkpt>
      <trkpt lat="43.43062" lon="6.05856">
        <ele>304.28906</ele>
        <time>2014-05-31T12:11:19Z</time>
      </trkpt>
      <trkpt lat="43.43079" lon="6.05855">
        <ele>300.52045</ele>
        <time>2014-05-31T12:11:23Z</time>
      </trkpt>
      <trkpt lat="43.43088" lon="6.05851">
        <ele>299.60971</ele>
        <time>2014-05-31T12:11:25Z</time>
      </trkpt>
      <trkpt lat="43.43092" lon="6.0585">
        <ele>299.30072</ele>
        <time>2014-05-31T12:11:26Z</time>
      </trkpt>
      <trkpt lat="43.43098" lon="6.05851">
        <ele>298.48706</ele>
        <time>2014-05-31T12:11:28Z</time>
      </trkpt>
      <trkpt lat="43.43102" lon="6.05849">
        <ele>298.35831</ele>
        <time>2014-05-31T12:11:29Z</time>
      </trkpt>
      <trkpt lat="43.43105" lon="6.05848">
        <ele>297.9978</ele>
        <time>2014-05-31T12:11:30Z</time>
      </trkpt>
      <trkpt lat="43.43113" lon="6.0585">
        <ele>296.88605</ele>
        <time>2014-05-31T12:11:32Z</time>
      </trkpt>
      <trkpt lat="43.43122" lon="6.05851">
        <ele>295.4675</ele>
        <time>2014-05-31T12:11:34Z</time>
      </trkpt>
      <trkpt lat="43.43139" lon="6.05848">
        <ele>292.99023</ele>
        <time>2014-05-31T12:11:37Z</time>
      </trkpt>
      <trkpt lat="43.43142" lon="6.05847">
        <ele>291.996</ele>
        <time>2014-05-31T12:11:38Z</time>
      </trkpt>
      <trkpt lat="43.43147" lon="6.05845">
        <ele>290.78534</ele>
        <time>2014-05-31T12:11:39Z</time>
      </trkpt>
      <trkpt lat="43.43151" lon="6.05842">
        <ele>289.42551</ele>
        <time>2014-05-31T12:11:40Z</time>
      </trkpt>
      <trkpt lat="43.43156" lon="6.0584">
        <ele>288.09494</ele>
        <time>2014-05-31T12:11:41Z</time>
      </trkpt>
      <trkpt lat="43.4316" lon="6.05839">
        <ele>286.83429</ele>
        <time>2014-05-31T12:11:42Z</time>
      </trkpt>
      <trkpt lat="43.43166" lon="6.05837">
        <ele>284.98563</ele>
        <time>2014-05-31T12:11:43Z</time>
      </trkpt>
      <trkpt lat="43.43172" lon="6.05835">
        <ele>283.97336</ele>
        <time>2014-05-31T12:11:44Z</time>
      </trkpt>
      <trkpt lat="43.43177" lon="6.05832">
        <ele>283.24377</ele>
        <time>2014-05-31T12:11:45Z</time>
      </trkpt>
      <trkpt lat="43.43179" lon="6.05828">
        <ele>282.93137</ele>
        <time>2014-05-31T12:11:46Z</time>
      </trkpt>
      <trkpt lat="43.4318" lon="6.05822">
        <ele>282.91592</ele>
        <time>2014-05-31T12:11:47Z</time>
      </trkpt>
      <trkpt lat="43.4318" lon="6.05819">
        <ele>283.18201</ele>
        <time>2014-05-31T12:11:48Z</time>
      </trkpt>
      <trkpt lat="43.43181" lon="6.05817">
        <ele>283.04639</ele>
        <time>2014-05-31T12:11:49Z</time>
      </trkpt>
      <trkpt lat="43.43182" lon="6.05817">
        <ele>282.91592</ele>
        <time>2014-05-31T12:11:50Z</time>
      </trkpt>
      <trkpt lat="43.43182" lon="6.05817">
        <ele>282.91592</ele>
        <time>2014-05-31T12:12:02Z</time>
      </trkpt>
      <trkpt lat="43.43182" lon="6.05816">
        <ele>282.9245</ele>
        <time>2014-05-31T12:12:14Z</time>
      </trkpt>
      <trkpt lat="43.43184" lon="6.05809">
        <ele>282.85413</ele>
        <time>2014-05-31T12:12:19Z</time>
      </trkpt>
      <trkpt lat="43.43191" lon="6.05798">
        <ele>281.70029</ele>
        <time>2014-05-31T12:12:23Z</time>
      </trkpt>
      <trkpt lat="43.43195" lon="6.05791">
        <ele>280.9166</ele>
        <time>2014-05-31T12:12:25Z</time>
      </trkpt>
      <trkpt lat="43.43206" lon="6.05777">
        <ele>279.40054</ele>
        <time>2014-05-31T12:12:29Z</time>
      </trkpt>
      <trkpt lat="43.43209" lon="6.05772">
        <ele>278.99768</ele>
        <time>2014-05-31T12:12:31Z</time>
      </trkpt>
      <trkpt lat="43.4321" lon="6.05768">
        <ele>278.93991</ele>
        <time>2014-05-31T12:12:32Z</time>
      </trkpt>
      <trkpt lat="43.43213" lon="6.05739">
        <ele>279.61981</ele>
        <time>2014-05-31T12:12:39Z</time>
      </trkpt>
      <trkpt lat="43.43216" lon="6.05704">
        <ele>280.67822</ele>
        <time>2014-05-31T12:12:46Z</time>
      </trkpt>
      <trkpt lat="43.43217" lon="6.0568">
        <ele>280.51343</ele>
        <time>2014-05-31T12:12:50Z</time>
      </trkpt>
      <trkpt lat="43.43218" lon="6.05663">
        <ele>280.49292</ele>
        <time>2014-05-31T12:12:53Z</time>
      </trkpt>
      <trkpt lat="43.43222" lon="6.05633">
        <ele>280.08032</ele>
        <time>2014-05-31T12:12:58Z</time>
      </trkpt>
      <trkpt lat="43.43225" lon="6.05582">
        <ele>279.27539</ele>
        <time>2014-05-31T12:13:06Z</time>
      </trkpt>
      <trkpt lat="43.4323" lon="6.05555">
        <ele>278.13171</ele>
        <time>2014-05-31T12:13:11Z</time>
      </trkpt>
      <trkpt lat="43.43237" lon="6.0553">
        <ele>276.86264</ele>
        <time>2014-05-31T12:13:15Z</time>
      </trkpt>
      <trkpt lat="43.43246" lon="6.05502">
        <ele>275.72137</ele>
        <time>2014-05-31T12:13:19Z</time>
      </trkpt>
      <trkpt lat="43.43251" lon="6.05485">
        <ele>275.3866</ele>
        <time>2014-05-31T12:13:21Z</time>
      </trkpt>
      <trkpt lat="43.43254" lon="6.05475">
        <ele>275.23117</ele>
        <time>2014-05-31T12:13:22Z</time>
      </trkpt>
      <trkpt lat="43.43257" lon="6.05466">
        <ele>274.76923</ele>
        <time>2014-05-31T12:13:23Z</time>
      </trkpt>
      <trkpt lat="43.43261" lon="6.05457">
        <ele>274.3017</ele>
        <time>2014-05-31T12:13:24Z</time>
      </trkpt>
      <trkpt lat="43.43264" lon="6.05448">
        <ele>273.91476</ele>
        <time>2014-05-31T12:13:25Z</time>
      </trkpt>
      <trkpt lat="43.43267" lon="6.05439">
        <ele>273.68469</ele>
        <time>2014-05-31T12:13:26Z</time>
      </trkpt>
      <trkpt lat="43.43274" lon="6.0542">
        <ele>273.4169</ele>
        <time>2014-05-31T12:13:28Z</time>
      </trkpt>
      <trkpt lat="43.43279" lon="6.05405">
        <ele>273.31772</ele>
        <time>2014-05-31T12:13:30Z</time>
      </trkpt>
      <trkpt lat="43.43282" lon="6.05397">
        <ele>273.29541</ele>
        <time>2014-05-31T12:13:31Z</time>
      </trkpt>
      <trkpt lat="43.43285" lon="6.0539">
        <ele>273.21127</ele>
        <time>2014-05-31T12:13:32Z</time>
      </trkpt>
      <trkpt lat="43.43299" lon="6.05362">
        <ele>272.41385</ele>
        <time>2014-05-31T12:13:37Z</time>
      </trkpt>
      <trkpt lat="43.43312" lon="6.05334">
        <ele>271.0531</ele>
        <time>2014-05-31T12:13:42Z</time>
      </trkpt>
      <trkpt lat="43.43314" lon="6.05328">
        <ele>270.92609</ele>
        <time>2014-05-31T12:13:43Z</time>
      </trkpt>
      <trkpt lat="43.43331" lon="6.05284">
        <ele>270.14676</ele>
        <time>2014-05-31T12:13:50Z</time>
      </trkpt>
      <trkpt lat="43.43335" lon="6.0527">
        <ele>269.9751</ele>
        <time>2014-05-31T12:13:52Z</time>
      </trkpt>
      <trkpt lat="43.43338" lon="6.05264">
        <ele>269.82574</ele>
        <time>2014-05-31T12:13:53Z</time>
      </trkpt>
      <trkpt lat="43.43343" lon="6.05251">
        <ele>269.50818</ele>
        <time>2014-05-31T12:13:55Z</time>
      </trkpt>
      <trkpt lat="43.43348" lon="6.0524">
        <ele>268.47656</ele>
        <time>2014-05-31T12:13:57Z</time>
      </trkpt>
      <trkpt lat="43.43351" lon="6.05235">
        <ele>267.85687</ele>
        <time>2014-05-31T12:13:58Z</time>
      </trkpt>
      <trkpt lat="43.43361" lon="6.0521">
        <ele>265.66302</ele>
        <time>2014-05-31T12:14:02Z</time>
      </trkpt>
      <trkpt lat="43.4337" lon="6.05185">
        <ele>264.27313</ele>
        <time>2014-05-31T12:14:07Z</time>
      </trkpt>
      <trkpt lat="43.43378" lon="6.05157">
        <ele>263.02975</ele>
        <time>2014-05-31T12:14:13Z</time>
      </trkpt>
      <trkpt lat="43.43385" lon="6.05135">
        <ele>262.45776</ele>
        <time>2014-05-31T12:14:18Z</time>
      </trkpt>
      <trkpt lat="43.43396" lon="6.05105">
        <ele>262.28943</ele>
        <time>2014-05-31T12:14:26Z</time>
      </trkpt>
      <trkpt lat="43.434" lon="6.05088">
        <ele>262.12415</ele>
        <time>2014-05-31T12:14:31Z</time>
      </trkpt>
      <trkpt lat="43.43401" lon="6.05084">
        <ele>262.11798</ele>
        <time>2014-05-31T12:14:32Z</time>
      </trkpt>
      <trkpt lat="43.43409" lon="6.05055">
        <ele>262.59338</ele>
        <time>2014-05-31T12:14:39Z</time>
      </trkpt>
      <trkpt lat="43.43414" lon="6.05023">
        <ele>263.35727</ele>
        <time>2014-05-31T12:14:44Z</time>
      </trkpt>
      <trkpt lat="43.43417" lon="6.05009">
        <ele>263.67828</ele>
        <time>2014-05-31T12:14:46Z</time>
      </trkpt>
      <trkpt lat="43.4342" lon="6.04994">
        <ele>264.00272</ele>
        <time>2014-05-31T12:14:48Z</time>
      </trkpt>
      <trkpt lat="43.43425" lon="6.04964">
        <ele>264.64172</ele>
        <time>2014-05-31T12:14:52Z</time>
      </trkpt>
      <trkpt lat="43.43425" lon="6.04956">
        <ele>264.77191</ele>
        <time>2014-05-31T12:14:53Z</time>
      </trkpt>
      <trkpt lat="43.43426" lon="6.04936">
        <ele>265.12137</ele>
        <time>2014-05-31T12:14:56Z</time>
      </trkpt>
      <trkpt lat="43.43429" lon="6.04888">
        <ele>266.11331</ele>
        <time>2014-05-31T12:15:04Z</time>
      </trkpt>
      <trkpt lat="43.43431" lon="6.04872">
        <ele>266.29227</ele>
        <time>2014-05-31T12:15:07Z</time>
      </trkpt>
      <trkpt lat="43.43431" lon="6.04847">
        <ele>266.95178</ele>
        <time>2014-05-31T12:15:12Z</time>
      </trkpt>
      <trkpt lat="43.43431" lon="6.04837">
        <ele>267.32599</ele>
        <time>2014-05-31T12:15:14Z</time>
      </trkpt>
      <trkpt lat="43.43434" lon="6.04772">
        <ele>268.319</ele>
        <time>2014-05-31T12:15:26Z</time>
      </trkpt>
      <trkpt lat="43.43436" lon="6.04741">
        <ele>269.23053</ele>
        <time>2014-05-31T12:15:32Z</time>
      </trkpt>
      <trkpt lat="43.43436" lon="6.04716">
        <ele>269.97305</ele>
        <time>2014-05-31T12:15:37Z</time>
      </trkpt>
      <trkpt lat="43.43441" lon="6.04687">
        <ele>269.81329</ele>
        <time>2014-05-31T12:15:42Z</time>
      </trkpt>
      <trkpt lat="43.43446" lon="6.04657">
        <ele>270.2149</ele>
        <time>2014-05-31T12:15:48Z</time>
      </trkpt>
      <trkpt lat="43.4345" lon="6.04633">
        <ele>270.4234</ele>
        <time>2014-05-31T12:15:53Z</time>
      </trkpt>
      <trkpt lat="43.43453" lon="6.04617">
        <ele>270.05261</ele>
        <time>2014-05-31T12:15:56Z</time>
      </trkpt>
      <trkpt lat="43.43457" lon="6.04597">
        <ele>269.86118</ele>
        <time>2014-05-31T12:16:00Z</time>
      </trkpt>
      <trkpt lat="43.43466" lon="6.04568">
        <ele>269.33524</ele>
        <time>2014-05-31T12:16:06Z</time>
      </trkpt>
      <trkpt lat="43.43476" lon="6.04554">
        <ele>268.44092</ele>
        <time>2014-05-31T12:16:10Z</time>
      </trkpt>
      <trkpt lat="43.43481" lon="6.04541">
        <ele>267.67188</ele>
        <time>2014-05-31T12:16:13Z</time>
      </trkpt>
      <trkpt lat="43.43482" lon="6.04526">
        <ele>267.60641</ele>
        <time>2014-05-31T12:16:16Z</time>
      </trkpt>
      <trkpt lat="43.43489" lon="6.04492">
        <ele>266.96655</ele>
        <time>2014-05-31T12:16:23Z</time>
      </trkpt>
      <trkpt lat="43.43489" lon="6.0445">
        <ele>267.20432</ele>
        <time>2014-05-31T12:16:31Z</time>
      </trkpt>
      <trkpt lat="43.43491" lon="6.04428">
        <ele>267.41388</ele>
        <time>2014-05-31T12:16:36Z</time>
      </trkpt>
      <trkpt lat="43.43487" lon="6.04401">
        <ele>268.64984</ele>
        <time>2014-05-31T12:16:42Z</time>
      </trkpt>
      <trkpt lat="43.43487" lon="6.04379">
        <ele>268.96826</ele>
        <time>2014-05-31T12:16:47Z</time>
      </trkpt>
      <trkpt lat="43.43491" lon="6.04345">
        <ele>268.88483</ele>
        <time>2014-05-31T12:16:55Z</time>
      </trkpt>
      <trkpt lat="43.43495" lon="6.04299">
        <ele>268.36774</ele>
        <time>2014-05-31T12:17:03Z</time>
      </trkpt>
      <trkpt lat="43.435" lon="6.04275">
        <ele>268.0654</ele>
        <time>2014-05-31T12:17:07Z</time>
      </trkpt>
      <trkpt lat="43.43504" lon="6.04264">
        <ele>267.78387</ele>
        <time>2014-05-31T12:17:09Z</time>
      </trkpt>
      <trkpt lat="43.43509" lon="6.04254">
        <ele>267.2569</ele>
        <time>2014-05-31T12:17:11Z</time>
      </trkpt>
      <trkpt lat="43.43515" lon="6.04246">
        <ele>266.30667</ele>
        <time>2014-05-31T12:17:13Z</time>
      </trkpt>
      <trkpt lat="43.43527" lon="6.04237">
        <ele>264.61655</ele>
        <time>2014-05-31T12:17:16Z</time>
      </trkpt>
      <trkpt lat="43.43538" lon="6.04219">
        <ele>264.38028</ele>
        <time>2014-05-31T12:17:20Z</time>
      </trkpt>
      <trkpt lat="43.43542" lon="6.04201">
        <ele>264.38153</ele>
        <time>2014-05-31T12:17:24Z</time>
      </trkpt>
      <trkpt lat="43.43536" lon="6.04181">
        <ele>265.55002</ele>
        <time>2014-05-31T12:17:29Z</time>
      </trkpt>
      <trkpt lat="43.43536" lon="6.04172">
        <ele>265.95514</ele>
        <time>2014-05-31T12:17:32Z</time>
      </trkpt>
      <trkpt lat="43.43536" lon="6.04169">
        <ele>266.05984</ele>
        <time>2014-05-31T12:17:33Z</time>
      </trkpt>
      <trkpt lat="43.43537" lon="6.04156">
        <ele>266.11752</ele>
        <time>2014-05-31T12:17:37Z</time>
      </trkpt>
      <trkpt lat="43.4354" lon="6.04147">
        <ele>266.00635</ele>
        <time>2014-05-31T12:17:40Z</time>
      </trkpt>
      <trkpt lat="43.43545" lon="6.04136">
        <ele>265.85178</ele>
        <time>2014-05-31T12:17:44Z</time>
      </trkpt>
      <trkpt lat="43.43548" lon="6.0413">
        <ele>265.85522</ele>
        <time>2014-05-31T12:17:46Z</time>
      </trkpt>
      <trkpt lat="43.4355" lon="6.04126">
        <ele>265.87924</ele>
        <time>2014-05-31T12:17:47Z</time>
      </trkpt>
      <trkpt lat="43.43557" lon="6.04106">
        <ele>266.01694</ele>
        <time>2014-05-31T12:17:52Z</time>
      </trkpt>
      <trkpt lat="43.43558" lon="6.04094">
        <ele>266.32935</ele>
        <time>2014-05-31T12:17:56Z</time>
      </trkpt>
      <trkpt lat="43.43563" lon="6.04079">
        <ele>266.40146</ele>
        <time>2014-05-31T12:18:01Z</time>
      </trkpt>
      <trkpt lat="43.4357" lon="6.04064">
        <ele>266.20062</ele>
        <time>2014-05-31T12:18:07Z</time>
      </trkpt>
      <trkpt lat="43.43578" lon="6.04051">
        <ele>265.74054</ele>
        <time>2014-05-31T12:18:13Z</time>
      </trkpt>
      <trkpt lat="43.43584" lon="6.0404">
        <ele>265.44946</ele>
        <time>2014-05-31T12:18:19Z</time>
      </trkpt>
      <trkpt lat="43.43589" lon="6.04034">
        <ele>265.20789</ele>
        <time>2014-05-31T12:18:23Z</time>
      </trkpt>
      <trkpt lat="43.43597" lon="6.04017">
        <ele>264.6705</ele>
        <time>2014-05-31T12:18:31Z</time>
      </trkpt>
      <trkpt lat="43.43602" lon="6.04004">
        <ele>264.21808</ele>
        <time>2014-05-31T12:18:37Z</time>
      </trkpt>
      <trkpt lat="43.43604" lon="6.03999">
        <ele>264.08875</ele>
        <time>2014-05-31T12:18:39Z</time>
      </trkpt>
      <trkpt lat="43.43604" lon="6.03993">
        <ele>264.23294</ele>
        <time>2014-05-31T12:18:41Z</time>
      </trkpt>
      <trkpt lat="43.43605" lon="6.03989">
        <ele>264.26212</ele>
        <time>2014-05-31T12:18:42Z</time>
      </trkpt>
      <trkpt lat="43.43606" lon="6.03984">
        <ele>264.32562</ele>
        <time>2014-05-31T12:18:43Z</time>
      </trkpt>
      <trkpt lat="43.43607" lon="6.03979">
        <ele>264.37198</ele>
        <time>2014-05-31T12:18:44Z</time>
      </trkpt>
      <trkpt lat="43.43608" lon="6.03955">
        <ele>265.65158</ele>
        <time>2014-05-31T12:18:47Z</time>
      </trkpt>
      <trkpt lat="43.43607" lon="6.03947">
        <ele>266.25894</ele>
        <time>2014-05-31T12:18:48Z</time>
      </trkpt>
      <trkpt lat="43.43605" lon="6.0394">
        <ele>266.61432</ele>
        <time>2014-05-31T12:18:49Z</time>
      </trkpt>
      <trkpt lat="43.43603" lon="6.03936">
        <ele>266.86151</ele>
        <time>2014-05-31T12:18:50Z</time>
      </trkpt>
      <trkpt lat="43.43601" lon="6.03931">
        <ele>267.1087</ele>
        <time>2014-05-31T12:18:51Z</time>
      </trkpt>
      <trkpt lat="43.43596" lon="6.03919">
        <ele>267.60309</ele>
        <time>2014-05-31T12:18:54Z</time>
      </trkpt>
      <trkpt lat="43.43594" lon="6.03912">
        <ele>268.06049</ele>
        <time>2014-05-31T12:18:56Z</time>
      </trkpt>
      <trkpt lat="43.4359" lon="6.03894">
        <ele>269.08188</ele>
        <time>2014-05-31T12:19:01Z</time>
      </trkpt>
      <trkpt lat="43.43589" lon="6.03879">
        <ele>269.78397</ele>
        <time>2014-05-31T12:19:05Z</time>
      </trkpt>
      <trkpt lat="43.43587" lon="6.03859">
        <ele>270.71265</ele>
        <time>2014-05-31T12:19:11Z</time>
      </trkpt>
      <trkpt lat="43.43583" lon="6.03834">
        <ele>271.99496</ele>
        <time>2014-05-31T12:19:18Z</time>
      </trkpt>
      <trkpt lat="43.43581" lon="6.03819">
        <ele>272.72281</ele>
        <time>2014-05-31T12:19:22Z</time>
      </trkpt>
      <trkpt lat="43.43575" lon="6.03803">
        <ele>273.98044</ele>
        <time>2014-05-31T12:19:28Z</time>
      </trkpt>
      <trkpt lat="43.43574" lon="6.03798">
        <ele>274.12744</ele>
        <time>2014-05-31T12:19:30Z</time>
      </trkpt>
      <trkpt lat="43.43573" lon="6.03793">
        <ele>274.33243</ele>
        <time>2014-05-31T12:19:32Z</time>
      </trkpt>
      <trkpt lat="43.4357" lon="6.03787">
        <ele>274.71506</ele>
        <time>2014-05-31T12:19:34Z</time>
      </trkpt>
      <trkpt lat="43.4357" lon="6.0378">
        <ele>274.89609</ele>
        <time>2014-05-31T12:19:37Z</time>
      </trkpt>
      <trkpt lat="43.43572" lon="6.03776">
        <ele>274.72815</ele>
        <time>2014-05-31T12:19:39Z</time>
      </trkpt>
      <trkpt lat="43.43571" lon="6.03764">
        <ele>275.31009</ele>
        <time>2014-05-31T12:19:42Z</time>
      </trkpt>
      <trkpt lat="43.43571" lon="6.03754">
        <ele>275.61395</ele>
        <time>2014-05-31T12:19:44Z</time>
      </trkpt>
      <trkpt lat="43.43571" lon="6.03737">
        <ele>276.21304</ele>
        <time>2014-05-31T12:19:47Z</time>
      </trkpt>
      <trkpt lat="43.43571" lon="6.03716">
        <ele>276.93741</ele>
        <time>2014-05-31T12:19:51Z</time>
      </trkpt>
      <trkpt lat="43.4357" lon="6.03711">
        <ele>277.08154</ele>
        <time>2014-05-31T12:19:52Z</time>
      </trkpt>
      <trkpt lat="43.43573" lon="6.03689">
        <ele>277.11621</ele>
        <time>2014-05-31T12:19:57Z</time>
      </trkpt>
      <trkpt lat="43.43575" lon="6.03677">
        <ele>276.86902</ele>
        <time>2014-05-31T12:20:00Z</time>
      </trkpt>
      <trkpt lat="43.43574" lon="6.0367">
        <ele>277.03381</ele>
        <time>2014-05-31T12:20:02Z</time>
      </trkpt>
      <trkpt lat="43.43572" lon="6.0366">
        <ele>277.44507</ele>
        <time>2014-05-31T12:20:07Z</time>
      </trkpt>
      <trkpt lat="43.43577" lon="6.03651">
        <ele>277.22192</ele>
        <time>2014-05-31T12:20:10Z</time>
      </trkpt>
      <trkpt lat="43.43579" lon="6.03648">
        <ele>277.18414</ele>
        <time>2014-05-31T12:20:11Z</time>
      </trkpt>
      <trkpt lat="43.43583" lon="6.03621">
        <ele>277.67682</ele>
        <time>2014-05-31T12:20:18Z</time>
      </trkpt>
      <trkpt lat="43.43583" lon="6.03605">
        <ele>278.32227</ele>
        <time>2014-05-31T12:20:24Z</time>
      </trkpt>
      <trkpt lat="43.43583" lon="6.03584">
        <ele>279.03638</ele>
        <time>2014-05-31T12:20:30Z</time>
      </trkpt>
      <trkpt lat="43.43587" lon="6.03568">
        <ele>278.53052</ele>
        <time>2014-05-31T12:20:35Z</time>
      </trkpt>
      <trkpt lat="43.43597" lon="6.03554">
        <ele>277.56189</ele>
        <time>2014-05-31T12:20:41Z</time>
      </trkpt>
      <trkpt lat="43.43603" lon="6.03537">
        <ele>276.86151</ele>
        <time>2014-05-31T12:20:46Z</time>
      </trkpt>
      <trkpt lat="43.43607" lon="6.03505">
        <ele>277.11401</ele>
        <time>2014-05-31T12:20:56Z</time>
      </trkpt>
      <trkpt lat="43.43611" lon="6.03488">
        <ele>277.44446</ele>
        <time>2014-05-31T12:21:01Z</time>
      </trkpt>
      <trkpt lat="43.43619" lon="6.0347">
        <ele>276.89648</ele>
        <time>2014-05-31T12:21:07Z</time>
      </trkpt>
      <trkpt lat="43.43625" lon="6.03445">
        <ele>275.96265</ele>
        <time>2014-05-31T12:21:14Z</time>
      </trkpt>
      <trkpt lat="43.43625" lon="6.03432">
        <ele>276.39563</ele>
        <time>2014-05-31T12:21:18Z</time>
      </trkpt>
      <trkpt lat="43.43625" lon="6.03426">
        <ele>276.61365</ele>
        <time>2014-05-31T12:21:20Z</time>
      </trkpt>
      <trkpt lat="43.43626" lon="6.03392">
        <ele>277.33237</ele>
        <time>2014-05-31T12:21:29Z</time>
      </trkpt>
      <trkpt lat="43.43628" lon="6.03389">
        <ele>276.97488</ele>
        <time>2014-05-31T12:21:30Z</time>
      </trkpt>
      <trkpt lat="43.43635" lon="6.03379">
        <ele>276.05307</ele>
        <time>2014-05-31T12:21:34Z</time>
      </trkpt>
      <trkpt lat="43.43644" lon="6.03359">
        <ele>275.67789</ele>
        <time>2014-05-31T12:21:40Z</time>
      </trkpt>
      <trkpt lat="43.43653" lon="6.03342">
        <ele>275.30701</ele>
        <time>2014-05-31T12:21:45Z</time>
      </trkpt>
      <trkpt lat="43.43664" lon="6.0332">
        <ele>274.728</ele>
        <time>2014-05-31T12:21:50Z</time>
      </trkpt>
      <trkpt lat="43.43667" lon="6.03308">
        <ele>274.90878</ele>
        <time>2014-05-31T12:21:54Z</time>
      </trkpt>
      <trkpt lat="43.43675" lon="6.03298">
        <ele>275</ele>
        <time>2014-05-31T12:21:59Z</time>
      </trkpt>
      <trkpt lat="43.4368" lon="6.0329">
        <ele>275</ele>
        <time>2014-05-31T12:22:03Z</time>
      </trkpt>
      <trkpt lat="43.43681" lon="6.03287">
        <ele>275</ele>
        <time>2014-05-31T12:22:04Z</time>
      </trkpt>
      <trkpt lat="43.43684" lon="6.03272">
        <ele>275.21283</ele>
        <time>2014-05-31T12:22:10Z</time>
      </trkpt>
      <trkpt lat="43.43688" lon="6.03252">
        <ele>275.92523</ele>
        <time>2014-05-31T12:22:16Z</time>
      </trkpt>
      <trkpt lat="43.43686" lon="6.03234">
        <ele>276</ele>
        <time>2014-05-31T12:22:21Z</time>
      </trkpt>
      <trkpt lat="43.43686" lon="6.03215">
        <ele>276.25903</ele>
        <time>2014-05-31T12:22:27Z</time>
      </trkpt>
      <trkpt lat="43.4369" lon="6.03196">
        <ele>276.93024</ele>
        <time>2014-05-31T12:22:33Z</time>
      </trkpt>
      <trkpt lat="43.43693" lon="6.03183">
        <ele>277</ele>
        <time>2014-05-31T12:22:38Z</time>
      </trkpt>
      <trkpt lat="43.43692" lon="6.03166">
        <ele>277.00214</ele>
        <time>2014-05-31T12:22:43Z</time>
      </trkpt>
      <trkpt lat="43.43693" lon="6.03159">
        <ele>277.013</ele>
        <time>2014-05-31T12:22:45Z</time>
      </trkpt>
      <trkpt lat="43.43693" lon="6.0315">
        <ele>277.02829</ele>
        <time>2014-05-31T12:22:48Z</time>
      </trkpt>
      <trkpt lat="43.43692" lon="6.03143">
        <ele>277.06308</ele>
        <time>2014-05-31T12:22:50Z</time>
      </trkpt>
      <trkpt lat="43.4369" lon="6.03126">
        <ele>277.5535</ele>
        <time>2014-05-31T12:22:55Z</time>
      </trkpt>
      <trkpt lat="43.43694" lon="6.03104">
        <ele>278.00824</ele>
        <time>2014-05-31T12:23:00Z</time>
      </trkpt>
      <trkpt lat="43.437" lon="6.03076">
        <ele>278</ele>
        <time>2014-05-31T12:23:07Z</time>
      </trkpt>
      <trkpt lat="43.43712" lon="6.03061">
        <ele>278</ele>
        <time>2014-05-31T12:23:12Z</time>
      </trkpt>
      <trkpt lat="43.43724" lon="6.03053">
        <ele>278</ele>
        <time>2014-05-31T12:23:16Z</time>
      </trkpt>
      <trkpt lat="43.43741" lon="6.03043">
        <ele>278</ele>
        <time>2014-05-31T12:23:21Z</time>
      </trkpt>
      <trkpt lat="43.4375" lon="6.0304">
        <ele>278</ele>
        <time>2014-05-31T12:23:23Z</time>
      </trkpt>
      <trkpt lat="43.43758" lon="6.03035">
        <ele>278.27466</ele>
        <time>2014-05-31T12:23:25Z</time>
      </trkpt>
      <trkpt lat="43.43761" lon="6.0303">
        <ele>278.38452</ele>
        <time>2014-05-31T12:23:26Z</time>
      </trkpt>
      <trkpt lat="43.43769" lon="6.03012">
        <ele>279.23444</ele>
        <time>2014-05-31T12:23:30Z</time>
      </trkpt>
      <trkpt lat="43.43777" lon="6.02999">
        <ele>279.9613</ele>
        <time>2014-05-31T12:23:34Z</time>
      </trkpt>
      <trkpt lat="43.43784" lon="6.02979">
        <ele>280</ele>
        <time>2014-05-31T12:23:39Z</time>
      </trkpt>
      <trkpt lat="43.43785" lon="6.02961">
        <ele>280</ele>
        <time>2014-05-31T12:23:44Z</time>
      </trkpt>
      <trkpt lat="43.4379" lon="6.02945">
        <ele>280</ele>
        <time>2014-05-31T12:23:49Z</time>
      </trkpt>
      <trkpt lat="43.43792" lon="6.02922">
        <ele>280</ele>
        <time>2014-05-31T12:23:55Z</time>
      </trkpt>
      <trkpt lat="43.4379" lon="6.02896">
        <ele>280</ele>
        <time>2014-05-31T12:24:02Z</time>
      </trkpt>
      <trkpt lat="43.43793" lon="6.02877">
        <ele>280</ele>
        <time>2014-05-31T12:24:07Z</time>
      </trkpt>
      <trkpt lat="43.438" lon="6.02857">
        <ele>280</ele>
        <time>2014-05-31T12:24:13Z</time>
      </trkpt>
      <trkpt lat="43.43807" lon="6.02838">
        <ele>280</ele>
        <time>2014-05-31T12:24:18Z</time>
      </trkpt>
      <trkpt lat="43.43808" lon="6.0283">
        <ele>280</ele>
        <time>2014-05-31T12:24:20Z</time>
      </trkpt>
      <trkpt lat="43.43807" lon="6.02823">
        <ele>280</ele>
        <time>2014-05-31T12:24:22Z</time>
      </trkpt>
      <trkpt lat="43.43803" lon="6.0281">
        <ele>280</ele>
        <time>2014-05-31T12:24:26Z</time>
      </trkpt>
      <trkpt lat="43.43797" lon="6.028">
        <ele>280</ele>
        <time>2014-05-31T12:24:30Z</time>
      </trkpt>
      <trkpt lat="43.43796" lon="6.02798">
        <ele>280</ele>
        <time>2014-05-31T12:24:31Z</time>
      </trkpt>
      <trkpt lat="43.4379" lon="6.02786">
        <ele>280</ele>
        <time>2014-05-31T12:24:36Z</time>
      </trkpt>
      <trkpt lat="43.43789" lon="6.02783">
        <ele>280</ele>
        <time>2014-05-31T12:24:37Z</time>
      </trkpt>
      <trkpt lat="43.43784" lon="6.0277">
        <ele>280</ele>
        <time>2014-05-31T12:24:42Z</time>
      </trkpt>
      <trkpt lat="43.43785" lon="6.02763">
        <ele>280</ele>
        <time>2014-05-31T12:24:44Z</time>
      </trkpt>
      <trkpt lat="43.43787" lon="6.02751">
        <ele>280</ele>
        <time>2014-05-31T12:24:48Z</time>
      </trkpt>
      <trkpt lat="43.43784" lon="6.02738">
        <ele>280</ele>
        <time>2014-05-31T12:24:52Z</time>
      </trkpt>
      <trkpt lat="43.43781" lon="6.02725">
        <ele>280</ele>
        <time>2014-05-31T12:24:56Z</time>
      </trkpt>
      <trkpt lat="43.43769" lon="6.02717">
        <ele>281.12674</ele>
        <time>2014-05-31T12:25:03Z</time>
      </trkpt>
      <trkpt lat="43.43766" lon="6.02711">
        <ele>281.79254</ele>
        <time>2014-05-31T12:25:06Z</time>
      </trkpt>
      <trkpt lat="43.43765" lon="6.0271">
        <ele>281.99738</ele>
        <time>2014-05-31T12:25:07Z</time>
      </trkpt>
      <trkpt lat="43.43767" lon="6.02705">
        <ele>282.07169</ele>
        <time>2014-05-31T12:25:10Z</time>
      </trkpt>
      <trkpt lat="43.43774" lon="6.02703">
        <ele>281.25037</ele>
        <time>2014-05-31T12:25:15Z</time>
      </trkpt>
      <trkpt lat="43.43779" lon="6.02694">
        <ele>280.97369</ele>
        <time>2014-05-31T12:25:19Z</time>
      </trkpt>
      <trkpt lat="43.43781" lon="6.0269">
        <ele>281.06012</ele>
        <time>2014-05-31T12:25:21Z</time>
      </trkpt>
      <trkpt lat="43.43783" lon="6.02687">
        <ele>281.03</ele>
        <time>2014-05-31T12:25:23Z</time>
      </trkpt>
      <trkpt lat="43.43784" lon="6.02682">
        <ele>281.13239</ele>
        <time>2014-05-31T12:25:27Z</time>
      </trkpt>
      <trkpt lat="43.43783" lon="6.02678">
        <ele>281.28571</ele>
        <time>2014-05-31T12:25:39Z</time>
      </trkpt>
      <trkpt lat="43.43783" lon="6.02677">
        <ele>281.33014</ele>
        <time>2014-05-31T12:25:45Z</time>
      </trkpt>
      <trkpt lat="43.43783" lon="6.02677">
        <ele>281.33014</ele>
        <time>2014-05-31T12:25:48Z</time>
      </trkpt>
      <trkpt lat="43.43783" lon="6.02677">
        <ele>281.3244</ele>
        <time>2014-05-31T12:25:53Z</time>
      </trkpt>
      <trkpt lat="43.43785" lon="6.02667">
        <ele>281.49551</ele>
        <time>2014-05-31T12:25:58Z</time>
      </trkpt>
      <trkpt lat="43.43784" lon="6.02659">
        <ele>281.73669</ele>
        <time>2014-05-31T12:26:01Z</time>
      </trkpt>
      <trkpt lat="43.43784" lon="6.02652">
        <ele>282.01108</ele>
        <time>2014-05-31T12:26:04Z</time>
      </trkpt>
      <trkpt lat="43.43783" lon="6.02647">
        <ele>282.1911</ele>
        <time>2014-05-31T12:26:06Z</time>
      </trkpt>
      <trkpt lat="43.43785" lon="6.02635">
        <ele>282.36087</ele>
        <time>2014-05-31T12:26:11Z</time>
      </trkpt>
      <trkpt lat="43.43788" lon="6.02621">
        <ele>282.68378</ele>
        <time>2014-05-31T12:26:16Z</time>
      </trkpt>
      <trkpt lat="43.43793" lon="6.02602">
        <ele>282.45306</ele>
        <time>2014-05-31T12:26:21Z</time>
      </trkpt>
      <trkpt lat="43.43793" lon="6.02577">
        <ele>282.88284</ele>
        <time>2014-05-31T12:26:27Z</time>
      </trkpt>
      <trkpt lat="43.43789" lon="6.02535">
        <ele>283.66449</ele>
        <time>2014-05-31T12:26:38Z</time>
      </trkpt>
      <trkpt lat="43.43796" lon="6.02519">
        <ele>281.91705</ele>
        <time>2014-05-31T12:26:43Z</time>
      </trkpt>
      <trkpt lat="43.43797" lon="6.0251">
        <ele>281.59381</ele>
        <time>2014-05-31T12:26:45Z</time>
      </trkpt>
      <trkpt lat="43.43797" lon="6.02504">
        <ele>281.59439</ele>
        <time>2014-05-31T12:26:47Z</time>
      </trkpt>
      <trkpt lat="43.43797" lon="6.02486">
        <ele>281.71317</ele>
        <time>2014-05-31T12:26:52Z</time>
      </trkpt>
      <trkpt lat="43.43796" lon="6.02483">
        <ele>281.8988</ele>
        <time>2014-05-31T12:26:55Z</time>
      </trkpt>
      <trkpt lat="43.43795" lon="6.02479">
        <ele>282.10193</ele>
        <time>2014-05-31T12:26:57Z</time>
      </trkpt>
      <trkpt lat="43.43795" lon="6.02476">
        <ele>282.30026</ele>
        <time>2014-05-31T12:27:00Z</time>
      </trkpt>
      <trkpt lat="43.43793" lon="6.02476">
        <ele>282.63467</ele>
        <time>2014-05-31T12:27:02Z</time>
      </trkpt>
      <trkpt lat="43.43789" lon="6.02473">
        <ele>283.49222</ele>
        <time>2014-05-31T12:27:06Z</time>
      </trkpt>
      <trkpt lat="43.43783" lon="6.02471">
        <ele>284.91382</ele>
        <time>2014-05-31T12:27:10Z</time>
      </trkpt>
      <trkpt lat="43.43779" lon="6.02461">
        <ele>285.82019</ele>
        <time>2014-05-31T12:27:14Z</time>
      </trkpt>
      <trkpt lat="43.43774" lon="6.02453">
        <ele>286.53931</ele>
        <time>2014-05-31T12:27:20Z</time>
      </trkpt>
      <trkpt lat="43.43774" lon="6.02451">
        <ele>286.53931</ele>
        <time>2014-05-31T12:27:22Z</time>
      </trkpt>
      <trkpt lat="43.43774" lon="6.02449">
        <ele>286.48438</ele>
        <time>2014-05-31T12:27:24Z</time>
      </trkpt>
      <trkpt lat="43.43774" lon="6.02439">
        <ele>286.48438</ele>
        <time>2014-05-31T12:27:29Z</time>
      </trkpt>
      <trkpt lat="43.43767" lon="6.02426">
        <ele>287.58301</ele>
        <time>2014-05-31T12:27:37Z</time>
      </trkpt>
      <trkpt lat="43.43765" lon="6.02422">
        <ele>287.85767</ele>
        <time>2014-05-31T12:27:40Z</time>
      </trkpt>
      <trkpt lat="43.43756" lon="6.02406">
        <ele>289.49048</ele>
        <time>2014-05-31T12:27:47Z</time>
      </trkpt>
      <trkpt lat="43.43753" lon="6.02404">
        <ele>290.0209</ele>
        <time>2014-05-31T12:27:49Z</time>
      </trkpt>
      <trkpt lat="43.4375" lon="6.02401">
        <ele>290.54617</ele>
        <time>2014-05-31T12:27:53Z</time>
      </trkpt>
      <trkpt lat="43.43746" lon="6.02394">
        <ele>292.15137</ele>
        <time>2014-05-31T12:27:57Z</time>
      </trkpt>
      <trkpt lat="43.43745" lon="6.02392">
        <ele>292.58838</ele>
        <time>2014-05-31T12:27:58Z</time>
      </trkpt>
      <trkpt lat="43.4374" lon="6.02379">
        <ele>294.21109</ele>
        <time>2014-05-31T12:28:03Z</time>
      </trkpt>
      <trkpt lat="43.43739" lon="6.02375">
        <ele>294.78299</ele>
        <time>2014-05-31T12:28:05Z</time>
      </trkpt>
      <trkpt lat="43.43733" lon="6.02363">
        <ele>297.1311</ele>
        <time>2014-05-31T12:28:12Z</time>
      </trkpt>
      <trkpt lat="43.43731" lon="6.02363">
        <ele>297.69342</ele>
        <time>2014-05-31T12:28:13Z</time>
      </trkpt>
      <trkpt lat="43.43727" lon="6.02363">
        <ele>299.18472</ele>
        <time>2014-05-31T12:28:17Z</time>
      </trkpt>
      <trkpt lat="43.43722" lon="6.02363">
        <ele>301.01016</ele>
        <time>2014-05-31T12:28:21Z</time>
      </trkpt>
      <trkpt lat="43.43719" lon="6.02359">
        <ele>301.45856</ele>
        <time>2014-05-31T12:28:23Z</time>
      </trkpt>
      <trkpt lat="43.43716" lon="6.02353">
        <ele>301.95419</ele>
        <time>2014-05-31T12:28:26Z</time>
      </trkpt>
      <trkpt lat="43.43714" lon="6.02341">
        <ele>302.37634</ele>
        <time>2014-05-31T12:28:30Z</time>
      </trkpt>
      <trkpt lat="43.43724" lon="6.02328">
        <ele>300.41824</ele>
        <time>2014-05-31T12:28:35Z</time>
      </trkpt>
      <trkpt lat="43.43725" lon="6.02326">
        <ele>300.06372</ele>
        <time>2014-05-31T12:28:36Z</time>
      </trkpt>
      <trkpt lat="43.43727" lon="6.02319">
        <ele>299.39301</ele>
        <time>2014-05-31T12:28:38Z</time>
      </trkpt>
      <trkpt lat="43.43746" lon="6.02292">
        <ele>294.13589</ele>
        <time>2014-05-31T12:28:44Z</time>
      </trkpt>
      <trkpt lat="43.43752" lon="6.02284">
        <ele>292.67041</ele>
        <time>2014-05-31T12:28:46Z</time>
      </trkpt>
      <trkpt lat="43.43755" lon="6.0228">
        <ele>292.23096</ele>
        <time>2014-05-31T12:28:47Z</time>
      </trkpt>
      <trkpt lat="43.43758" lon="6.02275">
        <ele>291.87469</ele>
        <time>2014-05-31T12:28:48Z</time>
      </trkpt>
      <trkpt lat="43.43761" lon="6.02271">
        <ele>291.61035</ele>
        <time>2014-05-31T12:28:49Z</time>
      </trkpt>
      <trkpt lat="43.43764" lon="6.02265">
        <ele>291.47302</ele>
        <time>2014-05-31T12:28:50Z</time>
      </trkpt>
      <trkpt lat="43.43764" lon="6.02259">
        <ele>291.59488</ele>
        <time>2014-05-31T12:28:51Z</time>
      </trkpt>
      <trkpt lat="43.43766" lon="6.02247">
        <ele>291.69287</ele>
        <time>2014-05-31T12:28:53Z</time>
      </trkpt>
      <trkpt lat="43.43766" lon="6.02242">
        <ele>291.69287</ele>
        <time>2014-05-31T12:28:54Z</time>
      </trkpt>
      <trkpt lat="43.43766" lon="6.02233">
        <ele>291.69287</ele>
        <time>2014-05-31T12:28:55Z</time>
      </trkpt>
      <trkpt lat="43.43766" lon="6.02224">
        <ele>291.69287</ele>
        <time>2014-05-31T12:28:58Z</time>
      </trkpt>
      <trkpt lat="43.43766" lon="6.02202">
        <ele>292.15894</ele>
        <time>2014-05-31T12:29:03Z</time>
      </trkpt>
      <trkpt lat="43.43772" lon="6.02187">
        <ele>291.7124</ele>
        <time>2014-05-31T12:29:07Z</time>
      </trkpt>
      <trkpt lat="43.43774" lon="6.02176">
        <ele>291.44183</ele>
        <time>2014-05-31T12:29:09Z</time>
      </trkpt>
      <trkpt lat="43.43779" lon="6.02167">
        <ele>290.88013</ele>
        <time>2014-05-31T12:29:11Z</time>
      </trkpt>
      <trkpt lat="43.43783" lon="6.0216">
        <ele>290.52872</ele>
        <time>2014-05-31T12:29:13Z</time>
      </trkpt>
      <trkpt lat="43.43787" lon="6.02155">
        <ele>290.1442</ele>
        <time>2014-05-31T12:29:15Z</time>
      </trkpt>
      <trkpt lat="43.4381" lon="6.02121">
        <ele>287.6604</ele>
        <time>2014-05-31T12:29:25Z</time>
      </trkpt>
      <trkpt lat="43.43813" lon="6.02115">
        <ele>287.49561</ele>
        <time>2014-05-31T12:29:27Z</time>
      </trkpt>
      <trkpt lat="43.43814" lon="6.02105">
        <ele>287.61612</ele>
        <time>2014-05-31T12:29:30Z</time>
      </trkpt>
      <trkpt lat="43.43819" lon="6.02079">
        <ele>288.00122</ele>
        <time>2014-05-31T12:29:36Z</time>
      </trkpt>
      <trkpt lat="43.43829" lon="6.02061">
        <ele>287.28711</ele>
        <time>2014-05-31T12:29:40Z</time>
      </trkpt>
      <trkpt lat="43.43834" lon="6.02043">
        <ele>287.44995</ele>
        <time>2014-05-31T12:29:44Z</time>
      </trkpt>
      <trkpt lat="43.43837" lon="6.0202">
        <ele>288</ele>
        <time>2014-05-31T12:29:49Z</time>
      </trkpt>
      <trkpt lat="43.43838" lon="6.02012">
        <ele>288</ele>
        <time>2014-05-31T12:29:51Z</time>
      </trkpt>
      <trkpt lat="43.43838" lon="6.02004">
        <ele>288</ele>
        <time>2014-05-31T12:29:53Z</time>
      </trkpt>
      <trkpt lat="43.43839" lon="6.01994">
        <ele>288.2095</ele>
        <time>2014-05-31T12:29:55Z</time>
      </trkpt>
      <trkpt lat="43.43838" lon="6.01982">
        <ele>288.65582</ele>
        <time>2014-05-31T12:29:58Z</time>
      </trkpt>
      <trkpt lat="43.43845" lon="6.01962">
        <ele>289</ele>
        <time>2014-05-31T12:30:03Z</time>
      </trkpt>
      <trkpt lat="43.43856" lon="6.0194">
        <ele>289.16473</ele>
        <time>2014-05-31T12:30:09Z</time>
      </trkpt>
      <trkpt lat="43.43862" lon="6.01924">
        <ele>289.78757</ele>
        <time>2014-05-31T12:30:13Z</time>
      </trkpt>
      <trkpt lat="43.43864" lon="6.01904">
        <ele>290.11987</ele>
        <time>2014-05-31T12:30:18Z</time>
      </trkpt>
      <trkpt lat="43.43868" lon="6.01877">
        <ele>290.24347</ele>
        <time>2014-05-31T12:30:24Z</time>
      </trkpt>
      <trkpt lat="43.4387" lon="6.01869">
        <ele>290.32587</ele>
        <time>2014-05-31T12:30:28Z</time>
      </trkpt>
      <trkpt lat="43.43872" lon="6.0187">
        <ele>290.39453</ele>
        <time>2014-05-31T12:30:34Z</time>
      </trkpt>
      <trkpt lat="43.43872" lon="6.01869">
        <ele>290.39453</ele>
        <time>2014-05-31T12:30:39Z</time>
      </trkpt>
      <trkpt lat="43.43872" lon="6.01869">
        <ele>290.39453</ele>
        <time>2014-05-31T12:30:52Z</time>
      </trkpt>
      <trkpt lat="43.43872" lon="6.01869">
        <ele>290.39453</ele>
        <time>2014-05-31T12:30:58Z</time>
      </trkpt>
      <trkpt lat="43.43872" lon="6.01869">
        <ele>290.40826</ele>
        <time>2014-05-31T12:31:06Z</time>
      </trkpt>
      <trkpt lat="43.43872" lon="6.01868">
        <ele>290.39453</ele>
        <time>2014-05-31T12:31:10Z</time>
      </trkpt>
      <trkpt lat="43.43872" lon="6.01869">
        <ele>290.40826</ele>
        <time>2014-05-31T12:31:11Z</time>
      </trkpt>
      <trkpt lat="43.43872" lon="6.01869">
        <ele>290.40826</ele>
        <time>2014-05-31T12:31:31Z</time>
      </trkpt>
      <trkpt lat="43.43872" lon="6.01869">
        <ele>290.40826</ele>
        <time>2014-05-31T12:31:40Z</time>
      </trkpt>
      <trkpt lat="43.43874" lon="6.01864">
        <ele>290.44946</ele>
        <time>2014-05-31T12:31:44Z</time>
      </trkpt>
      <trkpt lat="43.43874" lon="6.01858">
        <ele>290.55646</ele>
        <time>2014-05-31T12:31:46Z</time>
      </trkpt>
      <trkpt lat="43.43875" lon="6.01852">
        <ele>290.82254</ele>
        <time>2014-05-31T12:31:48Z</time>
      </trkpt>
      <trkpt lat="43.43876" lon="6.01844">
        <ele>291.14697</ele>
        <time>2014-05-31T12:31:50Z</time>
      </trkpt>
      <trkpt lat="43.43877" lon="6.01824">
        <ele>291.57306</ele>
        <time>2014-05-31T12:31:56Z</time>
      </trkpt>
      <trkpt lat="43.43878" lon="6.01806">
        <ele>291.61426</ele>
        <time>2014-05-31T12:32:02Z</time>
      </trkpt>
      <trkpt lat="43.43879" lon="6.01803">
        <ele>291.72797</ele>
        <time>2014-05-31T12:32:03Z</time>
      </trkpt>
      <trkpt lat="43.4388" lon="6.01796">
        <ele>292.01465</ele>
        <time>2014-05-31T12:32:06Z</time>
      </trkpt>
      <trkpt lat="43.43882" lon="6.01787">
        <ele>292.40604</ele>
        <time>2014-05-31T12:32:10Z</time>
      </trkpt>
      <trkpt lat="43.43886" lon="6.01763">
        <ele>292.90265</ele>
        <time>2014-05-31T12:32:18Z</time>
      </trkpt>
      <trkpt lat="43.43887" lon="6.01761">
        <ele>292.91638</ele>
        <time>2014-05-31T12:32:19Z</time>
      </trkpt>
      <trkpt lat="43.43887" lon="6.01758">
        <ele>292.91638</ele>
        <time>2014-05-31T12:32:20Z</time>
      </trkpt>
      <trkpt lat="43.4388" lon="6.01726">
        <ele>292.96005</ele>
        <time>2014-05-31T12:32:32Z</time>
      </trkpt>
      <trkpt lat="43.43874" lon="6.01713">
        <ele>293.14938</ele>
        <time>2014-05-31T12:32:38Z</time>
      </trkpt>
      <trkpt lat="43.43872" lon="6.01708">
        <ele>293.19614</ele>
        <time>2014-05-31T12:32:40Z</time>
      </trkpt>
      <trkpt lat="43.4387" lon="6.01695">
        <ele>293.3175</ele>
        <time>2014-05-31T12:32:45Z</time>
      </trkpt>
      <trkpt lat="43.43871" lon="6.01668">
        <ele>293.95981</ele>
        <time>2014-05-31T12:32:55Z</time>
      </trkpt>
      <trkpt lat="43.43869" lon="6.01663">
        <ele>294</ele>
        <time>2014-05-31T12:32:57Z</time>
      </trkpt>
      <trkpt lat="43.43865" lon="6.01661">
        <ele>294</ele>
        <time>2014-05-31T12:32:59Z</time>
      </trkpt>
      <trkpt lat="43.43857" lon="6.01665">
        <ele>294</ele>
        <time>2014-05-31T12:33:03Z</time>
      </trkpt>
      <trkpt lat="43.43851" lon="6.01671">
        <ele>293.84644</ele>
        <time>2014-05-31T12:33:07Z</time>
      </trkpt>
      <trkpt lat="43.43848" lon="6.01675">
        <ele>293.71423</ele>
        <time>2014-05-31T12:33:09Z</time>
      </trkpt>
      <trkpt lat="43.43847" lon="6.01676">
        <ele>293.67819</ele>
        <time>2014-05-31T12:33:10Z</time>
      </trkpt>
      <trkpt lat="43.43834" lon="6.01686">
        <ele>293.29712</ele>
        <time>2014-05-31T12:33:16Z</time>
      </trkpt>
      <trkpt lat="43.43821" lon="6.01694">
        <ele>294.29596</ele>
        <time>2014-05-31T12:33:21Z</time>
      </trkpt>
      <trkpt lat="43.43803" lon="6.01701">
        <ele>296.11285</ele>
        <time>2014-05-31T12:33:28Z</time>
      </trkpt>
      <trkpt lat="43.43789" lon="6.01704">
        <ele>296.81702</ele>
        <time>2014-05-31T12:33:34Z</time>
      </trkpt>
      <trkpt lat="43.43779" lon="6.01702">
        <ele>297.22867</ele>
        <time>2014-05-31T12:33:38Z</time>
      </trkpt>
      <trkpt lat="43.43777" lon="6.01702">
        <ele>297.30423</ele>
        <time>2014-05-31T12:33:39Z</time>
      </trkpt>
      <trkpt lat="43.43768" lon="6.01696">
        <ele>297.45438</ele>
        <time>2014-05-31T12:33:44Z</time>
      </trkpt>
      <trkpt lat="43.43757" lon="6.01693">
        <ele>297.76813</ele>
        <time>2014-05-31T12:33:49Z</time>
      </trkpt>
      <trkpt lat="43.43746" lon="6.01687">
        <ele>298.10101</ele>
        <time>2014-05-31T12:33:54Z</time>
      </trkpt>
      <trkpt lat="43.43744" lon="6.01687">
        <ele>298.15082</ele>
        <time>2014-05-31T12:33:55Z</time>
      </trkpt>
      <trkpt lat="43.43743" lon="6.01687">
        <ele>298.17841</ele>
        <time>2014-05-31T12:33:56Z</time>
      </trkpt>
      <trkpt lat="43.43742" lon="6.01687">
        <ele>298.19778</ele>
        <time>2014-05-31T12:33:57Z</time>
      </trkpt>
      <trkpt lat="43.43742" lon="6.01687">
        <ele>298.19824</ele>
        <time>2014-05-31T12:33:58Z</time>
      </trkpt>
      <trkpt lat="43.43742" lon="6.01687">
        <ele>298.19824</ele>
        <time>2014-05-31T12:34:21Z</time>
      </trkpt>
      <trkpt lat="43.43742" lon="6.01686">
        <ele>298.19354</ele>
        <time>2014-05-31T12:35:39Z</time>
      </trkpt>
      <trkpt lat="43.43742" lon="6.01686">
        <ele>298.19354</ele>
        <time>2014-05-31T12:35:57Z</time>
      </trkpt>
      <trkpt lat="43.43742" lon="6.01686">
        <ele>298.20023</ele>
        <time>2014-05-31T12:36:02Z</time>
      </trkpt>
      <trkpt lat="43.43738" lon="6.01684">
        <ele>298.26196</ele>
        <time>2014-05-31T12:36:05Z</time>
      </trkpt>
      <trkpt lat="43.43725" lon="6.01678">
        <ele>298.35468</ele>
        <time>2014-05-31T12:36:13Z</time>
      </trkpt>
      <trkpt lat="43.43717" lon="6.01671">
        <ele>298.4201</ele>
        <time>2014-05-31T12:36:18Z</time>
      </trkpt>
      <trkpt lat="43.43713" lon="6.01669">
        <ele>298.46198</ele>
        <time>2014-05-31T12:36:20Z</time>
      </trkpt>
      <trkpt lat="43.43711" lon="6.01667">
        <ele>298.42499</ele>
        <time>2014-05-31T12:36:21Z</time>
      </trkpt>
      <trkpt lat="43.43695" lon="6.01649">
        <ele>298.97754</ele>
        <time>2014-05-31T12:36:31Z</time>
      </trkpt>
      <trkpt lat="43.43691" lon="6.01648">
        <ele>299.30115</ele>
        <time>2014-05-31T12:36:33Z</time>
      </trkpt>
      <trkpt lat="43.43662" lon="6.0164">
        <ele>301.98032</ele>
        <time>2014-05-31T12:36:47Z</time>
      </trkpt>
      <trkpt lat="43.4365" lon="6.0163">
        <ele>305.582</ele>
        <time>2014-05-31T12:36:54Z</time>
      </trkpt>
      <trkpt lat="43.43639" lon="6.01612">
        <ele>309.84094</ele>
        <time>2014-05-31T12:37:01Z</time>
      </trkpt>
      <trkpt lat="43.43633" lon="6.01598">
        <ele>312.35345</ele>
        <time>2014-05-31T12:37:06Z</time>
      </trkpt>
      <trkpt lat="43.43626" lon="6.01582">
        <ele>314.91653</ele>
        <time>2014-05-31T12:37:12Z</time>
      </trkpt>
      <trkpt lat="43.43623" lon="6.01578">
        <ele>315.6611</ele>
        <time>2014-05-31T12:37:14Z</time>
      </trkpt>
      <trkpt lat="43.43621" lon="6.01576">
        <ele>315.99094</ele>
        <time>2014-05-31T12:37:15Z</time>
      </trkpt>
      <trkpt lat="43.43608" lon="6.01563">
        <ele>317.85007</ele>
        <time>2014-05-31T12:37:22Z</time>
      </trkpt>
      <trkpt lat="43.43599" lon="6.01558">
        <ele>318.36676</ele>
        <time>2014-05-31T12:37:26Z</time>
      </trkpt>
      <trkpt lat="43.43579" lon="6.01548">
        <ele>319.94113</ele>
        <time>2014-05-31T12:37:34Z</time>
      </trkpt>
      <trkpt lat="43.43577" lon="6.01547">
        <ele>320.09097</ele>
        <time>2014-05-31T12:37:35Z</time>
      </trkpt>
      <trkpt lat="43.43568" lon="6.01544">
        <ele>320.56094</ele>
        <time>2014-05-31T12:37:39Z</time>
      </trkpt>
      <trkpt lat="43.43553" lon="6.01542">
        <ele>320.90347</ele>
        <time>2014-05-31T12:37:45Z</time>
      </trkpt>
      <trkpt lat="43.43545" lon="6.01541">
        <ele>320.64279</ele>
        <time>2014-05-31T12:37:48Z</time>
      </trkpt>
      <trkpt lat="43.43533" lon="6.01539">
        <ele>320.23886</ele>
        <time>2014-05-31T12:37:53Z</time>
      </trkpt>
      <trkpt lat="43.4352" lon="6.01532">
        <ele>320</ele>
        <time>2014-05-31T12:38:00Z</time>
      </trkpt>
      <trkpt lat="43.43511" lon="6.01528">
        <ele>320</ele>
        <time>2014-05-31T12:38:04Z</time>
      </trkpt>
      <trkpt lat="43.43509" lon="6.01528">
        <ele>320.00842</ele>
        <time>2014-05-31T12:38:05Z</time>
      </trkpt>
      <trkpt lat="43.43501" lon="6.0153">
        <ele>320</ele>
        <time>2014-05-31T12:38:09Z</time>
      </trkpt>
      <trkpt lat="43.43499" lon="6.01531">
        <ele>320</ele>
        <time>2014-05-31T12:38:10Z</time>
      </trkpt>
      <trkpt lat="43.43489" lon="6.01535">
        <ele>320</ele>
        <time>2014-05-31T12:38:15Z</time>
      </trkpt>
      <trkpt lat="43.43481" lon="6.0153">
        <ele>320</ele>
        <time>2014-05-31T12:38:20Z</time>
      </trkpt>
      <trkpt lat="43.4348" lon="6.0153">
        <ele>320</ele>
        <time>2014-05-31T12:38:21Z</time>
      </trkpt>
      <trkpt lat="43.43466" lon="6.0153">
        <ele>320</ele>
        <time>2014-05-31T12:38:28Z</time>
      </trkpt>
      <trkpt lat="43.43464" lon="6.01529">
        <ele>320</ele>
        <time>2014-05-31T12:38:29Z</time>
      </trkpt>
      <trkpt lat="43.43457" lon="6.01525">
        <ele>320</ele>
        <time>2014-05-31T12:38:33Z</time>
      </trkpt>
      <trkpt lat="43.43454" lon="6.01522">
        <ele>320</ele>
        <time>2014-05-31T12:38:36Z</time>
      </trkpt>
      <trkpt lat="43.43451" lon="6.01517">
        <ele>320</ele>
        <time>2014-05-31T12:38:39Z</time>
      </trkpt>
      <trkpt lat="43.43449" lon="6.01516">
        <ele>320</ele>
        <time>2014-05-31T12:38:40Z</time>
      </trkpt>
      <trkpt lat="43.43449" lon="6.01514">
        <ele>320</ele>
        <time>2014-05-31T12:38:41Z</time>
      </trkpt>
      <trkpt lat="43.43441" lon="6.01493">
        <ele>320.46167</ele>
        <time>2014-05-31T12:38:50Z</time>
      </trkpt>
      <trkpt lat="43.43431" lon="6.01459">
        <ele>320.74265</ele>
        <time>2014-05-31T12:39:04Z</time>
      </trkpt>
      <trkpt lat="43.43431" lon="6.01448">
        <ele>320.15585</ele>
        <time>2014-05-31T12:39:08Z</time>
      </trkpt>
      <trkpt lat="43.43431" lon="6.01416">
        <ele>320</ele>
        <time>2014-05-31T12:39:21Z</time>
      </trkpt>
      <trkpt lat="43.43431" lon="6.0141">
        <ele>320</ele>
        <time>2014-05-31T12:39:24Z</time>
      </trkpt>
      <trkpt lat="43.43431" lon="6.01405">
        <ele>320</ele>
        <time>2014-05-31T12:39:26Z</time>
      </trkpt>
      <trkpt lat="43.43429" lon="6.01381">
        <ele>320</ele>
        <time>2014-05-31T12:39:36Z</time>
      </trkpt>
      <trkpt lat="43.43427" lon="6.01367">
        <ele>320</ele>
        <time>2014-05-31T12:39:41Z</time>
      </trkpt>
      <trkpt lat="43.43425" lon="6.01351">
        <ele>322.22028</ele>
        <time>2014-05-31T12:39:47Z</time>
      </trkpt>
      <trkpt lat="43.43423" lon="6.01339">
        <ele>324.72311</ele>
        <time>2014-05-31T12:39:52Z</time>
      </trkpt>
      <trkpt lat="43.43424" lon="6.01335">
        <ele>325.71188</ele>
        <time>2014-05-31T12:39:54Z</time>
      </trkpt>
      <trkpt lat="43.43427" lon="6.01332">
        <ele>326.228</ele>
        <time>2014-05-31T12:39:56Z</time>
      </trkpt>
      <trkpt lat="43.43435" lon="6.01324">
        <ele>328.23859</ele>
        <time>2014-05-31T12:40:03Z</time>
      </trkpt>
      <trkpt lat="43.43438" lon="6.01319">
        <ele>329.16763</ele>
        <time>2014-05-31T12:40:06Z</time>
      </trkpt>
      <trkpt lat="43.43441" lon="6.01307">
        <ele>331.69547</ele>
        <time>2014-05-31T12:40:13Z</time>
      </trkpt>
      <trkpt lat="43.43449" lon="6.0129">
        <ele>335.74829</ele>
        <time>2014-05-31T12:40:23Z</time>
      </trkpt>
      <trkpt lat="43.4345" lon="6.01281">
        <ele>338.14624</ele>
        <time>2014-05-31T12:40:28Z</time>
      </trkpt>
      <trkpt lat="43.4345" lon="6.01277">
        <ele>339.05478</ele>
        <time>2014-05-31T12:40:30Z</time>
      </trkpt>
      <trkpt lat="43.43455" lon="6.01259">
        <ele>338.90991</ele>
        <time>2014-05-31T12:40:40Z</time>
      </trkpt>
      <trkpt lat="43.43472" lon="6.01236">
        <ele>339.03458</ele>
        <time>2014-05-31T12:40:56Z</time>
      </trkpt>
      <trkpt lat="43.43475" lon="6.01226">
        <ele>339.3222</ele>
        <time>2014-05-31T12:41:01Z</time>
      </trkpt>
      <trkpt lat="43.43476" lon="6.01206">
        <ele>339.46759</ele>
        <time>2014-05-31T12:41:10Z</time>
      </trkpt>
      <trkpt lat="43.43476" lon="6.01189">
        <ele>339.64877</ele>
        <time>2014-05-31T12:41:17Z</time>
      </trkpt>
      <trkpt lat="43.43476" lon="6.01175">
        <ele>339.67889</ele>
        <time>2014-05-31T12:41:23Z</time>
      </trkpt>
      <trkpt lat="43.43476" lon="6.0117">
        <ele>339.73077</ele>
        <time>2014-05-31T12:41:25Z</time>
      </trkpt>
      <trkpt lat="43.43474" lon="6.01159">
        <ele>339.90109</ele>
        <time>2014-05-31T12:41:31Z</time>
      </trkpt>
      <trkpt lat="43.43474" lon="6.01157">
        <ele>339.88303</ele>
        <time>2014-05-31T12:41:32Z</time>
      </trkpt>
      <trkpt lat="43.43476" lon="6.01146">
        <ele>339.82645</ele>
        <time>2014-05-31T12:41:37Z</time>
      </trkpt>
      <trkpt lat="43.43481" lon="6.01133">
        <ele>339.60153</ele>
        <time>2014-05-31T12:41:44Z</time>
      </trkpt>
      <trkpt lat="43.43499" lon="6.01096">
        <ele>341.5636</ele>
        <time>2014-05-31T12:42:03Z</time>
      </trkpt>
      <trkpt lat="43.43501" lon="6.0109">
        <ele>342.6752</ele>
        <time>2014-05-31T12:42:06Z</time>
      </trkpt>
      <trkpt lat="43.43502" lon="6.01085">
        <ele>343.27786</ele>
        <time>2014-05-31T12:42:08Z</time>
      </trkpt>
      <trkpt lat="43.435" lon="6.01063">
        <ele>343.71063</ele>
        <time>2014-05-31T12:42:17Z</time>
      </trkpt>
      <trkpt lat="43.43498" lon="6.01051">
        <ele>343.7547</ele>
        <time>2014-05-31T12:42:21Z</time>
      </trkpt>
      <trkpt lat="43.43495" lon="6.01041">
        <ele>343.34998</ele>
        <time>2014-05-31T12:42:25Z</time>
      </trkpt>
      <trkpt lat="43.43493" lon="6.01019">
        <ele>343.81006</ele>
        <time>2014-05-31T12:42:34Z</time>
      </trkpt>
      <trkpt lat="43.43492" lon="6.01011">
        <ele>344.19589</ele>
        <time>2014-05-31T12:42:37Z</time>
      </trkpt>
      <trkpt lat="43.43494" lon="6.00999">
        <ele>345.13318</ele>
        <time>2014-05-31T12:42:42Z</time>
      </trkpt>
      <trkpt lat="43.43495" lon="6.00986">
        <ele>345.80951</ele>
        <time>2014-05-31T12:42:48Z</time>
      </trkpt>
      <trkpt lat="43.435" lon="6.00976">
        <ele>346.84293</ele>
        <time>2014-05-31T12:42:53Z</time>
      </trkpt>
      <trkpt lat="43.43499" lon="6.00962">
        <ele>346.90991</ele>
        <time>2014-05-31T12:42:59Z</time>
      </trkpt>
      <trkpt lat="43.435" lon="6.00959">
        <ele>346.96484</ele>
        <time>2014-05-31T12:43:01Z</time>
      </trkpt>
      <trkpt lat="43.43501" lon="6.00956">
        <ele>347.53482</ele>
        <time>2014-05-31T12:43:03Z</time>
      </trkpt>
      <trkpt lat="43.43503" lon="6.00945">
        <ele>348.37561</ele>
        <time>2014-05-31T12:43:08Z</time>
      </trkpt>
      <trkpt lat="43.43505" lon="6.00933">
        <ele>349.76718</ele>
        <time>2014-05-31T12:43:14Z</time>
      </trkpt>
      <trkpt lat="43.4351" lon="6.00905">
        <ele>353.02081</ele>
        <time>2014-05-31T12:43:29Z</time>
      </trkpt>
      <trkpt lat="43.43518" lon="6.00873">
        <ele>356.50391</ele>
        <time>2014-05-31T12:43:46Z</time>
      </trkpt>
      <trkpt lat="43.43526" lon="6.00838">
        <ele>359.52515</ele>
        <time>2014-05-31T12:44:04Z</time>
      </trkpt>
      <trkpt lat="43.43528" lon="6.00829">
        <ele>359.84161</ele>
        <time>2014-05-31T12:44:09Z</time>
      </trkpt>
      <trkpt lat="43.4353" lon="6.00823">
        <ele>359.64273</ele>
        <time>2014-05-31T12:44:12Z</time>
      </trkpt>
      <trkpt lat="43.43535" lon="6.00807">
        <ele>359.29761</ele>
        <time>2014-05-31T12:44:19Z</time>
      </trkpt>
      <trkpt lat="43.43542" lon="6.00783">
        <ele>357.49149</ele>
        <time>2014-05-31T12:44:26Z</time>
      </trkpt>
      <trkpt lat="43.43547" lon="6.00763">
        <ele>355.53775</ele>
        <time>2014-05-31T12:44:31Z</time>
      </trkpt>
      <trkpt lat="43.4355" lon="6.00753">
        <ele>354.46536</ele>
        <time>2014-05-31T12:44:33Z</time>
      </trkpt>
      <trkpt lat="43.43561" lon="6.00723">
        <ele>349.5708</ele>
        <time>2014-05-31T12:44:38Z</time>
      </trkpt>
      <trkpt lat="43.43567" lon="6.00709">
        <ele>347.67123</ele>
        <time>2014-05-31T12:44:40Z</time>
      </trkpt>
      <trkpt lat="43.43573" lon="6.00695">
        <ele>345.53088</ele>
        <time>2014-05-31T12:44:42Z</time>
      </trkpt>
      <trkpt lat="43.43576" lon="6.00688">
        <ele>344.28522</ele>
        <time>2014-05-31T12:44:43Z</time>
      </trkpt>
      <trkpt lat="43.43578" lon="6.0068">
        <ele>343.19086</ele>
        <time>2014-05-31T12:44:44Z</time>
      </trkpt>
      <trkpt lat="43.43578" lon="6.00673">
        <ele>342.30966</ele>
        <time>2014-05-31T12:44:45Z</time>
      </trkpt>
      <trkpt lat="43.43578" lon="6.00666">
        <ele>341.57828</ele>
        <time>2014-05-31T12:44:46Z</time>
      </trkpt>
      <trkpt lat="43.43575" lon="6.00659">
        <ele>341.5192</ele>
        <time>2014-05-31T12:44:47Z</time>
      </trkpt>
      <trkpt lat="43.43565" lon="6.00644">
        <ele>341.68042</ele>
        <time>2014-05-31T12:44:50Z</time>
      </trkpt>
      <trkpt lat="43.43554" lon="6.00632">
        <ele>342.47394</ele>
        <time>2014-05-31T12:44:53Z</time>
      </trkpt>
      <trkpt lat="43.43552" lon="6.00627">
        <ele>342.75717</ele>
        <time>2014-05-31T12:44:54Z</time>
      </trkpt>
      <trkpt lat="43.43555" lon="6.00609">
        <ele>343.17261</ele>
        <time>2014-05-31T12:44:57Z</time>
      </trkpt>
      <trkpt lat="43.43555" lon="6.00602">
        <ele>343.36313</ele>
        <time>2014-05-31T12:44:58Z</time>
      </trkpt>
      <trkpt lat="43.43557" lon="6.00596">
        <ele>343.36276</ele>
        <time>2014-05-31T12:44:59Z</time>
      </trkpt>
      <trkpt lat="43.43567" lon="6.00583">
        <ele>342.42212</ele>
        <time>2014-05-31T12:45:02Z</time>
      </trkpt>
      <trkpt lat="43.4357" lon="6.00578">
        <ele>341.98267</ele>
        <time>2014-05-31T12:45:03Z</time>
      </trkpt>
      <trkpt lat="43.43573" lon="6.00572">
        <ele>341.54321</ele>
        <time>2014-05-31T12:45:04Z</time>
      </trkpt>
      <trkpt lat="43.43578" lon="6.0056">
        <ele>340.8291</ele>
        <time>2014-05-31T12:45:06Z</time>
      </trkpt>
      <trkpt lat="43.43588" lon="6.00542">
        <ele>340.38818</ele>
        <time>2014-05-31T12:45:09Z</time>
      </trkpt>
      <trkpt lat="43.43597" lon="6.00531">
        <ele>340.44177</ele>
        <time>2014-05-31T12:45:11Z</time>
      </trkpt>
      <trkpt lat="43.43602" lon="6.00525">
        <ele>340.36688</ele>
        <time>2014-05-31T12:45:12Z</time>
      </trkpt>
      <trkpt lat="43.43607" lon="6.00518">
        <ele>340.22375</ele>
        <time>2014-05-31T12:45:13Z</time>
      </trkpt>
      <trkpt lat="43.43613" lon="6.005">
        <ele>340</ele>
        <time>2014-05-31T12:45:15Z</time>
      </trkpt>
      <trkpt lat="43.43618" lon="6.00481">
        <ele>340</ele>
        <time>2014-05-31T12:45:17Z</time>
      </trkpt>
      <trkpt lat="43.43619" lon="6.00471">
        <ele>340</ele>
        <time>2014-05-31T12:45:18Z</time>
      </trkpt>
      <trkpt lat="43.43621" lon="6.00453">
        <ele>340</ele>
        <time>2014-05-31T12:45:20Z</time>
      </trkpt>
      <trkpt lat="43.4362" lon="6.00437">
        <ele>340</ele>
        <time>2014-05-31T12:45:22Z</time>
      </trkpt>
      <trkpt lat="43.4362" lon="6.00421">
        <ele>340</ele>
        <time>2014-05-31T12:45:24Z</time>
      </trkpt>
      <trkpt lat="43.43612" lon="6.004">
        <ele>339.94693</ele>
        <time>2014-05-31T12:45:27Z</time>
      </trkpt>
      <trkpt lat="43.43608" lon="6.00375">
        <ele>339.74982</ele>
        <time>2014-05-31T12:45:30Z</time>
      </trkpt>
      <trkpt lat="43.43611" lon="6.00359">
        <ele>338.95801</ele>
        <time>2014-05-31T12:45:32Z</time>
      </trkpt>
      <trkpt lat="43.43613" lon="6.00352">
        <ele>338.48691</ele>
        <time>2014-05-31T12:45:33Z</time>
      </trkpt>
      <trkpt lat="43.43619" lon="6.00339">
        <ele>337.58807</ele>
        <time>2014-05-31T12:45:35Z</time>
      </trkpt>
      <trkpt lat="43.43629" lon="6.0032">
        <ele>336.51392</ele>
        <time>2014-05-31T12:45:38Z</time>
      </trkpt>
      <trkpt lat="43.43639" lon="6.00309">
        <ele>336.01108</ele>
        <time>2014-05-31T12:45:40Z</time>
      </trkpt>
      <trkpt lat="43.43648" lon="6.00298">
        <ele>335.66669</ele>
        <time>2014-05-31T12:45:42Z</time>
      </trkpt>
      <trkpt lat="43.43652" lon="6.00293">
        <ele>335.52936</ele>
        <time>2014-05-31T12:45:43Z</time>
      </trkpt>
      <trkpt lat="43.43655" lon="6.00289">
        <ele>335.43323</ele>
        <time>2014-05-31T12:45:44Z</time>
      </trkpt>
      <trkpt lat="43.4366" lon="6.00279">
        <ele>335.2547</ele>
        <time>2014-05-31T12:45:46Z</time>
      </trkpt>
      <trkpt lat="43.43668" lon="6.00265">
        <ele>335.39789</ele>
        <time>2014-05-31T12:45:49Z</time>
      </trkpt>
      <trkpt lat="43.43676" lon="6.00257">
        <ele>335.41162</ele>
        <time>2014-05-31T12:45:52Z</time>
      </trkpt>
      <trkpt lat="43.43678" lon="6.00256">
        <ele>335.37732</ele>
        <time>2014-05-31T12:45:56Z</time>
      </trkpt>
      <trkpt lat="43.43678" lon="6.00256">
        <ele>335.37732</ele>
        <time>2014-05-31T12:46:17Z</time>
      </trkpt>
      <trkpt lat="43.43678" lon="6.00256">
        <ele>335.38074</ele>
        <time>2014-05-31T12:46:41Z</time>
      </trkpt>
      <trkpt lat="43.43679" lon="6.00257">
        <ele>335.30865</ele>
        <time>2014-05-31T12:46:48Z</time>
      </trkpt>
      <trkpt lat="43.43693" lon="6.00265">
        <ele>334.50183</ele>
        <time>2014-05-31T12:46:56Z</time>
      </trkpt>
      <trkpt lat="43.43711" lon="6.00265">
        <ele>333.85297</ele>
        <time>2014-05-31T12:47:02Z</time>
      </trkpt>
      <trkpt lat="43.43728" lon="6.00261">
        <ele>333.38776</ele>
        <time>2014-05-31T12:47:08Z</time>
      </trkpt>
      <trkpt lat="43.43735" lon="6.0026">
        <ele>333.17661</ele>
        <time>2014-05-31T12:47:11Z</time>
      </trkpt>
      <trkpt lat="43.43739" lon="6.00262">
        <ele>332.94315</ele>
        <time>2014-05-31T12:47:13Z</time>
      </trkpt>
      <trkpt lat="43.43744" lon="6.0027">
        <ele>332.46936</ele>
        <time>2014-05-31T12:47:16Z</time>
      </trkpt>
      <trkpt lat="43.4375" lon="6.003">
        <ele>331.18018</ele>
        <time>2014-05-31T12:47:24Z</time>
      </trkpt>
      <trkpt lat="43.43754" lon="6.00334">
        <ele>329.80261</ele>
        <time>2014-05-31T12:47:31Z</time>
      </trkpt>
      <trkpt lat="43.43752" lon="6.00352">
        <ele>328.62158</ele>
        <time>2014-05-31T12:47:34Z</time>
      </trkpt>
      <trkpt lat="43.43753" lon="6.00385">
        <ele>326.97256</ele>
        <time>2014-05-31T12:47:39Z</time>
      </trkpt>
      <trkpt lat="43.43758" lon="6.0041">
        <ele>326.20618</ele>
        <time>2014-05-31T12:47:43Z</time>
      </trkpt>
      <trkpt lat="43.43758" lon="6.00417">
        <ele>326.13589</ele>
        <time>2014-05-31T12:47:44Z</time>
      </trkpt>
      <trkpt lat="43.43761" lon="6.00437">
        <ele>325.0965</ele>
        <time>2014-05-31T12:47:47Z</time>
      </trkpt>
      <trkpt lat="43.43771" lon="6.0047">
        <ele>320.88452</ele>
        <time>2014-05-31T12:47:52Z</time>
      </trkpt>
      <trkpt lat="43.43774" lon="6.00483">
        <ele>320.44568</ele>
        <time>2014-05-31T12:47:54Z</time>
      </trkpt>
      <trkpt lat="43.43779" lon="6.00504">
        <ele>320.10458</ele>
        <time>2014-05-31T12:47:57Z</time>
      </trkpt>
      <trkpt lat="43.43785" lon="6.00515">
        <ele>320.50299</ele>
        <time>2014-05-31T12:47:59Z</time>
      </trkpt>
      <trkpt lat="43.43795" lon="6.0052">
        <ele>320.68503</ele>
        <time>2014-05-31T12:48:01Z</time>
      </trkpt>
      <trkpt lat="43.438" lon="6.00524">
        <ele>320.47046</ele>
        <time>2014-05-31T12:48:02Z</time>
      </trkpt>
      <trkpt lat="43.43808" lon="6.00533">
        <ele>320.94144</ele>
        <time>2014-05-31T12:48:04Z</time>
      </trkpt>
      <trkpt lat="43.43811" lon="6.00538">
        <ele>321.79749</ele>
        <time>2014-05-31T12:48:05Z</time>
      </trkpt>
      <trkpt lat="43.43815" lon="6.00558">
        <ele>321.94077</ele>
        <time>2014-05-31T12:48:08Z</time>
      </trkpt>
      <trkpt lat="43.43818" lon="6.00577">
        <ele>322.04102</ele>
        <time>2014-05-31T12:48:11Z</time>
      </trkpt>
      <trkpt lat="43.43829" lon="6.006">
        <ele>321.33725</ele>
        <time>2014-05-31T12:48:16Z</time>
      </trkpt>
      <trkpt lat="43.43841" lon="6.00619">
        <ele>320.81659</ele>
        <time>2014-05-31T12:48:21Z</time>
      </trkpt>
      <trkpt lat="43.43842" lon="6.00623">
        <ele>320.73822</ele>
        <time>2014-05-31T12:48:22Z</time>
      </trkpt>
      <trkpt lat="43.43843" lon="6.00627">
        <ele>320.59134</ele>
        <time>2014-05-31T12:48:23Z</time>
      </trkpt>
      <trkpt lat="43.4384" lon="6.00642">
        <ele>320</ele>
        <time>2014-05-31T12:48:28Z</time>
      </trkpt>
      <trkpt lat="43.43839" lon="6.00648">
        <ele>320</ele>
        <time>2014-05-31T12:48:30Z</time>
      </trkpt>
      <trkpt lat="43.43837" lon="6.00651">
        <ele>320</ele>
        <time>2014-05-31T12:48:31Z</time>
      </trkpt>
      <trkpt lat="43.43836" lon="6.00657">
        <ele>320</ele>
        <time>2014-05-31T12:48:33Z</time>
      </trkpt>
      <trkpt lat="43.43835" lon="6.00663">
        <ele>320</ele>
        <time>2014-05-31T12:48:35Z</time>
      </trkpt>
      <trkpt lat="43.43834" lon="6.00666">
        <ele>320</ele>
        <time>2014-05-31T12:48:36Z</time>
      </trkpt>
      <trkpt lat="43.43834" lon="6.0067">
        <ele>319.78375</ele>
        <time>2014-05-31T12:48:37Z</time>
      </trkpt>
      <trkpt lat="43.43833" lon="6.00673">
        <ele>319.54205</ele>
        <time>2014-05-31T12:48:38Z</time>
      </trkpt>
      <trkpt lat="43.43831" lon="6.00692">
        <ele>318.16586</ele>
        <time>2014-05-31T12:48:42Z</time>
      </trkpt>
      <trkpt lat="43.4383" lon="6.00705">
        <ele>317.62329</ele>
        <time>2014-05-31T12:48:44Z</time>
      </trkpt>
      <trkpt lat="43.43829" lon="6.00719">
        <ele>317.10144</ele>
        <time>2014-05-31T12:48:46Z</time>
      </trkpt>
      <trkpt lat="43.43829" lon="6.00734">
        <ele>316.56244</ele>
        <time>2014-05-31T12:48:48Z</time>
      </trkpt>
      <trkpt lat="43.43829" lon="6.00742">
        <ele>316.2912</ele>
        <time>2014-05-31T12:48:49Z</time>
      </trkpt>
      <trkpt lat="43.43829" lon="6.0075">
        <ele>316.01312</ele>
        <time>2014-05-31T12:48:50Z</time>
      </trkpt>
      <trkpt lat="43.43829" lon="6.00758">
        <ele>315.76276</ele>
        <time>2014-05-31T12:48:51Z</time>
      </trkpt>
      <trkpt lat="43.4383" lon="6.00767">
        <ele>315.48114</ele>
        <time>2014-05-31T12:48:52Z</time>
      </trkpt>
      <trkpt lat="43.4383" lon="6.00775">
        <ele>315.1983</ele>
        <time>2014-05-31T12:48:53Z</time>
      </trkpt>
      <trkpt lat="43.43829" lon="6.00792">
        <ele>314.61688</ele>
        <time>2014-05-31T12:48:55Z</time>
      </trkpt>
      <trkpt lat="43.43828" lon="6.00801">
        <ele>314.3714</ele>
        <time>2014-05-31T12:48:56Z</time>
      </trkpt>
      <trkpt lat="43.43824" lon="6.00816">
        <ele>314.09152</ele>
        <time>2014-05-31T12:48:58Z</time>
      </trkpt>
      <trkpt lat="43.4382" lon="6.00829">
        <ele>314.04535</ele>
        <time>2014-05-31T12:49:00Z</time>
      </trkpt>
      <trkpt lat="43.43816" lon="6.0084">
        <ele>313.99652</ele>
        <time>2014-05-31T12:49:02Z</time>
      </trkpt>
      <trkpt lat="43.43812" lon="6.00857">
        <ele>313.70984</ele>
        <time>2014-05-31T12:49:05Z</time>
      </trkpt>
      <trkpt lat="43.4381" lon="6.00868">
        <ele>313.83066</ele>
        <time>2014-05-31T12:49:07Z</time>
      </trkpt>
      <trkpt lat="43.4381" lon="6.00874">
        <ele>314.01282</ele>
        <time>2014-05-31T12:49:08Z</time>
      </trkpt>
      <trkpt lat="43.43813" lon="6.00901">
        <ele>314.33392</ele>
        <time>2014-05-31T12:49:12Z</time>
      </trkpt>
      <trkpt lat="43.43815" lon="6.0091">
        <ele>314.3511</ele>
        <time>2014-05-31T12:49:13Z</time>
      </trkpt>
      <trkpt lat="43.4382" lon="6.00926">
        <ele>314.46338</ele>
        <time>2014-05-31T12:49:15Z</time>
      </trkpt>
      <trkpt lat="43.43822" lon="6.00935">
        <ele>314.54156</ele>
        <time>2014-05-31T12:49:16Z</time>
      </trkpt>
      <trkpt lat="43.43824" lon="6.00944">
        <ele>314.56857</ele>
        <time>2014-05-31T12:49:17Z</time>
      </trkpt>
      <trkpt lat="43.43826" lon="6.00953">
        <ele>313.97086</ele>
        <time>2014-05-31T12:49:18Z</time>
      </trkpt>
      <trkpt lat="43.43828" lon="6.00962">
        <ele>313.35632</ele>
        <time>2014-05-31T12:49:19Z</time>
      </trkpt>
      <trkpt lat="43.43829" lon="6.00972">
        <ele>312.7229</ele>
        <time>2014-05-31T12:49:20Z</time>
      </trkpt>
      <trkpt lat="43.4383" lon="6.00982">
        <ele>312.58044</ele>
        <time>2014-05-31T12:49:21Z</time>
      </trkpt>
      <trkpt lat="43.4383" lon="6.00993">
        <ele>312.64911</ele>
        <time>2014-05-31T12:49:22Z</time>
      </trkpt>
      <trkpt lat="43.43829" lon="6.01002">
        <ele>312.84027</ele>
        <time>2014-05-31T12:49:23Z</time>
      </trkpt>
      <trkpt lat="43.43827" lon="6.01011">
        <ele>313.10153</ele>
        <time>2014-05-31T12:49:24Z</time>
      </trkpt>
      <trkpt lat="43.43825" lon="6.01019">
        <ele>313.3287</ele>
        <time>2014-05-31T12:49:25Z</time>
      </trkpt>
      <trkpt lat="43.43822" lon="6.01026">
        <ele>313.58383</ele>
        <time>2014-05-31T12:49:26Z</time>
      </trkpt>
      <trkpt lat="43.4382" lon="6.01033">
        <ele>313.94751</ele>
        <time>2014-05-31T12:49:27Z</time>
      </trkpt>
      <trkpt lat="43.43811" lon="6.01056">
        <ele>315.13922</ele>
        <time>2014-05-31T12:49:31Z</time>
      </trkpt>
      <trkpt lat="43.43804" lon="6.01077">
        <ele>315.41034</ele>
        <time>2014-05-31T12:49:35Z</time>
      </trkpt>
      <trkpt lat="43.438" lon="6.01088">
        <ele>315.58618</ele>
        <time>2014-05-31T12:49:37Z</time>
      </trkpt>
      <trkpt lat="43.43785" lon="6.01128">
        <ele>316.28656</ele>
        <time>2014-05-31T12:49:45Z</time>
      </trkpt>
      <trkpt lat="43.43771" lon="6.01169">
        <ele>316.42548</ele>
        <time>2014-05-31T12:49:52Z</time>
      </trkpt>
      <trkpt lat="43.43769" lon="6.01175">
        <ele>316.32077</ele>
        <time>2014-05-31T12:49:53Z</time>
      </trkpt>
      <trkpt lat="43.43764" lon="6.012">
        <ele>315.81607</ele>
        <time>2014-05-31T12:49:57Z</time>
      </trkpt>
      <trkpt lat="43.43763" lon="6.01208">
        <ele>315.59119</ele>
        <time>2014-05-31T12:49:58Z</time>
      </trkpt>
      <trkpt lat="43.43764" lon="6.01237">
        <ele>314.21512</ele>
        <time>2014-05-31T12:50:01Z</time>
      </trkpt>
      <trkpt lat="43.43766" lon="6.01247">
        <ele>313.61554</ele>
        <time>2014-05-31T12:50:02Z</time>
      </trkpt>
      <trkpt lat="43.43769" lon="6.01266">
        <ele>312.74585</ele>
        <time>2014-05-31T12:50:04Z</time>
      </trkpt>
      <trkpt lat="43.43771" lon="6.01275">
        <ele>312.33041</ele>
        <time>2014-05-31T12:50:05Z</time>
      </trkpt>
      <trkpt lat="43.43776" lon="6.01294">
        <ele>311.48071</ele>
        <time>2014-05-31T12:50:07Z</time>
      </trkpt>
      <trkpt lat="43.43778" lon="6.01304">
        <ele>311.04965</ele>
        <time>2014-05-31T12:50:08Z</time>
      </trkpt>
      <trkpt lat="43.43779" lon="6.01314">
        <ele>310.13864</ele>
        <time>2014-05-31T12:50:09Z</time>
      </trkpt>
      <trkpt lat="43.43781" lon="6.01331">
        <ele>308.45978</ele>
        <time>2014-05-31T12:50:11Z</time>
      </trkpt>
      <trkpt lat="43.43782" lon="6.01348">
        <ele>307.73691</ele>
        <time>2014-05-31T12:50:13Z</time>
      </trkpt>
      <trkpt lat="43.43784" lon="6.01381">
        <ele>305.97562</ele>
        <time>2014-05-31T12:50:17Z</time>
      </trkpt>
      <trkpt lat="43.43786" lon="6.01425">
        <ele>304.05093</ele>
        <time>2014-05-31T12:50:22Z</time>
      </trkpt>
      <trkpt lat="43.43787" lon="6.01469">
        <ele>302.69388</ele>
        <time>2014-05-31T12:50:28Z</time>
      </trkpt>
      <trkpt lat="43.43787" lon="6.01477">
        <ele>302.51422</ele>
        <time>2014-05-31T12:50:29Z</time>
      </trkpt>
      <trkpt lat="43.4378" lon="6.01535">
        <ele>301.5094</ele>
        <time>2014-05-31T12:50:36Z</time>
      </trkpt>
      <trkpt lat="43.43775" lon="6.01555">
        <ele>301.10284</ele>
        <time>2014-05-31T12:50:39Z</time>
      </trkpt>
      <trkpt lat="43.43766" lon="6.01591">
        <ele>300.1604</ele>
        <time>2014-05-31T12:50:45Z</time>
      </trkpt>
      <trkpt lat="43.43756" lon="6.01626">
        <ele>298.80676</ele>
        <time>2014-05-31T12:50:51Z</time>
      </trkpt>
      <trkpt lat="43.43747" lon="6.01659">
        <ele>298</ele>
        <time>2014-05-31T12:50:58Z</time>
      </trkpt>
      <trkpt lat="43.43745" lon="6.01677">
        <ele>298.06848</ele>
        <time>2014-05-31T12:51:03Z</time>
      </trkpt>
      <trkpt lat="43.43745" lon="6.01682">
        <ele>298.10709</ele>
        <time>2014-05-31T12:51:05Z</time>
      </trkpt>
      <trkpt lat="43.43745" lon="6.01684">
        <ele>298.10895</ele>
        <time>2014-05-31T12:51:07Z</time>
      </trkpt>
      <trkpt lat="43.43745" lon="6.01684">
        <ele>298.10895</ele>
        <time>2014-05-31T12:51:27Z</time>
      </trkpt>
      <trkpt lat="43.43745" lon="6.01684">
        <ele>298.10895</ele>
        <time>2014-05-31T12:51:43Z</time>
      </trkpt>
      <trkpt lat="43.43746" lon="6.01685">
        <ele>298.09229</ele>
        <time>2014-05-31T12:51:48Z</time>
      </trkpt>
      <trkpt lat="43.43748" lon="6.01687">
        <ele>298.03937</ele>
        <time>2014-05-31T12:51:57Z</time>
      </trkpt>
      <trkpt lat="43.43764" lon="6.01693">
        <ele>297.51315</ele>
        <time>2014-05-31T12:52:03Z</time>
      </trkpt>
      <trkpt lat="43.43776" lon="6.01697">
        <ele>297.14624</ele>
        <time>2014-05-31T12:52:06Z</time>
      </trkpt>
      <trkpt lat="43.43786" lon="6.01699">
        <ele>296.81467</ele>
        <time>2014-05-31T12:52:08Z</time>
      </trkpt>
      <trkpt lat="43.43792" lon="6.017">
        <ele>296.59546</ele>
        <time>2014-05-31T12:52:09Z</time>
      </trkpt>
      <trkpt lat="43.43802" lon="6.01698">
        <ele>296.14706</ele>
        <time>2014-05-31T12:52:11Z</time>
      </trkpt>
      <trkpt lat="43.43813" lon="6.01694">
        <ele>295.22122</ele>
        <time>2014-05-31T12:52:13Z</time>
      </trkpt>
      <trkpt lat="43.43818" lon="6.01691">
        <ele>294.74057</ele>
        <time>2014-05-31T12:52:14Z</time>
      </trkpt>
      <trkpt lat="43.43823" lon="6.01688">
        <ele>294.35089</ele>
        <time>2014-05-31T12:52:15Z</time>
      </trkpt>
      <trkpt lat="43.43828" lon="6.01686">
        <ele>293.90115</ele>
        <time>2014-05-31T12:52:16Z</time>
      </trkpt>
      <trkpt lat="43.4385" lon="6.01671">
        <ele>293.84128</ele>
        <time>2014-05-31T12:52:21Z</time>
      </trkpt>
      <trkpt lat="43.43858" lon="6.01662">
        <ele>294</ele>
        <time>2014-05-31T12:52:23Z</time>
      </trkpt>
      <trkpt lat="43.43862" lon="6.0166">
        <ele>294</ele>
        <time>2014-05-31T12:52:24Z</time>
      </trkpt>
      <trkpt lat="43.43865" lon="6.01661">
        <ele>294</ele>
        <time>2014-05-31T12:52:25Z</time>
      </trkpt>
      <trkpt lat="43.43869" lon="6.01676">
        <ele>293.76981</ele>
        <time>2014-05-31T12:52:28Z</time>
      </trkpt>
      <trkpt lat="43.43868" lon="6.01681">
        <ele>293.62198</ele>
        <time>2014-05-31T12:52:29Z</time>
      </trkpt>
      <trkpt lat="43.43868" lon="6.01693">
        <ele>293.28513</ele>
        <time>2014-05-31T12:52:31Z</time>
      </trkpt>
      <trkpt lat="43.43867" lon="6.01699">
        <ele>293.18875</ele>
        <time>2014-05-31T12:52:32Z</time>
      </trkpt>
      <trkpt lat="43.43869" lon="6.01706">
        <ele>293.16028</ele>
        <time>2014-05-31T12:52:33Z</time>
      </trkpt>
      <trkpt lat="43.43879" lon="6.01741">
        <ele>292.75867</ele>
        <time>2014-05-31T12:52:38Z</time>
      </trkpt>
      <trkpt lat="43.43881" lon="6.01749">
        <ele>292.73697</ele>
        <time>2014-05-31T12:52:39Z</time>
      </trkpt>
      <trkpt lat="43.43882" lon="6.01757">
        <ele>292.76532</ele>
        <time>2014-05-31T12:52:40Z</time>
      </trkpt>
      <trkpt lat="43.43883" lon="6.01766">
        <ele>292.77905</ele>
        <time>2014-05-31T12:52:41Z</time>
      </trkpt>
      <trkpt lat="43.43882" lon="6.01776">
        <ele>292.76532</ele>
        <time>2014-05-31T12:52:42Z</time>
      </trkpt>
      <trkpt lat="43.43882" lon="6.01786">
        <ele>292.47125</ele>
        <time>2014-05-31T12:52:43Z</time>
      </trkpt>
      <trkpt lat="43.43881" lon="6.01795">
        <ele>292.09189</ele>
        <time>2014-05-31T12:52:44Z</time>
      </trkpt>
      <trkpt lat="43.43879" lon="6.01805">
        <ele>291.69193</ele>
        <time>2014-05-31T12:52:45Z</time>
      </trkpt>
      <trkpt lat="43.43878" lon="6.01815">
        <ele>291.61426</ele>
        <time>2014-05-31T12:52:46Z</time>
      </trkpt>
      <trkpt lat="43.43877" lon="6.01826">
        <ele>291.58679</ele>
        <time>2014-05-31T12:52:47Z</time>
      </trkpt>
      <trkpt lat="43.43876" lon="6.01837">
        <ele>291.43021</ele>
        <time>2014-05-31T12:52:48Z</time>
      </trkpt>
      <trkpt lat="43.43875" lon="6.01848">
        <ele>290.9736</ele>
        <time>2014-05-31T12:52:49Z</time>
      </trkpt>
      <trkpt lat="43.43874" lon="6.01859">
        <ele>290.53757</ele>
        <time>2014-05-31T12:52:50Z</time>
      </trkpt>
      <trkpt lat="43.43872" lon="6.01869">
        <ele>290.3808</ele>
        <time>2014-05-31T12:52:51Z</time>
      </trkpt>
      <trkpt lat="43.43866" lon="6.01897">
        <ele>290.18854</ele>
        <time>2014-05-31T12:52:54Z</time>
      </trkpt>
      <trkpt lat="43.43861" lon="6.01921">
        <ele>289.83075</ele>
        <time>2014-05-31T12:52:57Z</time>
      </trkpt>
      <trkpt lat="43.43855" lon="6.01936">
        <ele>289.32092</ele>
        <time>2014-05-31T12:52:59Z</time>
      </trkpt>
      <trkpt lat="43.43837" lon="6.01973">
        <ele>288.9751</ele>
        <time>2014-05-31T12:53:05Z</time>
      </trkpt>
      <trkpt lat="43.43836" lon="6.01979">
        <ele>288.75708</ele>
        <time>2014-05-31T12:53:06Z</time>
      </trkpt>
      <trkpt lat="43.43835" lon="6.02">
        <ele>288</ele>
        <time>2014-05-31T12:53:09Z</time>
      </trkpt>
      <trkpt lat="43.43831" lon="6.02037">
        <ele>287.81088</ele>
        <time>2014-05-31T12:53:14Z</time>
      </trkpt>
      <trkpt lat="43.43829" lon="6.02051">
        <ele>287.43494</ele>
        <time>2014-05-31T12:53:16Z</time>
      </trkpt>
      <trkpt lat="43.43824" lon="6.02062">
        <ele>287.67163</ele>
        <time>2014-05-31T12:53:18Z</time>
      </trkpt>
      <trkpt lat="43.43816" lon="6.02083">
        <ele>288.24841</ele>
        <time>2014-05-31T12:53:22Z</time>
      </trkpt>
      <trkpt lat="43.43812" lon="6.02109">
        <ele>287.62128</ele>
        <time>2014-05-31T12:53:26Z</time>
      </trkpt>
      <trkpt lat="43.43801" lon="6.02127">
        <ele>288.58423</ele>
        <time>2014-05-31T12:53:29Z</time>
      </trkpt>
      <trkpt lat="43.43784" lon="6.02148">
        <ele>290.72614</ele>
        <time>2014-05-31T12:53:33Z</time>
      </trkpt>
      <trkpt lat="43.43781" lon="6.02154">
        <ele>290.95959</ele>
        <time>2014-05-31T12:53:34Z</time>
      </trkpt>
      <trkpt lat="43.43776" lon="6.02165">
        <ele>291.37848</ele>
        <time>2014-05-31T12:53:36Z</time>
      </trkpt>
      <trkpt lat="43.43773" lon="6.02171">
        <ele>291.73276</ele>
        <time>2014-05-31T12:53:37Z</time>
      </trkpt>
      <trkpt lat="43.43768" lon="6.02181">
        <ele>292.28052</ele>
        <time>2014-05-31T12:53:39Z</time>
      </trkpt>
      <trkpt lat="43.43764" lon="6.02226">
        <ele>292.02246</ele>
        <time>2014-05-31T12:53:45Z</time>
      </trkpt>
      <trkpt lat="43.43763" lon="6.02232">
        <ele>292.07739</ele>
        <time>2014-05-31T12:53:46Z</time>
      </trkpt>
      <trkpt lat="43.4376" lon="6.02244">
        <ele>292.51685</ele>
        <time>2014-05-31T12:53:49Z</time>
      </trkpt>
      <trkpt lat="43.43753" lon="6.02262">
        <ele>293.17416</ele>
        <time>2014-05-31T12:53:54Z</time>
      </trkpt>
      <trkpt lat="43.43749" lon="6.02274">
        <ele>293.4274</ele>
        <time>2014-05-31T12:53:57Z</time>
      </trkpt>
      <trkpt lat="43.43747" lon="6.02277">
        <ele>293.71088</ele>
        <time>2014-05-31T12:53:58Z</time>
      </trkpt>
      <trkpt lat="43.43739" lon="6.02294">
        <ele>296.12192</ele>
        <time>2014-05-31T12:54:04Z</time>
      </trkpt>
      <trkpt lat="43.43735" lon="6.02299">
        <ele>297.26721</ele>
        <time>2014-05-31T12:54:06Z</time>
      </trkpt>
      <trkpt lat="43.43732" lon="6.02305">
        <ele>298.04178</ele>
        <time>2014-05-31T12:54:08Z</time>
      </trkpt>
      <trkpt lat="43.43726" lon="6.02319">
        <ele>299.73834</ele>
        <time>2014-05-31T12:54:13Z</time>
      </trkpt>
      <trkpt lat="43.43724" lon="6.02323">
        <ele>300.31036</ele>
        <time>2014-05-31T12:54:15Z</time>
      </trkpt>
      <trkpt lat="43.43724" lon="6.02324">
        <ele>300.42651</ele>
        <time>2014-05-31T12:54:16Z</time>
      </trkpt>
      <trkpt lat="43.4372" lon="6.02327">
        <ele>301.34061</ele>
        <time>2014-05-31T12:54:19Z</time>
      </trkpt>
      <trkpt lat="43.43718" lon="6.02329">
        <ele>301.6796</ele>
        <time>2014-05-31T12:54:21Z</time>
      </trkpt>
      <trkpt lat="43.43717" lon="6.02331">
        <ele>301.89163</ele>
        <time>2014-05-31T12:54:22Z</time>
      </trkpt>
      <trkpt lat="43.43716" lon="6.02332">
        <ele>302.03549</ele>
        <time>2014-05-31T12:54:23Z</time>
      </trkpt>
      <trkpt lat="43.43716" lon="6.02334">
        <ele>302.10678</ele>
        <time>2014-05-31T12:54:24Z</time>
      </trkpt>
      <trkpt lat="43.43713" lon="6.02345">
        <ele>302.52454</ele>
        <time>2014-05-31T12:54:29Z</time>
      </trkpt>
      <trkpt lat="43.43715" lon="6.02355">
        <ele>302.16769</ele>
        <time>2014-05-31T12:54:34Z</time>
      </trkpt>
      <trkpt lat="43.43723" lon="6.02356">
        <ele>300.75531</ele>
        <time>2014-05-31T12:54:37Z</time>
      </trkpt>
      <trkpt lat="43.43728" lon="6.02364">
        <ele>298.74994</ele>
        <time>2014-05-31T12:54:40Z</time>
      </trkpt>
      <trkpt lat="43.43731" lon="6.02372">
        <ele>297.46469</ele>
        <time>2014-05-31T12:54:42Z</time>
      </trkpt>
      <trkpt lat="43.43736" lon="6.02384">
        <ele>295.7868</ele>
        <time>2014-05-31T12:54:45Z</time>
      </trkpt>
      <trkpt lat="43.43739" lon="6.02389">
        <ele>294.58884</ele>
        <time>2014-05-31T12:54:46Z</time>
      </trkpt>
      <trkpt lat="43.43745" lon="6.02396">
        <ele>292.18448</ele>
        <time>2014-05-31T12:54:49Z</time>
      </trkpt>
      <trkpt lat="43.43748" lon="6.02398">
        <ele>291.36743</ele>
        <time>2014-05-31T12:54:50Z</time>
      </trkpt>
      <trkpt lat="43.43752" lon="6.0241">
        <ele>290.00372</ele>
        <time>2014-05-31T12:54:53Z</time>
      </trkpt>
      <trkpt lat="43.43753" lon="6.02413">
        <ele>289.69647</ele>
        <time>2014-05-31T12:54:54Z</time>
      </trkpt>
      <trkpt lat="43.43757" lon="6.02419">
        <ele>288.9563</ele>
        <time>2014-05-31T12:54:57Z</time>
      </trkpt>
      <trkpt lat="43.43764" lon="6.02431">
        <ele>287.96753</ele>
        <time>2014-05-31T12:55:01Z</time>
      </trkpt>
      <trkpt lat="43.43763" lon="6.02435">
        <ele>288.13232</ele>
        <time>2014-05-31T12:55:02Z</time>
      </trkpt>
      <trkpt lat="43.43761" lon="6.02437">
        <ele>288.40698</ele>
        <time>2014-05-31T12:55:03Z</time>
      </trkpt>
      <trkpt lat="43.43757" lon="6.02439">
        <ele>288.9563</ele>
        <time>2014-05-31T12:55:05Z</time>
      </trkpt>
      <trkpt lat="43.43757" lon="6.02442">
        <ele>288.9563</ele>
        <time>2014-05-31T12:55:06Z</time>
      </trkpt>
      <trkpt lat="43.43757" lon="6.02446">
        <ele>289.01123</ele>
        <time>2014-05-31T12:55:08Z</time>
      </trkpt>
      <trkpt lat="43.4376" lon="6.02454">
        <ele>288.57178</ele>
        <time>2014-05-31T12:55:11Z</time>
      </trkpt>
      <trkpt lat="43.43764" lon="6.02463">
        <ele>287.9126</ele>
        <time>2014-05-31T12:55:14Z</time>
      </trkpt>
      <trkpt lat="43.43767" lon="6.02466">
        <ele>287.52808</ele>
        <time>2014-05-31T12:55:16Z</time>
      </trkpt>
      <trkpt lat="43.43774" lon="6.0247">
        <ele>286.48438</ele>
        <time>2014-05-31T12:55:22Z</time>
      </trkpt>
      <trkpt lat="43.43776" lon="6.02473">
        <ele>286.28366</ele>
        <time>2014-05-31T12:55:26Z</time>
      </trkpt>
      <trkpt lat="43.43775" lon="6.02473">
        <ele>286.33914</ele>
        <time>2014-05-31T12:55:27Z</time>
      </trkpt>
      <trkpt lat="43.43773" lon="6.02473">
        <ele>286.63516</ele>
        <time>2014-05-31T12:55:29Z</time>
      </trkpt>
      <trkpt lat="43.43773" lon="6.02473">
        <ele>286.61359</ele>
        <time>2014-05-31T12:55:30Z</time>
      </trkpt>
      <trkpt lat="43.43771" lon="6.02472">
        <ele>286.9202</ele>
        <time>2014-05-31T12:55:33Z</time>
      </trkpt>
      <trkpt lat="43.4377" lon="6.02473">
        <ele>287.07144</ele>
        <time>2014-05-31T12:55:42Z</time>
      </trkpt>
      <trkpt lat="43.4377" lon="6.02473">
        <ele>287.07144</ele>
        <time>2014-05-31T12:55:46Z</time>
      </trkpt>
      <trkpt lat="43.4377" lon="6.02473">
        <ele>287.07144</ele>
        <time>2014-05-31T12:55:51Z</time>
      </trkpt>
      <trkpt lat="43.43775" lon="6.02479">
        <ele>286.14777</ele>
        <time>2014-05-31T12:55:57Z</time>
      </trkpt>
      <trkpt lat="43.43776" lon="6.02482">
        <ele>285.94446</ele>
        <time>2014-05-31T12:55:58Z</time>
      </trkpt>
      <trkpt lat="43.43781" lon="6.02485">
        <ele>285.00784</ele>
        <time>2014-05-31T12:56:01Z</time>
      </trkpt>
      <trkpt lat="43.43781" lon="6.02485">
        <ele>285.00784</ele>
        <time>2014-05-31T12:56:02Z</time>
      </trkpt>
      <trkpt lat="43.43785" lon="6.02492">
        <ele>283.97021</ele>
        <time>2014-05-31T12:56:09Z</time>
      </trkpt>
      <trkpt lat="43.43786" lon="6.02495">
        <ele>283.61389</ele>
        <time>2014-05-31T12:56:10Z</time>
      </trkpt>
      <trkpt lat="43.4379" lon="6.02506">
        <ele>282.83014</ele>
        <time>2014-05-31T12:56:15Z</time>
      </trkpt>
      <trkpt lat="43.43791" lon="6.02513">
        <ele>282.909</ele>
        <time>2014-05-31T12:56:18Z</time>
      </trkpt>
      <trkpt lat="43.43787" lon="6.02525">
        <ele>283.95203</ele>
        <time>2014-05-31T12:56:23Z</time>
      </trkpt>
      <trkpt lat="43.43785" lon="6.02532">
        <ele>284.61987</ele>
        <time>2014-05-31T12:56:26Z</time>
      </trkpt>
      <trkpt lat="43.43785" lon="6.02541">
        <ele>284.87103</ele>
        <time>2014-05-31T12:56:30Z</time>
      </trkpt>
      <trkpt lat="43.43786" lon="6.02564">
        <ele>284.66455</ele>
        <time>2014-05-31T12:56:36Z</time>
      </trkpt>
      <trkpt lat="43.43788" lon="6.02586">
        <ele>283.77277</ele>
        <time>2014-05-31T12:56:42Z</time>
      </trkpt>
      <trkpt lat="43.43789" lon="6.02608">
        <ele>282.98581</ele>
        <time>2014-05-31T12:56:48Z</time>
      </trkpt>
      <trkpt lat="43.43785" lon="6.02629">
        <ele>282.69839</ele>
        <time>2014-05-31T12:56:54Z</time>
      </trkpt>
      <trkpt lat="43.43783" lon="6.02647">
        <ele>282.18973</ele>
        <time>2014-05-31T12:56:59Z</time>
      </trkpt>
      <trkpt lat="43.43784" lon="6.02651">
        <ele>281.99088</ele>
        <time>2014-05-31T12:57:00Z</time>
      </trkpt>
      <trkpt lat="43.43785" lon="6.02667">
        <ele>281.45425</ele>
        <time>2014-05-31T12:57:04Z</time>
      </trkpt>
      <trkpt lat="43.43786" lon="6.02674">
        <ele>281.24298</ele>
        <time>2014-05-31T12:57:06Z</time>
      </trkpt>
      <trkpt lat="43.43787" lon="6.02679">
        <ele>281.01868</ele>
        <time>2014-05-31T12:57:08Z</time>
      </trkpt>
      <trkpt lat="43.43784" lon="6.02686">
        <ele>281.00613</ele>
        <time>2014-05-31T12:57:11Z</time>
      </trkpt>
      <trkpt lat="43.43778" lon="6.02696">
        <ele>280.91214</ele>
        <time>2014-05-31T12:57:15Z</time>
      </trkpt>
      <trkpt lat="43.43777" lon="6.02698">
        <ele>281.0239</ele>
        <time>2014-05-31T12:57:16Z</time>
      </trkpt>
      <trkpt lat="43.43769" lon="6.02701">
        <ele>281.97253</ele>
        <time>2014-05-31T12:57:20Z</time>
      </trkpt>
      <trkpt lat="43.43766" lon="6.02708">
        <ele>281.974</ele>
        <time>2014-05-31T12:57:23Z</time>
      </trkpt>
      <trkpt lat="43.43771" lon="6.02715">
        <ele>281.07196</ele>
        <time>2014-05-31T12:57:26Z</time>
      </trkpt>
      <trkpt lat="43.43781" lon="6.0272">
        <ele>280.07639</ele>
        <time>2014-05-31T12:57:30Z</time>
      </trkpt>
      <trkpt lat="43.43784" lon="6.02726">
        <ele>280</ele>
        <time>2014-05-31T12:57:32Z</time>
      </trkpt>
      <trkpt lat="43.43784" lon="6.02729">
        <ele>280</ele>
        <time>2014-05-31T12:57:33Z</time>
      </trkpt>
      <trkpt lat="43.43787" lon="6.02746">
        <ele>280</ele>
        <time>2014-05-31T12:57:38Z</time>
      </trkpt>
      <trkpt lat="43.43787" lon="6.0275">
        <ele>280</ele>
        <time>2014-05-31T12:57:39Z</time>
      </trkpt>
      <trkpt lat="43.43784" lon="6.02759">
        <ele>280</ele>
        <time>2014-05-31T12:57:42Z</time>
      </trkpt>
      <trkpt lat="43.43784" lon="6.02777">
        <ele>280</ele>
        <time>2014-05-31T12:57:47Z</time>
      </trkpt>
      <trkpt lat="43.43786" lon="6.02781">
        <ele>280</ele>
        <time>2014-05-31T12:57:48Z</time>
      </trkpt>
      <trkpt lat="43.43792" lon="6.0279">
        <ele>280</ele>
        <time>2014-05-31T12:57:51Z</time>
      </trkpt>
      <trkpt lat="43.43793" lon="6.02793">
        <ele>280</ele>
        <time>2014-05-31T12:57:52Z</time>
      </trkpt>
      <trkpt lat="43.43804" lon="6.02805">
        <ele>280</ele>
        <time>2014-05-31T12:57:56Z</time>
      </trkpt>
      <trkpt lat="43.43808" lon="6.02813">
        <ele>280</ele>
        <time>2014-05-31T12:57:58Z</time>
      </trkpt>
      <trkpt lat="43.4381" lon="6.02829">
        <ele>280</ele>
        <time>2014-05-31T12:58:01Z</time>
      </trkpt>
      <trkpt lat="43.43807" lon="6.02843">
        <ele>280</ele>
        <time>2014-05-31T12:58:04Z</time>
      </trkpt>
      <trkpt lat="43.43799" lon="6.02863">
        <ele>280</ele>
        <time>2014-05-31T12:58:09Z</time>
      </trkpt>
      <trkpt lat="43.43792" lon="6.02891">
        <ele>280</ele>
        <time>2014-05-31T12:58:16Z</time>
      </trkpt>
      <trkpt lat="43.43793" lon="6.02933">
        <ele>280</ele>
        <time>2014-05-31T12:58:25Z</time>
      </trkpt>
      <trkpt lat="43.43791" lon="6.02942">
        <ele>280</ele>
        <time>2014-05-31T12:58:27Z</time>
      </trkpt>
      <trkpt lat="43.43787" lon="6.02956">
        <ele>280</ele>
        <time>2014-05-31T12:58:30Z</time>
      </trkpt>
      <trkpt lat="43.43784" lon="6.0297">
        <ele>280</ele>
        <time>2014-05-31T12:58:33Z</time>
      </trkpt>
      <trkpt lat="43.43781" lon="6.02992">
        <ele>280</ele>
        <time>2014-05-31T12:58:38Z</time>
      </trkpt>
      <trkpt lat="43.43773" lon="6.03011">
        <ele>279.43698</ele>
        <time>2014-05-31T12:58:43Z</time>
      </trkpt>
      <trkpt lat="43.43758" lon="6.03037">
        <ele>278.27466</ele>
        <time>2014-05-31T12:58:51Z</time>
      </trkpt>
      <trkpt lat="43.43743" lon="6.03042">
        <ele>278</ele>
        <time>2014-05-31T12:58:56Z</time>
      </trkpt>
      <trkpt lat="43.43736" lon="6.03047">
        <ele>278</ele>
        <time>2014-05-31T12:58:59Z</time>
      </trkpt>
      <trkpt lat="43.43715" lon="6.0306">
        <ele>278</ele>
        <time>2014-05-31T12:59:07Z</time>
      </trkpt>
      <trkpt lat="43.4371" lon="6.03063">
        <ele>278</ele>
        <time>2014-05-31T12:59:09Z</time>
      </trkpt>
      <trkpt lat="43.43703" lon="6.0307">
        <ele>278</ele>
        <time>2014-05-31T12:59:12Z</time>
      </trkpt>
      <trkpt lat="43.43698" lon="6.03079">
        <ele>278</ele>
        <time>2014-05-31T12:59:15Z</time>
      </trkpt>
      <trkpt lat="43.43694" lon="6.03103">
        <ele>278.00568</ele>
        <time>2014-05-31T12:59:21Z</time>
      </trkpt>
      <trkpt lat="43.43692" lon="6.03128">
        <ele>277.44565</ele>
        <time>2014-05-31T12:59:27Z</time>
      </trkpt>
      <trkpt lat="43.43693" lon="6.03156">
        <ele>277.01712</ele>
        <time>2014-05-31T12:59:33Z</time>
      </trkpt>
      <trkpt lat="43.43692" lon="6.03184">
        <ele>277</ele>
        <time>2014-05-31T12:59:39Z</time>
      </trkpt>
      <trkpt lat="43.43692" lon="6.03193">
        <ele>277</ele>
        <time>2014-05-31T12:59:41Z</time>
      </trkpt>
      <trkpt lat="43.43689" lon="6.03201">
        <ele>276.76715</ele>
        <time>2014-05-31T12:59:43Z</time>
      </trkpt>
      <trkpt lat="43.43684" lon="6.03229">
        <ele>276</ele>
        <time>2014-05-31T12:59:49Z</time>
      </trkpt>
      <trkpt lat="43.43685" lon="6.03233">
        <ele>276</ele>
        <time>2014-05-31T12:59:50Z</time>
      </trkpt>
      <trkpt lat="43.43687" lon="6.03244">
        <ele>276</ele>
        <time>2014-05-31T12:59:53Z</time>
      </trkpt>
      <trkpt lat="43.43686" lon="6.03266">
        <ele>275.40851</ele>
        <time>2014-05-31T12:59:58Z</time>
      </trkpt>
      <trkpt lat="43.43672" lon="6.03298">
        <ele>275</ele>
        <time>2014-05-31T13:00:05Z</time>
      </trkpt>
      <trkpt lat="43.43666" lon="6.03308">
        <ele>274.93918</ele>
        <time>2014-05-31T13:00:08Z</time>
      </trkpt>
      <trkpt lat="43.4366" lon="6.03335">
        <ele>274.71259</ele>
        <time>2014-05-31T13:00:16Z</time>
      </trkpt>
      <trkpt lat="43.43656" lon="6.03342">
        <ele>275.0174</ele>
        <time>2014-05-31T13:00:19Z</time>
      </trkpt>
      <trkpt lat="43.43637" lon="6.03377">
        <ele>275.77951</ele>
        <time>2014-05-31T13:00:29Z</time>
      </trkpt>
      <trkpt lat="43.43628" lon="6.03393">
        <ele>276.91858</ele>
        <time>2014-05-31T13:00:33Z</time>
      </trkpt>
      <trkpt lat="43.43628" lon="6.03397">
        <ele>276.92578</ele>
        <time>2014-05-31T13:00:34Z</time>
      </trkpt>
      <trkpt lat="43.43628" lon="6.03405">
        <ele>276.6864</ele>
        <time>2014-05-31T13:00:36Z</time>
      </trkpt>
      <trkpt lat="43.43628" lon="6.03435">
        <ele>275.93216</ele>
        <time>2014-05-31T13:00:43Z</time>
      </trkpt>
      <trkpt lat="43.43627" lon="6.03441">
        <ele>275.82401</ele>
        <time>2014-05-31T13:00:44Z</time>
      </trkpt>
      <trkpt lat="43.43626" lon="6.03452">
        <ele>275.90771</ele>
        <time>2014-05-31T13:00:46Z</time>
      </trkpt>
      <trkpt lat="43.43624" lon="6.03458">
        <ele>276.12744</ele>
        <time>2014-05-31T13:00:47Z</time>
      </trkpt>
      <trkpt lat="43.43618" lon="6.03474">
        <ele>277.00082</ele>
        <time>2014-05-31T13:00:50Z</time>
      </trkpt>
      <trkpt lat="43.43615" lon="6.03479">
        <ele>277.13129</ele>
        <time>2014-05-31T13:00:51Z</time>
      </trkpt>
      <trkpt lat="43.43608" lon="6.03503">
        <ele>277.12903</ele>
        <time>2014-05-31T13:00:55Z</time>
      </trkpt>
      <trkpt lat="43.43606" lon="6.03515">
        <ele>276.91446</ele>
        <time>2014-05-31T13:00:57Z</time>
      </trkpt>
      <trkpt lat="43.43599" lon="6.03543">
        <ele>277.2735</ele>
        <time>2014-05-31T13:01:02Z</time>
      </trkpt>
      <trkpt lat="43.43598" lon="6.03548">
        <ele>277.43829</ele>
        <time>2014-05-31T13:01:03Z</time>
      </trkpt>
      <trkpt lat="43.43591" lon="6.0356">
        <ele>278.13876</ele>
        <time>2014-05-31T13:01:06Z</time>
      </trkpt>
      <trkpt lat="43.43586" lon="6.03568">
        <ele>278.62457</ele>
        <time>2014-05-31T13:01:08Z</time>
      </trkpt>
      <trkpt lat="43.43582" lon="6.03591">
        <ele>278.86813</ele>
        <time>2014-05-31T13:01:12Z</time>
      </trkpt>
      <trkpt lat="43.43582" lon="6.03616">
        <ele>277.94461</ele>
        <time>2014-05-31T13:01:17Z</time>
      </trkpt>
      <trkpt lat="43.43582" lon="6.03643">
        <ele>277.01593</ele>
        <time>2014-05-31T13:01:22Z</time>
      </trkpt>
      <trkpt lat="43.43573" lon="6.03663">
        <ele>277.2717</ele>
        <time>2014-05-31T13:01:29Z</time>
      </trkpt>
      <trkpt lat="43.43574" lon="6.03669">
        <ele>276.99261</ele>
        <time>2014-05-31T13:01:32Z</time>
      </trkpt>
      <trkpt lat="43.43576" lon="6.03676">
        <ele>276.78662</ele>
        <time>2014-05-31T13:01:34Z</time>
      </trkpt>
      <trkpt lat="43.43571" lon="6.037">
        <ele>277.17392</ele>
        <time>2014-05-31T13:01:40Z</time>
      </trkpt>
      <trkpt lat="43.43571" lon="6.03714">
        <ele>276.97769</ele>
        <time>2014-05-31T13:01:44Z</time>
      </trkpt>
      <trkpt lat="43.43572" lon="6.03737">
        <ele>276.12207</ele>
        <time>2014-05-31T13:01:50Z</time>
      </trkpt>
      <trkpt lat="43.43571" lon="6.03755">
        <ele>275.53326</ele>
        <time>2014-05-31T13:01:56Z</time>
      </trkpt>
      <trkpt lat="43.43573" lon="6.03761">
        <ele>275.14874</ele>
        <time>2014-05-31T13:01:58Z</time>
      </trkpt>
      <trkpt lat="43.43573" lon="6.03767">
        <ele>274.92902</ele>
        <time>2014-05-31T13:02:01Z</time>
      </trkpt>
      <trkpt lat="43.43572" lon="6.03769">
        <ele>274.9805</ele>
        <time>2014-05-31T13:02:02Z</time>
      </trkpt>
      <trkpt lat="43.43569" lon="6.03775">
        <ele>275.18994</ele>
        <time>2014-05-31T13:02:06Z</time>
      </trkpt>
      <trkpt lat="43.43569" lon="6.03783">
        <ele>274.94556</ele>
        <time>2014-05-31T13:02:11Z</time>
      </trkpt>
      <trkpt lat="43.4357" lon="6.03795">
        <ele>274.57602</ele>
        <time>2014-05-31T13:02:17Z</time>
      </trkpt>
      <trkpt lat="43.43574" lon="6.03805">
        <ele>273.99393</ele>
        <time>2014-05-31T13:02:20Z</time>
      </trkpt>
      <trkpt lat="43.43579" lon="6.03815">
        <ele>273.10733</ele>
        <time>2014-05-31T13:02:22Z</time>
      </trkpt>
      <trkpt lat="43.43582" lon="6.03836">
        <ele>272.07117</ele>
        <time>2014-05-31T13:02:26Z</time>
      </trkpt>
      <trkpt lat="43.43582" lon="6.03841">
        <ele>271.85266</ele>
        <time>2014-05-31T13:02:27Z</time>
      </trkpt>
      <trkpt lat="43.43583" lon="6.03864">
        <ele>270.96628</ele>
        <time>2014-05-31T13:02:31Z</time>
      </trkpt>
      <trkpt lat="43.43583" lon="6.0387">
        <ele>270.68134</ele>
        <time>2014-05-31T13:02:32Z</time>
      </trkpt>
      <trkpt lat="43.43584" lon="6.03892">
        <ele>269.86807</ele>
        <time>2014-05-31T13:02:35Z</time>
      </trkpt>
      <trkpt lat="43.43585" lon="6.03907">
        <ele>269.16083</ele>
        <time>2014-05-31T13:02:37Z</time>
      </trkpt>
      <trkpt lat="43.43587" lon="6.03914">
        <ele>268.68704</ele>
        <time>2014-05-31T13:02:38Z</time>
      </trkpt>
      <trkpt lat="43.4359" lon="6.03921">
        <ele>268.30347</ele>
        <time>2014-05-31T13:02:39Z</time>
      </trkpt>
      <trkpt lat="43.43592" lon="6.03927">
        <ele>268.01508</ele>
        <time>2014-05-31T13:02:40Z</time>
      </trkpt>
      <trkpt lat="43.43595" lon="6.03933">
        <ele>267.72668</ele>
        <time>2014-05-31T13:02:41Z</time>
      </trkpt>
      <trkpt lat="43.43598" lon="6.03939">
        <ele>267.43829</ele>
        <time>2014-05-31T13:02:42Z</time>
      </trkpt>
      <trkpt lat="43.436" lon="6.03945">
        <ele>267.16632</ele>
        <time>2014-05-31T13:02:43Z</time>
      </trkpt>
      <trkpt lat="43.43602" lon="6.03964">
        <ele>265.77795</ele>
        <time>2014-05-31T13:02:46Z</time>
      </trkpt>
      <trkpt lat="43.43601" lon="6.0398">
        <ele>265.13586</ele>
        <time>2014-05-31T13:02:51Z</time>
      </trkpt>
      <trkpt lat="43.43601" lon="6.03983">
        <ele>265.09467</ele>
        <time>2014-05-31T13:02:52Z</time>
      </trkpt>
      <trkpt lat="43.43601" lon="6.03986">
        <ele>264.93503</ele>
        <time>2014-05-31T13:02:53Z</time>
      </trkpt>
      <trkpt lat="43.43602" lon="6.03989">
        <ele>264.72046</ele>
        <time>2014-05-31T13:02:54Z</time>
      </trkpt>
      <trkpt lat="43.43602" lon="6.03991">
        <ele>264.67581</ele>
        <time>2014-05-31T13:02:55Z</time>
      </trkpt>
      <trkpt lat="43.43597" lon="6.04013">
        <ele>264.78925</ele>
        <time>2014-05-31T13:03:00Z</time>
      </trkpt>
      <trkpt lat="43.43588" lon="6.04032">
        <ele>265.36963</ele>
        <time>2014-05-31T13:03:04Z</time>
      </trkpt>
      <trkpt lat="43.43582" lon="6.04043">
        <ele>265.63242</ele>
        <time>2014-05-31T13:03:06Z</time>
      </trkpt>
      <trkpt lat="43.43567" lon="6.04066">
        <ele>266.35852</ele>
        <time>2014-05-31T13:03:10Z</time>
      </trkpt>
      <trkpt lat="43.43565" lon="6.04072">
        <ele>266.37399</ele>
        <time>2014-05-31T13:03:11Z</time>
      </trkpt>
      <trkpt lat="43.43563" lon="6.04079">
        <ele>266.36713</ele>
        <time>2014-05-31T13:03:12Z</time>
      </trkpt>
      <trkpt lat="43.4356" lon="6.04093">
        <ele>266.21777</ele>
        <time>2014-05-31T13:03:14Z</time>
      </trkpt>
      <trkpt lat="43.43554" lon="6.04111">
        <ele>266.10071</ele>
        <time>2014-05-31T13:03:17Z</time>
      </trkpt>
      <trkpt lat="43.43547" lon="6.04135">
        <ele>265.77283</ele>
        <time>2014-05-31T13:03:22Z</time>
      </trkpt>
      <trkpt lat="43.43542" lon="6.04144">
        <ele>265.88107</ele>
        <time>2014-05-31T13:03:24Z</time>
      </trkpt>
      <trkpt lat="43.4354" lon="6.04148">
        <ele>265.98553</ele>
        <time>2014-05-31T13:03:25Z</time>
      </trkpt>
      <trkpt lat="43.43537" lon="6.0416">
        <ele>266.10965</ele>
        <time>2014-05-31T13:03:27Z</time>
      </trkpt>
      <trkpt lat="43.43538" lon="6.04184">
        <ele>265.29251</ele>
        <time>2014-05-31T13:03:31Z</time>
      </trkpt>
      <trkpt lat="43.43542" lon="6.04206">
        <ele>264.28915</ele>
        <time>2014-05-31T13:03:34Z</time>
      </trkpt>
      <trkpt lat="43.43539" lon="6.0422">
        <ele>264.25931</ele>
        <time>2014-05-31T13:03:36Z</time>
      </trkpt>
      <trkpt lat="43.43536" lon="6.04226">
        <ele>264.34387</ele>
        <time>2014-05-31T13:03:37Z</time>
      </trkpt>
      <trkpt lat="43.43526" lon="6.0424">
        <ele>264.58072</ele>
        <time>2014-05-31T13:03:40Z</time>
      </trkpt>
      <trkpt lat="43.43517" lon="6.04245">
        <ele>265.99976</ele>
        <time>2014-05-31T13:03:42Z</time>
      </trkpt>
      <trkpt lat="43.43504" lon="6.04259">
        <ele>267.89032</ele>
        <time>2014-05-31T13:03:46Z</time>
      </trkpt>
      <trkpt lat="43.43501" lon="6.04269">
        <ele>268.1701</ele>
        <time>2014-05-31T13:03:48Z</time>
      </trkpt>
      <trkpt lat="43.43495" lon="6.04289">
        <ele>268.65097</ele>
        <time>2014-05-31T13:03:52Z</time>
      </trkpt>
      <trkpt lat="43.43494" lon="6.04299">
        <ele>268.59262</ele>
        <time>2014-05-31T13:03:54Z</time>
      </trkpt>
      <trkpt lat="43.43491" lon="6.0433">
        <ele>268.94788</ele>
        <time>2014-05-31T13:04:00Z</time>
      </trkpt>
      <trkpt lat="43.43489" lon="6.04365">
        <ele>268.8107</ele>
        <time>2014-05-31T13:04:07Z</time>
      </trkpt>
      <trkpt lat="43.43484" lon="6.04424">
        <ele>268.81488</ele>
        <time>2014-05-31T13:04:18Z</time>
      </trkpt>
      <trkpt lat="43.4348" lon="6.04464">
        <ele>268.8985</ele>
        <time>2014-05-31T13:04:25Z</time>
      </trkpt>
      <trkpt lat="43.43477" lon="6.0449">
        <ele>269.16382</ele>
        <time>2014-05-31T13:04:30Z</time>
      </trkpt>
      <trkpt lat="43.43472" lon="6.04542">
        <ele>269.03943</ele>
        <time>2014-05-31T13:04:40Z</time>
      </trkpt>
      <trkpt lat="43.43467" lon="6.04563">
        <ele>269.4082</ele>
        <time>2014-05-31T13:04:45Z</time>
      </trkpt>
      <trkpt lat="43.43466" lon="6.04572">
        <ele>269.19357</ele>
        <time>2014-05-31T13:04:47Z</time>
      </trkpt>
      <trkpt lat="43.43465" lon="6.0458">
        <ele>269.17441</ele>
        <time>2014-05-31T13:04:49Z</time>
      </trkpt>
      <trkpt lat="43.43458" lon="6.04608">
        <ele>269.58127</ele>
        <time>2014-05-31T13:04:55Z</time>
      </trkpt>
      <trkpt lat="43.43451" lon="6.04642">
        <ele>270.1514</ele>
        <time>2014-05-31T13:05:01Z</time>
      </trkpt>
      <trkpt lat="43.43446" lon="6.0466">
        <ele>270.07932</ele>
        <time>2014-05-31T13:05:04Z</time>
      </trkpt>
      <trkpt lat="43.43442" lon="6.04679">
        <ele>269.94205</ele>
        <time>2014-05-31T13:05:07Z</time>
      </trkpt>
      <trkpt lat="43.43439" lon="6.04698">
        <ele>269.79614</ele>
        <time>2014-05-31T13:05:10Z</time>
      </trkpt>
      <trkpt lat="43.43438" lon="6.04717">
        <ele>269.6998</ele>
        <time>2014-05-31T13:05:13Z</time>
      </trkpt>
      <trkpt lat="43.43438" lon="6.04757">
        <ele>268.39282</ele>
        <time>2014-05-31T13:05:19Z</time>
      </trkpt>
      <trkpt lat="43.43433" lon="6.04794">
        <ele>268.23615</ele>
        <time>2014-05-31T13:05:24Z</time>
      </trkpt>
      <trkpt lat="43.43431" lon="6.04809">
        <ele>268.30276</ele>
        <time>2014-05-31T13:05:26Z</time>
      </trkpt>
      <trkpt lat="43.43431" lon="6.04817">
        <ele>268.02295</ele>
        <time>2014-05-31T13:05:27Z</time>
      </trkpt>
      <trkpt lat="43.43431" lon="6.0488">
        <ele>266.14545</ele>
        <time>2014-05-31T13:05:35Z</time>
      </trkpt>
      <trkpt lat="43.43428" lon="6.04922">
        <ele>265.07013</ele>
        <time>2014-05-31T13:05:40Z</time>
      </trkpt>
      <trkpt lat="43.43426" lon="6.04939">
        <ele>265.0412</ele>
        <time>2014-05-31T13:05:42Z</time>
      </trkpt>
      <trkpt lat="43.43426" lon="6.04956">
        <ele>264.73764</ele>
        <time>2014-05-31T13:05:44Z</time>
      </trkpt>
      <trkpt lat="43.43425" lon="6.04964">
        <ele>264.61136</ele>
        <time>2014-05-31T13:05:45Z</time>
      </trkpt>
      <trkpt lat="43.43421" lon="6.04994">
        <ele>263.93405</ele>
        <time>2014-05-31T13:05:49Z</time>
      </trkpt>
      <trkpt lat="43.43409" lon="6.05053">
        <ele>262.62256</ele>
        <time>2014-05-31T13:05:59Z</time>
      </trkpt>
      <trkpt lat="43.43406" lon="6.05074">
        <ele>262.14362</ele>
        <time>2014-05-31T13:06:03Z</time>
      </trkpt>
      <trkpt lat="43.43403" lon="6.05082">
        <ele>262.03033</ele>
        <time>2014-05-31T13:06:05Z</time>
      </trkpt>
      <trkpt lat="43.43399" lon="6.05095">
        <ele>262.07968</ele>
        <time>2014-05-31T13:06:08Z</time>
      </trkpt>
      <trkpt lat="43.43398" lon="6.05099">
        <ele>262.13025</ele>
        <time>2014-05-31T13:06:09Z</time>
      </trkpt>
      <trkpt lat="43.43396" lon="6.05107">
        <ele>262.31052</ele>
        <time>2014-05-31T13:06:11Z</time>
      </trkpt>
      <trkpt lat="43.43386" lon="6.05135">
        <ele>262.358</ele>
        <time>2014-05-31T13:06:17Z</time>
      </trkpt>
      <trkpt lat="43.43378" lon="6.0516">
        <ele>263.03217</ele>
        <time>2014-05-31T13:06:21Z</time>
      </trkpt>
      <trkpt lat="43.43374" lon="6.05174">
        <ele>263.69781</ele>
        <time>2014-05-31T13:06:23Z</time>
      </trkpt>
      <trkpt lat="43.43358" lon="6.05217">
        <ele>266.26385</ele>
        <time>2014-05-31T13:06:29Z</time>
      </trkpt>
      <trkpt lat="43.43355" lon="6.05224">
        <ele>266.9848</ele>
        <time>2014-05-31T13:06:30Z</time>
      </trkpt>
      <trkpt lat="43.43351" lon="6.05239">
        <ele>268.05084</ele>
        <time>2014-05-31T13:06:32Z</time>
      </trkpt>
      <trkpt lat="43.43347" lon="6.05251">
        <ele>269.02408</ele>
        <time>2014-05-31T13:06:34Z</time>
      </trkpt>
      <trkpt lat="43.43335" lon="6.0528">
        <ele>269.73648</ele>
        <time>2014-05-31T13:06:39Z</time>
      </trkpt>
      <trkpt lat="43.43326" lon="6.05295">
        <ele>270.40253</ele>
        <time>2014-05-31T13:06:42Z</time>
      </trkpt>
      <trkpt lat="43.43321" lon="6.05305">
        <ele>270.80765</ele>
        <time>2014-05-31T13:06:44Z</time>
      </trkpt>
      <trkpt lat="43.43301" lon="6.0535">
        <ele>272.35992</ele>
        <time>2014-05-31T13:06:52Z</time>
      </trkpt>
      <trkpt lat="43.43284" lon="6.05387">
        <ele>273.36255</ele>
        <time>2014-05-31T13:06:58Z</time>
      </trkpt>
      <trkpt lat="43.43273" lon="6.05419">
        <ele>273.58514</ele>
        <time>2014-05-31T13:07:03Z</time>
      </trkpt>
      <trkpt lat="43.43271" lon="6.05424">
        <ele>273.7276</ele>
        <time>2014-05-31T13:07:04Z</time>
      </trkpt>
      <trkpt lat="43.43265" lon="6.05439">
        <ele>274.02115</ele>
        <time>2014-05-31T13:07:07Z</time>
      </trkpt>
      <trkpt lat="43.43254" lon="6.05469">
        <ele>275.28003</ele>
        <time>2014-05-31T13:07:14Z</time>
      </trkpt>
      <trkpt lat="43.4325" lon="6.05481">
        <ele>275.70728</ele>
        <time>2014-05-31T13:07:17Z</time>
      </trkpt>
      <trkpt lat="43.43248" lon="6.05484">
        <ele>275.82443</ele>
        <time>2014-05-31T13:07:18Z</time>
      </trkpt>
      <trkpt lat="43.43245" lon="6.05495">
        <ele>275.98929</ele>
        <time>2014-05-31T13:07:21Z</time>
      </trkpt>
      <trkpt lat="43.43243" lon="6.05503">
        <ele>276.25488</ele>
        <time>2014-05-31T13:07:23Z</time>
      </trkpt>
      <trkpt lat="43.43241" lon="6.0551">
        <ele>276.42044</ele>
        <time>2014-05-31T13:07:25Z</time>
      </trkpt>
      <trkpt lat="43.43239" lon="6.05517">
        <ele>276.55899</ele>
        <time>2014-05-31T13:07:27Z</time>
      </trkpt>
      <trkpt lat="43.43235" lon="6.05535">
        <ele>277.02707</ele>
        <time>2014-05-31T13:07:32Z</time>
      </trkpt>
      <trkpt lat="43.43233" lon="6.05547">
        <ele>277.28964</ele>
        <time>2014-05-31T13:07:35Z</time>
      </trkpt>
      <trkpt lat="43.43227" lon="6.05579">
        <ele>278.69861</ele>
        <time>2014-05-31T13:07:43Z</time>
      </trkpt>
      <trkpt lat="43.43227" lon="6.05607">
        <ele>278.54062</ele>
        <time>2014-05-31T13:07:49Z</time>
      </trkpt>
      <trkpt lat="43.43223" lon="6.05634">
        <ele>279.81345</ele>
        <time>2014-05-31T13:07:55Z</time>
      </trkpt>
      <trkpt lat="43.4322" lon="6.05662">
        <ele>280.23761</ele>
        <time>2014-05-31T13:08:01Z</time>
      </trkpt>
      <trkpt lat="43.43215" lon="6.05692">
        <ele>280.80182</ele>
        <time>2014-05-31T13:08:08Z</time>
      </trkpt>
      <trkpt lat="43.43214" lon="6.05706">
        <ele>280.88422</ele>
        <time>2014-05-31T13:08:11Z</time>
      </trkpt>
      <trkpt lat="43.43212" lon="6.0572">
        <ele>281.09021</ele>
        <time>2014-05-31T13:08:14Z</time>
      </trkpt>
      <trkpt lat="43.43209" lon="6.05782">
        <ele>278.81964</ele>
        <time>2014-05-31T13:08:25Z</time>
      </trkpt>
      <trkpt lat="43.43209" lon="6.05788">
        <ele>278.76727</ele>
        <time>2014-05-31T13:08:26Z</time>
      </trkpt>
      <trkpt lat="43.43204" lon="6.05825">
        <ele>278.47333</ele>
        <time>2014-05-31T13:08:32Z</time>
      </trkpt>
      <trkpt lat="43.43203" lon="6.05838">
        <ele>278.23816</ele>
        <time>2014-05-31T13:08:34Z</time>
      </trkpt>
      <trkpt lat="43.43202" lon="6.05843">
        <ele>278.31195</ele>
        <time>2014-05-31T13:08:35Z</time>
      </trkpt>
      <trkpt lat="43.43196" lon="6.05865">
        <ele>278.61407</ele>
        <time>2014-05-31T13:08:39Z</time>
      </trkpt>
      <trkpt lat="43.43193" lon="6.05887">
        <ele>278.23987</ele>
        <time>2014-05-31T13:08:43Z</time>
      </trkpt>
      <trkpt lat="43.4319" lon="6.05897">
        <ele>278.43213</ele>
        <time>2014-05-31T13:08:45Z</time>
      </trkpt>
      <trkpt lat="43.43181" lon="6.05928">
        <ele>279.04324</ele>
        <time>2014-05-31T13:08:51Z</time>
      </trkpt>
      <trkpt lat="43.43175" lon="6.0595">
        <ele>279.26468</ele>
        <time>2014-05-31T13:08:56Z</time>
      </trkpt>
      <trkpt lat="43.4317" lon="6.05978">
        <ele>279.39236</ele>
        <time>2014-05-31T13:09:02Z</time>
      </trkpt>
      <trkpt lat="43.4316" lon="6.06007">
        <ele>280.79657</ele>
        <time>2014-05-31T13:09:08Z</time>
      </trkpt>
      <trkpt lat="43.43155" lon="6.06037">
        <ele>280.45764</ele>
        <time>2014-05-31T13:09:14Z</time>
      </trkpt>
      <trkpt lat="43.43149" lon="6.06064">
        <ele>281.19647</ele>
        <time>2014-05-31T13:09:20Z</time>
      </trkpt>
      <trkpt lat="43.43143" lon="6.06092">
        <ele>280.52356</ele>
        <time>2014-05-31T13:09:26Z</time>
      </trkpt>
      <trkpt lat="43.43135" lon="6.06124">
        <ele>280.53552</ele>
        <time>2014-05-31T13:09:32Z</time>
      </trkpt>
      <trkpt lat="43.43125" lon="6.06164">
        <ele>279.73886</ele>
        <time>2014-05-31T13:09:39Z</time>
      </trkpt>
      <trkpt lat="43.43121" lon="6.06199">
        <ele>278.29016</ele>
        <time>2014-05-31T13:09:45Z</time>
      </trkpt>
      <trkpt lat="43.43122" lon="6.06219">
        <ele>276.58041</ele>
        <time>2014-05-31T13:09:48Z</time>
      </trkpt>
      <trkpt lat="43.43123" lon="6.06232">
        <ele>275.19934</ele>
        <time>2014-05-31T13:09:50Z</time>
      </trkpt>
      <trkpt lat="43.43125" lon="6.06263">
        <ele>272.56775</ele>
        <time>2014-05-31T13:09:54Z</time>
      </trkpt>
      <trkpt lat="43.43128" lon="6.06277">
        <ele>271.63736</ele>
        <time>2014-05-31T13:09:56Z</time>
      </trkpt>
      <trkpt lat="43.43126" lon="6.06293">
        <ele>270.59674</ele>
        <time>2014-05-31T13:09:59Z</time>
      </trkpt>
      <trkpt lat="43.43126" lon="6.06304">
        <ele>269.56619</ele>
        <time>2014-05-31T13:10:01Z</time>
      </trkpt>
      <trkpt lat="43.43127" lon="6.0631">
        <ele>269.00482</ele>
        <time>2014-05-31T13:10:02Z</time>
      </trkpt>
      <trkpt lat="43.43129" lon="6.0633">
        <ele>267.58884</ele>
        <time>2014-05-31T13:10:05Z</time>
      </trkpt>
      <trkpt lat="43.43132" lon="6.06368">
        <ele>268.24646</ele>
        <time>2014-05-31T13:10:10Z</time>
      </trkpt>
      <trkpt lat="43.43134" lon="6.06385">
        <ele>268.64301</ele>
        <time>2014-05-31T13:10:12Z</time>
      </trkpt>
      <trkpt lat="43.43135" lon="6.06393">
        <ele>268.7666</ele>
        <time>2014-05-31T13:10:13Z</time>
      </trkpt>
      <trkpt lat="43.43135" lon="6.06401">
        <ele>268.91766</ele>
        <time>2014-05-31T13:10:14Z</time>
      </trkpt>
      <trkpt lat="43.43137" lon="6.06408">
        <ele>269.03439</ele>
        <time>2014-05-31T13:10:15Z</time>
      </trkpt>
      <trkpt lat="43.43142" lon="6.06433">
        <ele>269.11691</ele>
        <time>2014-05-31T13:10:18Z</time>
      </trkpt>
      <trkpt lat="43.43146" lon="6.06449">
        <ele>268.85599</ele>
        <time>2014-05-31T13:10:20Z</time>
      </trkpt>
      <trkpt lat="43.43148" lon="6.06456">
        <ele>268.71521</ele>
        <time>2014-05-31T13:10:21Z</time>
      </trkpt>
      <trkpt lat="43.4315" lon="6.06463">
        <ele>268.61566</ele>
        <time>2014-05-31T13:10:22Z</time>
      </trkpt>
      <trkpt lat="43.4315" lon="6.06476">
        <ele>269.06198</ele>
        <time>2014-05-31T13:10:24Z</time>
      </trkpt>
      <trkpt lat="43.43149" lon="6.0648">
        <ele>269.42932</ele>
        <time>2014-05-31T13:10:25Z</time>
      </trkpt>
      <trkpt lat="43.43144" lon="6.06484">
        <ele>270.52283</ele>
        <time>2014-05-31T13:10:28Z</time>
      </trkpt>
      <trkpt lat="43.43142" lon="6.06483">
        <ele>270.78546</ele>
        <time>2014-05-31T13:10:29Z</time>
      </trkpt>
      <trkpt lat="43.43139" lon="6.06483">
        <ele>271.39975</ele>
        <time>2014-05-31T13:10:31Z</time>
      </trkpt>
      <trkpt lat="43.43138" lon="6.06483">
        <ele>271.52509</ele>
        <time>2014-05-31T13:10:32Z</time>
      </trkpt>
      <trkpt lat="43.43133" lon="6.06484">
        <ele>272.0658</ele>
        <time>2014-05-31T13:10:35Z</time>
      </trkpt>
      <trkpt lat="43.43128" lon="6.06484">
        <ele>272.57391</ele>
        <time>2014-05-31T13:10:37Z</time>
      </trkpt>
      <trkpt lat="43.43126" lon="6.06484">
        <ele>272.78162</ele>
        <time>2014-05-31T13:10:38Z</time>
      </trkpt>
      <trkpt lat="43.43122" lon="6.06484">
        <ele>273.19019</ele>
        <time>2014-05-31T13:10:40Z</time>
      </trkpt>
      <trkpt lat="43.43121" lon="6.06483">
        <ele>273.37558</ele>
        <time>2014-05-31T13:10:42Z</time>
      </trkpt>
      <trkpt lat="43.43118" lon="6.06482">
        <ele>273.61932</ele>
        <time>2014-05-31T13:10:45Z</time>
      </trkpt>
      <trkpt lat="43.43118" lon="6.0648">
        <ele>273.59875</ele>
        <time>2014-05-31T13:10:46Z</time>
      </trkpt>
      <trkpt lat="43.43115" lon="6.06477">
        <ele>273.73608</ele>
        <time>2014-05-31T13:10:48Z</time>
      </trkpt>
      <trkpt lat="43.43114" lon="6.06476">
        <ele>273.84595</ele>
        <time>2014-05-31T13:10:49Z</time>
      </trkpt>
      <trkpt lat="43.43112" lon="6.06466">
        <ele>273.66397</ele>
        <time>2014-05-31T13:10:54Z</time>
      </trkpt>
      <trkpt lat="43.4311" lon="6.06459">
        <ele>273.65027</ele>
        <time>2014-05-31T13:10:57Z</time>
      </trkpt>
      <trkpt lat="43.4311" lon="6.06457">
        <ele>273.70551</ele>
        <time>2014-05-31T13:10:58Z</time>
      </trkpt>
      <trkpt lat="43.43105" lon="6.06449">
        <ele>274.30789</ele>
        <time>2014-05-31T13:11:02Z</time>
      </trkpt>
      <trkpt lat="43.43104" lon="6.06442">
        <ele>274.31775</ele>
        <time>2014-05-31T13:11:06Z</time>
      </trkpt>
      <trkpt lat="43.431" lon="6.06433">
        <ele>275.07306</ele>
        <time>2014-05-31T13:11:10Z</time>
      </trkpt>
      <trkpt lat="43.43098" lon="6.06429">
        <ele>275.41638</ele>
        <time>2014-05-31T13:11:12Z</time>
      </trkpt>
      <trkpt lat="43.43094" lon="6.06412">
        <ele>275.88116</ele>
        <time>2014-05-31T13:11:18Z</time>
      </trkpt>
      <trkpt lat="43.43088" lon="6.06394">
        <ele>276.31372</ele>
        <time>2014-05-31T13:11:24Z</time>
      </trkpt>
      <trkpt lat="43.43088" lon="6.0639">
        <ele>276.25537</ele>
        <time>2014-05-31T13:11:25Z</time>
      </trkpt>
      <trkpt lat="43.43084" lon="6.06385">
        <ele>276.67252</ele>
        <time>2014-05-31T13:11:27Z</time>
      </trkpt>
      <trkpt lat="43.43082" lon="6.06375">
        <ele>276.57324</ele>
        <time>2014-05-31T13:11:30Z</time>
      </trkpt>
      <trkpt lat="43.43075" lon="6.0636">
        <ele>276.59189</ele>
        <time>2014-05-31T13:11:35Z</time>
      </trkpt>
      <trkpt lat="43.43067" lon="6.06355">
        <ele>276.97641</ele>
        <time>2014-05-31T13:11:39Z</time>
      </trkpt>
      <trkpt lat="43.43062" lon="6.06355">
        <ele>277.31631</ele>
        <time>2014-05-31T13:11:41Z</time>
      </trkpt>
      <trkpt lat="43.43053" lon="6.06353">
        <ele>277.71646</ele>
        <time>2014-05-31T13:11:44Z</time>
      </trkpt>
      <trkpt lat="43.43043" lon="6.06347">
        <ele>277.49503</ele>
        <time>2014-05-31T13:11:50Z</time>
      </trkpt>
      <trkpt lat="43.43039" lon="6.06342">
        <ele>277.30963</ele>
        <time>2014-05-31T13:11:52Z</time>
      </trkpt>
      <trkpt lat="43.43034" lon="6.06331">
        <ele>277</ele>
        <time>2014-05-31T13:11:55Z</time>
      </trkpt>
      <trkpt lat="43.43028" lon="6.06318">
        <ele>277</ele>
        <time>2014-05-31T13:11:59Z</time>
      </trkpt>
      <trkpt lat="43.43022" lon="6.06315">
        <ele>277.20239</ele>
        <time>2014-05-31T13:12:02Z</time>
      </trkpt>
      <trkpt lat="43.43015" lon="6.06314">
        <ele>277.47705</ele>
        <time>2014-05-31T13:12:05Z</time>
      </trkpt>
      <trkpt lat="43.43012" lon="6.06314">
        <ele>277.55945</ele>
        <time>2014-05-31T13:12:06Z</time>
      </trkpt>
      <trkpt lat="43.43007" lon="6.06316">
        <ele>277.75171</ele>
        <time>2014-05-31T13:12:08Z</time>
      </trkpt>
      <trkpt lat="43.43005" lon="6.06317">
        <ele>277.82037</ele>
        <time>2014-05-31T13:12:09Z</time>
      </trkpt>
      <trkpt lat="43.42997" lon="6.06317">
        <ele>278</ele>
        <time>2014-05-31T13:12:13Z</time>
      </trkpt>
      <trkpt lat="43.42988" lon="6.06312">
        <ele>278</ele>
        <time>2014-05-31T13:12:18Z</time>
      </trkpt>
      <trkpt lat="43.4298" lon="6.06308">
        <ele>278</ele>
        <time>2014-05-31T13:12:22Z</time>
      </trkpt>
      <trkpt lat="43.42973" lon="6.06313">
        <ele>278</ele>
        <time>2014-05-31T13:12:25Z</time>
      </trkpt>
      <trkpt lat="43.42968" lon="6.06314">
        <ele>278.19693</ele>
        <time>2014-05-31T13:12:28Z</time>
      </trkpt>
      <trkpt lat="43.42966" lon="6.06312">
        <ele>278.25507</ele>
        <time>2014-05-31T13:12:29Z</time>
      </trkpt>
      <trkpt lat="43.42958" lon="6.063">
        <ele>278.81677</ele>
        <time>2014-05-31T13:12:36Z</time>
      </trkpt>
      <trkpt lat="43.42957" lon="6.06296">
        <ele>279.0723</ele>
        <time>2014-05-31T13:12:38Z</time>
      </trkpt>
      <trkpt lat="43.42955" lon="6.06292">
        <ele>279.27856</ele>
        <time>2014-05-31T13:12:40Z</time>
      </trkpt>
      <trkpt lat="43.42952" lon="6.06292">
        <ele>279.36176</ele>
        <time>2014-05-31T13:12:42Z</time>
      </trkpt>
      <trkpt lat="43.42952" lon="6.06291">
        <ele>279.40131</ele>
        <time>2014-05-31T13:12:43Z</time>
      </trkpt>
      <trkpt lat="43.42949" lon="6.06291">
        <ele>279.43912</ele>
        <time>2014-05-31T13:12:45Z</time>
      </trkpt>
      <trkpt lat="43.42944" lon="6.06292">
        <ele>279.64566</ele>
        <time>2014-05-31T13:12:48Z</time>
      </trkpt>
      <trkpt lat="43.42937" lon="6.06296">
        <ele>280.7067</ele>
        <time>2014-05-31T13:12:53Z</time>
      </trkpt>
      <trkpt lat="43.42935" lon="6.06297">
        <ele>281.0614</ele>
        <time>2014-05-31T13:12:55Z</time>
      </trkpt>
      <trkpt lat="43.42931" lon="6.06302">
        <ele>281.5235</ele>
        <time>2014-05-31T13:12:59Z</time>
      </trkpt>
      <trkpt lat="43.4293" lon="6.06307">
        <ele>281.70596</ele>
        <time>2014-05-31T13:13:02Z</time>
      </trkpt>
      <trkpt lat="43.42926" lon="6.0631">
        <ele>282.77161</ele>
        <time>2014-05-31T13:13:06Z</time>
      </trkpt>
      <trkpt lat="43.42925" lon="6.06311">
        <ele>283.01309</ele>
        <time>2014-05-31T13:13:07Z</time>
      </trkpt>
      <trkpt lat="43.42925" lon="6.06312">
        <ele>283.05029</ele>
        <time>2014-05-31T13:13:08Z</time>
      </trkpt>
      <trkpt lat="43.42924" lon="6.06312">
        <ele>283.16681</ele>
        <time>2014-05-31T13:13:11Z</time>
      </trkpt>
      <trkpt lat="43.42924" lon="6.06312">
        <ele>283.16681</ele>
        <time>2014-05-31T13:13:21Z</time>
      </trkpt>
      <trkpt lat="43.42924" lon="6.06312">
        <ele>283.16681</ele>
        <time>2014-05-31T13:13:28Z</time>
      </trkpt>
      <trkpt lat="43.42923" lon="6.06314">
        <ele>283.5177</ele>
        <time>2014-05-31T13:13:29Z</time>
      </trkpt>
      <trkpt lat="43.42923" lon="6.06314">
        <ele>283.52634</ele>
        <time>2014-05-31T13:13:30Z</time>
      </trkpt>
      <trkpt lat="43.42923" lon="6.06314">
        <ele>283.52634</ele>
        <time>2014-05-31T13:13:31Z</time>
      </trkpt>
      <trkpt lat="43.42924" lon="6.06315">
        <ele>283.41354</ele>
        <time>2014-05-31T13:13:33Z</time>
      </trkpt>
      <trkpt lat="43.42923" lon="6.06316">
        <ele>283.94464</ele>
        <time>2014-05-31T13:13:37Z</time>
      </trkpt>
      <trkpt lat="43.42923" lon="6.06316">
        <ele>283.94464</ele>
        <time>2014-05-31T13:13:53Z</time>
      </trkpt>
      <trkpt lat="43.42922" lon="6.06317">
        <ele>284.04196</ele>
        <time>2014-05-31T13:14:28Z</time>
      </trkpt>
      <trkpt lat="43.42922" lon="6.06318">
        <ele>284.22537</ele>
        <time>2014-05-31T13:14:38Z</time>
      </trkpt>
      <trkpt lat="43.42915" lon="6.06318">
        <ele>285.59418</ele>
        <time>2014-05-31T13:14:42Z</time>
      </trkpt>
      <trkpt lat="43.42915" lon="6.06319">
        <ele>285.77271</ele>
        <time>2014-05-31T13:14:44Z</time>
      </trkpt>
      <trkpt lat="43.42915" lon="6.06319">
        <ele>285.77271</ele>
        <time>2014-05-31T13:14:49Z</time>
      </trkpt>
      <trkpt lat="43.42912" lon="6.06321">
        <ele>286.37183</ele>
        <time>2014-05-31T13:14:52Z</time>
      </trkpt>
      <trkpt lat="43.42905" lon="6.06322">
        <ele>287.49103</ele>
        <time>2014-05-31T13:14:57Z</time>
      </trkpt>
      <trkpt lat="43.42903" lon="6.06323">
        <ele>287.80688</ele>
        <time>2014-05-31T13:14:58Z</time>
      </trkpt>
      <trkpt lat="43.42897" lon="6.06324">
        <ele>288.91068</ele>
        <time>2014-05-31T13:15:02Z</time>
      </trkpt>
      <trkpt lat="43.42894" lon="6.06325">
        <ele>289.36731</ele>
        <time>2014-05-31T13:15:04Z</time>
      </trkpt>
      <trkpt lat="43.42887" lon="6.06326">
        <ele>290.59912</ele>
        <time>2014-05-31T13:15:10Z</time>
      </trkpt>
      <trkpt lat="43.42886" lon="6.06327">
        <ele>290.8035</ele>
        <time>2014-05-31T13:15:11Z</time>
      </trkpt>
      <trkpt lat="43.42883" lon="6.06326">
        <ele>291.07504</ele>
        <time>2014-05-31T13:15:12Z</time>
      </trkpt>
      <trkpt lat="43.42881" lon="6.06324">
        <ele>291.36081</ele>
        <time>2014-05-31T13:15:14Z</time>
      </trkpt>
      <trkpt lat="43.42879" lon="6.06323">
        <ele>291.56714</ele>
        <time>2014-05-31T13:15:15Z</time>
      </trkpt>
      <trkpt lat="43.4287" lon="6.06322">
        <ele>293.01938</ele>
        <time>2014-05-31T13:15:20Z</time>
      </trkpt>
      <trkpt lat="43.42858" lon="6.06325">
        <ele>294.92889</ele>
        <time>2014-05-31T13:15:24Z</time>
      </trkpt>
      <trkpt lat="43.42842" lon="6.06333">
        <ele>295.68668</ele>
        <time>2014-05-31T13:15:30Z</time>
      </trkpt>
      <trkpt lat="43.42832" lon="6.06346">
        <ele>296.47314</ele>
        <time>2014-05-31T13:15:33Z</time>
      </trkpt>
      <trkpt lat="43.42827" lon="6.06349">
        <ele>296.67303</ele>
        <time>2014-05-31T13:15:34Z</time>
      </trkpt>
      <trkpt lat="43.42812" lon="6.06355">
        <ele>296.94788</ele>
        <time>2014-05-31T13:15:37Z</time>
      </trkpt>
      <trkpt lat="43.42807" lon="6.06355">
        <ele>296.98788</ele>
        <time>2014-05-31T13:15:38Z</time>
      </trkpt>
      <trkpt lat="43.42801" lon="6.06354">
        <ele>297.04044</ele>
        <time>2014-05-31T13:15:39Z</time>
      </trkpt>
      <trkpt lat="43.42795" lon="6.06352">
        <ele>297.12775</ele>
        <time>2014-05-31T13:15:40Z</time>
      </trkpt>
      <trkpt lat="43.42783" lon="6.06348">
        <ele>297.37701</ele>
        <time>2014-05-31T13:15:42Z</time>
      </trkpt>
      <trkpt lat="43.42778" lon="6.06346">
        <ele>297.55682</ele>
        <time>2014-05-31T13:15:43Z</time>
      </trkpt>
      <trkpt lat="43.42771" lon="6.06344">
        <ele>297.85349</ele>
        <time>2014-05-31T13:15:44Z</time>
      </trkpt>
      <trkpt lat="43.42765" lon="6.06344">
        <ele>298.0835</ele>
        <time>2014-05-31T13:15:45Z</time>
      </trkpt>
      <trkpt lat="43.42758" lon="6.06345">
        <ele>298.29639</ele>
        <time>2014-05-31T13:15:46Z</time>
      </trkpt>
      <trkpt lat="43.42751" lon="6.06347">
        <ele>298.47318</ele>
        <time>2014-05-31T13:15:47Z</time>
      </trkpt>
      <trkpt lat="43.42744" lon="6.06349">
        <ele>298.30713</ele>
        <time>2014-05-31T13:15:48Z</time>
      </trkpt>
      <trkpt lat="43.42738" lon="6.06351">
        <ele>298.07993</ele>
        <time>2014-05-31T13:15:49Z</time>
      </trkpt>
      <trkpt lat="43.42731" lon="6.06353">
        <ele>297.82388</ele>
        <time>2014-05-31T13:15:50Z</time>
      </trkpt>
      <trkpt lat="43.42723" lon="6.06354">
        <ele>297.56891</ele>
        <time>2014-05-31T13:15:51Z</time>
      </trkpt>
      <trkpt lat="43.42717" lon="6.06354">
        <ele>296.5943</ele>
        <time>2014-05-31T13:15:52Z</time>
      </trkpt>
      <trkpt lat="43.42711" lon="6.06355">
        <ele>295.49179</ele>
        <time>2014-05-31T13:15:53Z</time>
      </trkpt>
      <trkpt lat="43.42706" lon="6.06354">
        <ele>294.64902</ele>
        <time>2014-05-31T13:15:54Z</time>
      </trkpt>
      <trkpt lat="43.42702" lon="6.06351">
        <ele>294.26474</ele>
        <time>2014-05-31T13:15:55Z</time>
      </trkpt>
      <trkpt lat="43.42691" lon="6.06341">
        <ele>293.28806</ele>
        <time>2014-05-31T13:15:58Z</time>
      </trkpt>
      <trkpt lat="43.42686" lon="6.06335">
        <ele>292.47266</ele>
        <time>2014-05-31T13:16:01Z</time>
      </trkpt>
      <trkpt lat="43.42684" lon="6.06333">
        <ele>292.1102</ele>
        <time>2014-05-31T13:16:03Z</time>
      </trkpt>
      <trkpt lat="43.42671" lon="6.06328">
        <ele>289.04913</ele>
        <time>2014-05-31T13:16:09Z</time>
      </trkpt>
      <trkpt lat="43.42667" lon="6.06329">
        <ele>287.785</ele>
        <time>2014-05-31T13:16:10Z</time>
      </trkpt>
      <trkpt lat="43.42657" lon="6.06328">
        <ele>285.74075</ele>
        <time>2014-05-31T13:16:12Z</time>
      </trkpt>
      <trkpt lat="43.42636" lon="6.06321">
        <ele>282.46359</ele>
        <time>2014-05-31T13:16:17Z</time>
      </trkpt>
      <trkpt lat="43.42632" lon="6.06319">
        <ele>282.67734</ele>
        <time>2014-05-31T13:16:18Z</time>
      </trkpt>
      <trkpt lat="43.42627" lon="6.06316">
        <ele>282.95816</ele>
        <time>2014-05-31T13:16:19Z</time>
      </trkpt>
      <trkpt lat="43.42624" lon="6.06313">
        <ele>283.15604</ele>
        <time>2014-05-31T13:16:20Z</time>
      </trkpt>
      <trkpt lat="43.42619" lon="6.0631">
        <ele>283.20694</ele>
        <time>2014-05-31T13:16:21Z</time>
      </trkpt>
      <trkpt lat="43.42614" lon="6.06309">
        <ele>282.85608</ele>
        <time>2014-05-31T13:16:22Z</time>
      </trkpt>
      <trkpt lat="43.42599" lon="6.06316">
        <ele>281.87778</ele>
        <time>2014-05-31T13:16:25Z</time>
      </trkpt>
      <trkpt lat="43.42582" lon="6.0633">
        <ele>280.41391</ele>
        <time>2014-05-31T13:16:29Z</time>
      </trkpt>
      <trkpt lat="43.42573" lon="6.06339">
        <ele>280.30911</ele>
        <time>2014-05-31T13:16:31Z</time>
      </trkpt>
      <trkpt lat="43.42549" lon="6.06356">
        <ele>280.34042</ele>
        <time>2014-05-31T13:16:36Z</time>
      </trkpt>
      <trkpt lat="43.42543" lon="6.06367">
        <ele>280</ele>
        <time>2014-05-31T13:16:38Z</time>
      </trkpt>
      <trkpt lat="43.42548" lon="6.06382">
        <ele>280</ele>
        <time>2014-05-31T13:16:41Z</time>
      </trkpt>
      <trkpt lat="43.42555" lon="6.06396">
        <ele>280</ele>
        <time>2014-05-31T13:16:44Z</time>
      </trkpt>
      <trkpt lat="43.42557" lon="6.06399">
        <ele>280</ele>
        <time>2014-05-31T13:16:45Z</time>
      </trkpt>
      <trkpt lat="43.42574" lon="6.06432">
        <ele>280</ele>
        <time>2014-05-31T13:16:56Z</time>
      </trkpt>
      <trkpt lat="43.42574" lon="6.06446">
        <ele>280</ele>
        <time>2014-05-31T13:17:00Z</time>
      </trkpt>
      <trkpt lat="43.42575" lon="6.06452">
        <ele>280</ele>
        <time>2014-05-31T13:17:02Z</time>
      </trkpt>
      <trkpt lat="43.42576" lon="6.06454">
        <ele>280</ele>
        <time>2014-05-31T13:17:03Z</time>
      </trkpt>
      <trkpt lat="43.42587" lon="6.06468">
        <ele>280.09863</ele>
        <time>2014-05-31T13:17:11Z</time>
      </trkpt>
      <trkpt lat="43.4259" lon="6.06474">
        <ele>280.29944</ele>
        <time>2014-05-31T13:17:14Z</time>
      </trkpt>
      <trkpt lat="43.42592" lon="6.06481">
        <ele>280.7211</ele>
        <time>2014-05-31T13:17:18Z</time>
      </trkpt>
      <trkpt lat="43.42593" lon="6.06487">
        <ele>281.08551</ele>
        <time>2014-05-31T13:17:21Z</time>
      </trkpt>
      <trkpt lat="43.42592" lon="6.06492">
        <ele>281.22818</ele>
        <time>2014-05-31T13:17:23Z</time>
      </trkpt>
      <trkpt lat="43.42588" lon="6.06508">
        <ele>281.64487</ele>
        <time>2014-05-31T13:17:30Z</time>
      </trkpt>
      <trkpt lat="43.42581" lon="6.0652">
        <ele>281.59232</ele>
        <time>2014-05-31T13:17:35Z</time>
      </trkpt>
      <trkpt lat="43.42576" lon="6.06547">
        <ele>282.68552</ele>
        <time>2014-05-31T13:17:44Z</time>
      </trkpt>
      <trkpt lat="43.42575" lon="6.06573">
        <ele>283.53735</ele>
        <time>2014-05-31T13:17:52Z</time>
      </trkpt>
      <trkpt lat="43.42571" lon="6.0659">
        <ele>283.70581</ele>
        <time>2014-05-31T13:17:57Z</time>
      </trkpt>
      <trkpt lat="43.42561" lon="6.06608">
        <ele>283.58908</ele>
        <time>2014-05-31T13:18:03Z</time>
      </trkpt>
      <trkpt lat="43.4255" lon="6.06622">
        <ele>282.70993</ele>
        <time>2014-05-31T13:18:09Z</time>
      </trkpt>
      <trkpt lat="43.42543" lon="6.06643">
        <ele>282.33374</ele>
        <time>2014-05-31T13:18:15Z</time>
      </trkpt>
      <trkpt lat="43.42538" lon="6.06657">
        <ele>281.78476</ele>
        <time>2014-05-31T13:18:20Z</time>
      </trkpt>
      <trkpt lat="43.42533" lon="6.06674">
        <ele>280.89142</ele>
        <time>2014-05-31T13:18:25Z</time>
      </trkpt>
      <trkpt lat="43.42532" lon="6.06677">
        <ele>280.75409</ele>
        <time>2014-05-31T13:18:26Z</time>
      </trkpt>
      <trkpt lat="43.42532" lon="6.06681">
        <ele>280.68542</ele>
        <time>2014-05-31T13:18:27Z</time>
      </trkpt>
      <trkpt lat="43.42531" lon="6.06689">
        <ele>280.61676</ele>
        <time>2014-05-31T13:18:29Z</time>
      </trkpt>
      <trkpt lat="43.42531" lon="6.06693">
        <ele>280.61676</ele>
        <time>2014-05-31T13:18:30Z</time>
      </trkpt>
      <trkpt lat="43.42529" lon="6.06709">
        <ele>280.1218</ele>
        <time>2014-05-31T13:18:33Z</time>
      </trkpt>
      <trkpt lat="43.42526" lon="6.06726">
        <ele>279.69238</ele>
        <time>2014-05-31T13:18:35Z</time>
      </trkpt>
      <trkpt lat="43.42525" lon="6.06744">
        <ele>278.91132</ele>
        <time>2014-05-31T13:18:37Z</time>
      </trkpt>
      <trkpt lat="43.42523" lon="6.06754">
        <ele>278.35513</ele>
        <time>2014-05-31T13:18:38Z</time>
      </trkpt>
      <trkpt lat="43.42521" lon="6.06764">
        <ele>277.74231</ele>
        <time>2014-05-31T13:18:39Z</time>
      </trkpt>
      <trkpt lat="43.42514" lon="6.06785">
        <ele>276.31235</ele>
        <time>2014-05-31T13:18:41Z</time>
      </trkpt>
      <trkpt lat="43.42511" lon="6.06794">
        <ele>275.63086</ele>
        <time>2014-05-31T13:18:42Z</time>
      </trkpt>
      <trkpt lat="43.42509" lon="6.06805">
        <ele>274.96826</ele>
        <time>2014-05-31T13:18:43Z</time>
      </trkpt>
      <trkpt lat="43.42506" lon="6.06816">
        <ele>274.2507</ele>
        <time>2014-05-31T13:18:44Z</time>
      </trkpt>
      <trkpt lat="43.42503" lon="6.06826">
        <ele>273.5795</ele>
        <time>2014-05-31T13:18:45Z</time>
      </trkpt>
      <trkpt lat="43.42501" lon="6.06837">
        <ele>272.94263</ele>
        <time>2014-05-31T13:18:46Z</time>
      </trkpt>
      <trkpt lat="43.42497" lon="6.0686">
        <ele>271.729</ele>
        <time>2014-05-31T13:18:48Z</time>
      </trkpt>
      <trkpt lat="43.42497" lon="6.06872">
        <ele>271.26895</ele>
        <time>2014-05-31T13:18:49Z</time>
      </trkpt>
      <trkpt lat="43.42495" lon="6.06918">
        <ele>269.45276</ele>
        <time>2014-05-31T13:18:53Z</time>
      </trkpt>
      <trkpt lat="43.42496" lon="6.06931">
        <ele>269.02017</ele>
        <time>2014-05-31T13:18:54Z</time>
      </trkpt>
      <trkpt lat="43.42497" lon="6.06941">
        <ele>268.81418</ele>
        <time>2014-05-31T13:18:55Z</time>
      </trkpt>
      <trkpt lat="43.4251" lon="6.06985">
        <ele>269.17062</ele>
        <time>2014-05-31T13:19:00Z</time>
      </trkpt>
      <trkpt lat="43.42512" lon="6.07005">
        <ele>268.08807</ele>
        <time>2014-05-31T13:19:02Z</time>
      </trkpt>
      <trkpt lat="43.42513" lon="6.07016">
        <ele>267.81168</ele>
        <time>2014-05-31T13:19:03Z</time>
      </trkpt>
      <trkpt lat="43.42514" lon="6.07027">
        <ele>267.53531</ele>
        <time>2014-05-31T13:19:04Z</time>
      </trkpt>
      <trkpt lat="43.42516" lon="6.07052">
        <ele>267.76331</ele>
        <time>2014-05-31T13:19:06Z</time>
      </trkpt>
      <trkpt lat="43.42517" lon="6.07064">
        <ele>267.28171</ele>
        <time>2014-05-31T13:19:07Z</time>
      </trkpt>
      <trkpt lat="43.42519" lon="6.07076">
        <ele>266.57104</ele>
        <time>2014-05-31T13:19:08Z</time>
      </trkpt>
      <trkpt lat="43.42521" lon="6.07095">
        <ele>265.82385</ele>
        <time>2014-05-31T13:19:10Z</time>
      </trkpt>
      <trkpt lat="43.42522" lon="6.07103">
        <ele>265.61957</ele>
        <time>2014-05-31T13:19:11Z</time>
      </trkpt>
      <trkpt lat="43.42522" lon="6.07109">
        <ele>265.48224</ele>
        <time>2014-05-31T13:19:12Z</time>
      </trkpt>
      <trkpt lat="43.42523" lon="6.07115">
        <ele>265.46368</ele>
        <time>2014-05-31T13:19:13Z</time>
      </trkpt>
      <trkpt lat="43.42523" lon="6.0712">
        <ele>265.50488</ele>
        <time>2014-05-31T13:19:15Z</time>
      </trkpt>
      <trkpt lat="43.42522" lon="6.07123">
        <ele>265.42249</ele>
        <time>2014-05-31T13:19:16Z</time>
      </trkpt>
      <trkpt lat="43.42519" lon="6.07132">
        <ele>265.0105</ele>
        <time>2014-05-31T13:19:18Z</time>
      </trkpt>
      <trkpt lat="43.42516" lon="6.07135">
        <ele>264.72211</ele>
        <time>2014-05-31T13:19:19Z</time>
      </trkpt>
      <trkpt lat="43.42506" lon="6.07138">
        <ele>263.65094</ele>
        <time>2014-05-31T13:19:21Z</time>
      </trkpt>
      <trkpt lat="43.42495" lon="6.07139">
        <ele>262.49738</ele>
        <time>2014-05-31T13:19:23Z</time>
      </trkpt>
      <trkpt lat="43.42477" lon="6.07139">
        <ele>260.51984</ele>
        <time>2014-05-31T13:19:26Z</time>
      </trkpt>
      <trkpt lat="43.42464" lon="6.07136">
        <ele>259.14447</ele>
        <time>2014-05-31T13:19:28Z</time>
      </trkpt>
      <trkpt lat="43.42457" lon="6.07136">
        <ele>258.43726</ele>
        <time>2014-05-31T13:19:29Z</time>
      </trkpt>
      <trkpt lat="43.42427" lon="6.07132">
        <ele>256.65295</ele>
        <time>2014-05-31T13:19:33Z</time>
      </trkpt>
      <trkpt lat="43.4238" lon="6.07124">
        <ele>253.26465</ele>
        <time>2014-05-31T13:19:39Z</time>
      </trkpt>
      <trkpt lat="43.42371" lon="6.07123">
        <ele>252.06302</ele>
        <time>2014-05-31T13:19:40Z</time>
      </trkpt>
      <trkpt lat="43.42356" lon="6.07114">
        <ele>250.7132</ele>
        <time>2014-05-31T13:19:42Z</time>
      </trkpt>
      <trkpt lat="43.42348" lon="6.07108">
        <ele>250.60315</ele>
        <time>2014-05-31T13:19:43Z</time>
      </trkpt>
      <trkpt lat="43.42326" lon="6.07087">
        <ele>249.67982</ele>
        <time>2014-05-31T13:19:46Z</time>
      </trkpt>
      <trkpt lat="43.42308" lon="6.07076">
        <ele>249.34068</ele>
        <time>2014-05-31T13:19:48Z</time>
      </trkpt>
      <trkpt lat="43.42299" lon="6.07072">
        <ele>249.14328</ele>
        <time>2014-05-31T13:19:49Z</time>
      </trkpt>
      <trkpt lat="43.42289" lon="6.0707">
        <ele>248.86862</ele>
        <time>2014-05-31T13:19:50Z</time>
      </trkpt>
      <trkpt lat="43.42269" lon="6.07068">
        <ele>247.6266</ele>
        <time>2014-05-31T13:19:52Z</time>
      </trkpt>
      <trkpt lat="43.42249" lon="6.07065">
        <ele>245.59021</ele>
        <time>2014-05-31T13:19:54Z</time>
      </trkpt>
      <trkpt lat="43.42239" lon="6.07063">
        <ele>244.90701</ele>
        <time>2014-05-31T13:19:55Z</time>
      </trkpt>
      <trkpt lat="43.42229" lon="6.07062">
        <ele>244.23924</ele>
        <time>2014-05-31T13:19:56Z</time>
      </trkpt>
      <trkpt lat="43.42219" lon="6.0706">
        <ele>243.59047</ele>
        <time>2014-05-31T13:19:57Z</time>
      </trkpt>
      <trkpt lat="43.4221" lon="6.07059">
        <ele>242.98816</ele>
        <time>2014-05-31T13:19:58Z</time>
      </trkpt>
      <trkpt lat="43.42192" lon="6.07053">
        <ele>241.93791</ele>
        <time>2014-05-31T13:20:00Z</time>
      </trkpt>
      <trkpt lat="43.42184" lon="6.07051">
        <ele>241.31865</ele>
        <time>2014-05-31T13:20:01Z</time>
      </trkpt>
      <trkpt lat="43.42175" lon="6.07049">
        <ele>240.63551</ele>
        <time>2014-05-31T13:20:02Z</time>
      </trkpt>
      <trkpt lat="43.42159" lon="6.0704">
        <ele>239.61685</ele>
        <time>2014-05-31T13:20:04Z</time>
      </trkpt>
      <trkpt lat="43.42153" lon="6.07035">
        <ele>239.38489</ele>
        <time>2014-05-31T13:20:05Z</time>
      </trkpt>
      <trkpt lat="43.42146" lon="6.07033">
        <ele>239.12611</ele>
        <time>2014-05-31T13:20:06Z</time>
      </trkpt>
      <trkpt lat="43.42135" lon="6.0704">
        <ele>238.42258</ele>
        <time>2014-05-31T13:20:08Z</time>
      </trkpt>
      <trkpt lat="43.42133" lon="6.07058">
        <ele>237.79993</ele>
        <time>2014-05-31T13:20:10Z</time>
      </trkpt>
      <trkpt lat="43.4214" lon="6.07069">
        <ele>238.06677</ele>
        <time>2014-05-31T13:20:12Z</time>
      </trkpt>
      <trkpt lat="43.42144" lon="6.07073">
        <ele>238.39636</ele>
        <time>2014-05-31T13:20:13Z</time>
      </trkpt>
      <trkpt lat="43.42153" lon="6.0708">
        <ele>239.02808</ele>
        <time>2014-05-31T13:20:15Z</time>
      </trkpt>
      <trkpt lat="43.42156" lon="6.07084">
        <ele>239.21736</ele>
        <time>2014-05-31T13:20:16Z</time>
      </trkpt>
      <trkpt lat="43.42162" lon="6.07096">
        <ele>239.21393</ele>
        <time>2014-05-31T13:20:18Z</time>
      </trkpt>
      <trkpt lat="43.42166" lon="6.07123">
        <ele>238.96191</ele>
        <time>2014-05-31T13:20:22Z</time>
      </trkpt>
      <trkpt lat="43.4217" lon="6.07139">
        <ele>239.08284</ele>
        <time>2014-05-31T13:20:25Z</time>
      </trkpt>
      <trkpt lat="43.42176" lon="6.07155">
        <ele>238.72751</ele>
        <time>2014-05-31T13:20:28Z</time>
      </trkpt>
      <trkpt lat="43.42178" lon="6.0717">
        <ele>238.39294</ele>
        <time>2014-05-31T13:20:31Z</time>
      </trkpt>
      <trkpt lat="43.42177" lon="6.0718">
        <ele>238.36548</ele>
        <time>2014-05-31T13:20:34Z</time>
      </trkpt>
      <trkpt lat="43.42175" lon="6.0719">
        <ele>238.31055</ele>
        <time>2014-05-31T13:20:37Z</time>
      </trkpt>
      <trkpt lat="43.42175" lon="6.07197">
        <ele>238.20657</ele>
        <time>2014-05-31T13:20:39Z</time>
      </trkpt>
      <trkpt lat="43.42175" lon="6.07201">
        <ele>238.07784</ele>
        <time>2014-05-31T13:20:40Z</time>
      </trkpt>
      <trkpt lat="43.42175" lon="6.07207">
        <ele>237.81348</ele>
        <time>2014-05-31T13:20:42Z</time>
      </trkpt>
      <trkpt lat="43.42172" lon="6.07227">
        <ele>237.18695</ele>
        <time>2014-05-31T13:20:47Z</time>
      </trkpt>
      <trkpt lat="43.42166" lon="6.07256">
        <ele>236.96634</ele>
        <time>2014-05-31T13:20:53Z</time>
      </trkpt>
      <trkpt lat="43.42162" lon="6.07274">
        <ele>236.81999</ele>
        <time>2014-05-31T13:20:56Z</time>
      </trkpt>
      <trkpt lat="43.42159" lon="6.0729">
        <ele>236.7063</ele>
        <time>2014-05-31T13:20:59Z</time>
      </trkpt>
      <trkpt lat="43.42152" lon="6.07324">
        <ele>236.47284</ele>
        <time>2014-05-31T13:21:05Z</time>
      </trkpt>
      <trkpt lat="43.42149" lon="6.07355">
        <ele>237.12833</ele>
        <time>2014-05-31T13:21:11Z</time>
      </trkpt>
      <trkpt lat="43.42142" lon="6.07416">
        <ele>237.12952</ele>
        <time>2014-05-31T13:21:22Z</time>
      </trkpt>
      <trkpt lat="43.42141" lon="6.07427">
        <ele>237.06085</ele>
        <time>2014-05-31T13:21:24Z</time>
      </trkpt>
      <trkpt lat="43.42132" lon="6.0746">
        <ele>237.42546</ele>
        <time>2014-05-31T13:21:31Z</time>
      </trkpt>
      <trkpt lat="43.42127" lon="6.07479">
        <ele>237.67831</ele>
        <time>2014-05-31T13:21:36Z</time>
      </trkpt>
      <trkpt lat="43.42125" lon="6.07482">
        <ele>237.67935</ele>
        <time>2014-05-31T13:21:37Z</time>
      </trkpt>
      <trkpt lat="43.42123" lon="6.07489">
        <ele>237.77481</ele>
        <time>2014-05-31T13:21:39Z</time>
      </trkpt>
      <trkpt lat="43.42118" lon="6.07494">
        <ele>237.83354</ele>
        <time>2014-05-31T13:21:41Z</time>
      </trkpt>
      <trkpt lat="43.42115" lon="6.07495">
        <ele>237.85863</ele>
        <time>2014-05-31T13:21:42Z</time>
      </trkpt>
      <trkpt lat="43.42105" lon="6.07497">
        <ele>238.09546</ele>
        <time>2014-05-31T13:21:46Z</time>
      </trkpt>
      <trkpt lat="43.42085" lon="6.07499">
        <ele>238.89368</ele>
        <time>2014-05-31T13:21:53Z</time>
      </trkpt>
      <trkpt lat="43.42067" lon="6.075">
        <ele>239.60374</ele>
        <time>2014-05-31T13:22:00Z</time>
      </trkpt>
      <trkpt lat="43.42046" lon="6.075">
        <ele>240</ele>
        <time>2014-05-31T13:22:06Z</time>
      </trkpt>
      <trkpt lat="43.42022" lon="6.07502">
        <ele>240</ele>
        <time>2014-05-31T13:22:12Z</time>
      </trkpt>
      <trkpt lat="43.4202" lon="6.07499">
        <ele>240</ele>
        <time>2014-05-31T13:22:13Z</time>
      </trkpt>
      <trkpt lat="43.42015" lon="6.07489">
        <ele>240</ele>
        <time>2014-05-31T13:22:15Z</time>
      </trkpt>
      <trkpt lat="43.42003" lon="6.0745">
        <ele>240</ele>
        <time>2014-05-31T13:22:22Z</time>
      </trkpt>
      <trkpt lat="43.42" lon="6.07433">
        <ele>239.99413</ele>
        <time>2014-05-31T13:22:25Z</time>
      </trkpt>
      <trkpt lat="43.41999" lon="6.07415">
        <ele>239.83391</ele>
        <time>2014-05-31T13:22:28Z</time>
      </trkpt>
      <trkpt lat="43.41996" lon="6.07398">
        <ele>238.09462</ele>
        <time>2014-05-31T13:22:31Z</time>
      </trkpt>
      <trkpt lat="43.41994" lon="6.07377">
        <ele>236.7899</ele>
        <time>2014-05-31T13:22:35Z</time>
      </trkpt>
      <trkpt lat="43.41991" lon="6.07361">
        <ele>236.31396</ele>
        <time>2014-05-31T13:22:38Z</time>
      </trkpt>
      <trkpt lat="43.41984" lon="6.07342">
        <ele>235.4846</ele>
        <time>2014-05-31T13:22:41Z</time>
      </trkpt>
      <trkpt lat="43.41978" lon="6.07329">
        <ele>234.65617</ele>
        <time>2014-05-31T13:22:43Z</time>
      </trkpt>
      <trkpt lat="43.41972" lon="6.07313">
        <ele>233.50891</ele>
        <time>2014-05-31T13:22:45Z</time>
      </trkpt>
      <trkpt lat="43.41964" lon="6.07297">
        <ele>232.13963</ele>
        <time>2014-05-31T13:22:47Z</time>
      </trkpt>
      <trkpt lat="43.41957" lon="6.07282">
        <ele>231.07877</ele>
        <time>2014-05-31T13:22:49Z</time>
      </trkpt>
      <trkpt lat="43.41954" lon="6.07274">
        <ele>230.43665</ele>
        <time>2014-05-31T13:22:50Z</time>
      </trkpt>
      <trkpt lat="43.41947" lon="6.07259">
        <ele>228.8093</ele>
        <time>2014-05-31T13:22:52Z</time>
      </trkpt>
      <trkpt lat="43.41941" lon="6.07244">
        <ele>227.3652</ele>
        <time>2014-05-31T13:22:54Z</time>
      </trkpt>
      <trkpt lat="43.41935" lon="6.0723">
        <ele>226.1205</ele>
        <time>2014-05-31T13:22:56Z</time>
      </trkpt>
      <trkpt lat="43.41927" lon="6.0721">
        <ele>225.80812</ele>
        <time>2014-05-31T13:22:59Z</time>
      </trkpt>
      <trkpt lat="43.41917" lon="6.07192">
        <ele>226.08965</ele>
        <time>2014-05-31T13:23:02Z</time>
      </trkpt>
      <trkpt lat="43.41911" lon="6.07189">
        <ele>226.00211</ele>
        <time>2014-05-31T13:23:03Z</time>
      </trkpt>
      <trkpt lat="43.41906" lon="6.07189">
        <ele>225.78925</ele>
        <time>2014-05-31T13:23:04Z</time>
      </trkpt>
      <trkpt lat="43.41893" lon="6.07201">
        <ele>224.91891</ele>
        <time>2014-05-31T13:23:07Z</time>
      </trkpt>
      <trkpt lat="43.41889" lon="6.07204">
        <ele>224.65283</ele>
        <time>2014-05-31T13:23:08Z</time>
      </trkpt>
      <trkpt lat="43.41883" lon="6.07206">
        <ele>224.38162</ele>
        <time>2014-05-31T13:23:09Z</time>
      </trkpt>
      <trkpt lat="43.41879" lon="6.07208">
        <ele>224.14301</ele>
        <time>2014-05-31T13:23:10Z</time>
      </trkpt>
      <trkpt lat="43.41864" lon="6.07215">
        <ele>223.36366</ele>
        <time>2014-05-31T13:23:13Z</time>
      </trkpt>
      <trkpt lat="43.41862" lon="6.07222">
        <ele>223.03931</ele>
        <time>2014-05-31T13:23:14Z</time>
      </trkpt>
      <trkpt lat="43.4186" lon="6.07241">
        <ele>223.62787</ele>
        <time>2014-05-31T13:23:17Z</time>
      </trkpt>
      <trkpt lat="43.4186" lon="6.07247">
        <ele>223.79953</ele>
        <time>2014-05-31T13:23:18Z</time>
      </trkpt>
      <trkpt lat="43.41861" lon="6.07261">
        <ele>224.38318</ele>
        <time>2014-05-31T13:23:22Z</time>
      </trkpt>
      <trkpt lat="43.41862" lon="6.0726">
        <ele>224.39886</ele>
        <time>2014-05-31T13:23:26Z</time>
      </trkpt>
      <trkpt lat="43.41862" lon="6.07261">
        <ele>224.42804</ele>
        <time>2014-05-31T13:23:31Z</time>
      </trkpt>
      <trkpt lat="43.41862" lon="6.07261">
        <ele>224.42804</ele>
        <time>2014-05-31T13:23:34Z</time>
      </trkpt>
    </trkseg>
  </trk>
</gpx>